Time,TemperatureF,DewpointF,PressureIn,WindDirection,WindDirectionDegrees,WindSpeedMPH,WindSpeedGustMPH,Humidity,HourlyPrecipIn,Conditions,Clouds,dailyrainin,SoftwareType,DateUTC
2013-02-06 00:00:00,52.2,33.6,29.38,NNE,22,1.6,1.6,49,0.00,,---,0.00,VWS V14.01,2013-02-05 22:00:00,
2013-02-06 00:01:00,52.2,33.6,29.38,NNE,22,1.1,1.6,49,0.00,,---,0.00,VWS V14.01,2013-02-05 22:01:00,
2013-02-06 00:02:00,52.2,34.1,29.38,NNE,22,2.0,2.0,50,0.00,,---,0.00,VWS V14.01,2013-02-05 22:02:00,
2013-02-06 00:03:00,52.2,34.1,29.38,NNE,22,1.6,2.0,50,0.00,,---,0.00,VWS V14.01,2013-02-05 22:03:00,
2013-02-06 00:04:00,52.2,34.1,29.38,NNE,22,1.6,1.6,50,0.00,,---,0.00,VWS V14.01,2013-02-05 22:04:00,
2013-02-06 00:06:00,52.2,34.1,29.38,NNE,22,0.0,1.6,50,0.00,,---,0.00,VWS V14.01,2013-02-05 22:06:00,
2013-02-06 00:07:00,52.0,33.9,29.38,NNE,22,0.0,0.0,50,0.00,,---,0.00,VWS V14.01,2013-02-05 22:07:00,
2013-02-06 00:08:00,52.0,33.9,29.38,NNE,22,0.0,0.0,50,0.00,,---,0.00,VWS V14.01,2013-02-05 22:08:00,
2013-02-06 00:09:00,52.0,33.9,29.38,NNE,22,0.0,0.0,50,0.00,,---,0.00,VWS V14.01,2013-02-05 22:09:00,
2013-02-06 00:10:00,51.8,33.8,29.38,NNE,22,1.1,1.1,50,0.00,,---,0.00,VWS V14.01,2013-02-05 22:10:00,
2013-02-06 00:11:00,51.8,33.3,29.38,NE,45,1.1,1.1,49,0.00,,---,0.00,VWS V14.01,2013-02-05 22:11:00,
2013-02-06 00:12:00,51.8,33.3,29.38,NE,45,0.0,1.1,49,0.00,,---,0.00,VWS V14.01,2013-02-05 22:12:00,
2013-02-06 00:13:00,51.6,33.6,29.38,NE,45,0.0,0.0,50,0.00,,---,0.00,VWS V14.01,2013-02-05 22:13:00,
2013-02-06 00:14:00,51.6,33.6,29.38,NE,45,0.0,0.0,50,0.00,,---,0.00,VWS V14.01,2013-02-05 22:14:00,
2013-02-06 00:15:00,51.6,33.6,29.38,NE,45,0.0,0.0,50,0.00,,---,0.00,VWS V14.01,2013-02-05 22:15:00,
2013-02-06 00:16:00,51.6,33.6,29.38,NE,45,0.0,0.0,50,0.00,,---,0.00,VWS V14.01,2013-02-05 22:16:00,
2013-02-06 00:17:00,51.6,33.6,29.38,NE,45,0.0,0.0,50,0.00,,---,0.00,VWS V14.01,2013-02-05 22:17:00,
2013-02-06 00:18:00,51.6,33.6,29.38,NE,45,0.0,0.0,50,0.00,,---,0.00,VWS V14.01,2013-02-05 22:18:00,
2013-02-06 00:19:00,51.4,33.4,29.38,NE,45,0.0,0.0,50,0.00,,---,0.00,VWS V14.01,2013-02-05 22:19:00,
2013-02-06 00:20:00,51.6,33.6,29.38,NE,45,0.0,0.0,50,0.00,,---,0.00,VWS V14.01,2013-02-05 22:20:00,
2013-02-06 00:21:00,51.6,33.6,29.38,NE,45,0.0,0.0,50,0.00,,---,0.00,VWS V14.01,2013-02-05 22:21:00,
2013-02-06 00:22:00,51.4,33.4,29.38,NE,45,0.0,0.0,50,0.00,,---,0.00,VWS V14.01,2013-02-05 22:22:00,
2013-02-06 00:23:00,51.4,33.4,29.38,NE,45,0.0,0.0,50,0.00,,---,0.00,VWS V14.01,2013-02-05 22:23:00,
2013-02-06 00:24:00,51.4,33.9,29.38,NE,45,0.0,0.0,51,0.00,,---,0.00,VWS V14.01,2013-02-05 22:24:00,
2013-02-06 00:25:00,51.4,33.9,29.38,NE,45,0.0,0.0,51,0.00,,---,0.00,VWS V14.01,2013-02-05 22:25:00,
2013-02-06 00:26:00,51.4,33.9,29.38,NE,45,0.0,0.0,51,0.00,,---,0.00,VWS V14.01,2013-02-05 22:26:00,
2013-02-06 00:27:00,51.4,33.9,29.38,NE,45,0.0,0.0,51,0.00,,---,0.00,VWS V14.01,2013-02-05 22:27:00,
2013-02-06 00:28:00,51.4,33.9,29.38,NE,45,0.0,0.0,51,0.00,,---,0.00,VWS V14.01,2013-02-05 22:28:00,
2013-02-06 00:29:00,51.4,33.9,29.38,NE,45,0.0,0.0,51,0.00,,---,0.00,VWS V14.01,2013-02-05 22:29:00,
2013-02-06 00:30:00,51.3,33.8,29.38,NE,45,0.0,0.0,51,0.00,,---,0.00,VWS V14.01,2013-02-05 22:30:00,
2013-02-06 00:31:00,51.3,33.8,29.38,NE,45,0.0,0.0,51,0.00,,---,0.00,VWS V14.01,2013-02-05 22:31:00,
2013-02-06 00:32:00,51.1,33.6,29.38,NE,45,0.0,0.0,51,0.00,,---,0.00,VWS V14.01,2013-02-05 22:32:00,
2013-02-06 00:33:00,50.9,33.4,29.38,NE,45,0.0,0.0,51,0.00,,---,0.00,VWS V14.01,2013-02-05 22:33:00,
2013-02-06 00:34:00,50.9,33.4,29.38,NE,45,0.0,0.0,51,0.00,,---,0.00,VWS V14.01,2013-02-05 22:34:00,
2013-02-06 00:35:00,50.9,33.4,29.38,NE,45,0.0,0.0,51,0.00,,---,0.00,VWS V14.01,2013-02-05 22:35:00,
2013-02-06 00:36:00,50.9,33.4,29.38,NE,45,0.0,0.0,51,0.00,,---,0.00,VWS V14.01,2013-02-05 22:36:00,
2013-02-06 00:37:00,50.9,33.4,29.38,NE,45,0.0,0.0,51,0.00,,---,0.00,VWS V14.01,2013-02-05 22:37:00,
2013-02-06 00:38:00,50.9,33.4,29.38,NE,45,0.0,0.0,51,0.00,,---,0.00,VWS V14.01,2013-02-05 22:38:00,
2013-02-06 00:39:00,50.9,33.4,29.38,NE,45,0.0,0.0,51,0.00,,---,0.00,VWS V14.01,2013-02-05 22:39:00,
2013-02-06 00:40:00,50.9,33.4,29.38,NE,45,0.0,0.0,51,0.00,,---,0.00,VWS V14.01,2013-02-05 22:40:00,
2013-02-06 00:41:00,50.9,33.4,29.38,NE,45,0.0,0.0,51,0.00,,---,0.00,VWS V14.01,2013-02-05 22:41:00,
2013-02-06 00:42:00,50.9,33.4,29.38,NE,45,0.0,0.0,51,0.00,,---,0.00,VWS V14.01,2013-02-05 22:42:00,
2013-02-06 00:43:00,50.7,33.3,29.38,NE,45,0.0,0.0,51,0.00,,---,0.00,VWS V14.01,2013-02-05 22:43:00,
2013-02-06 00:44:00,50.7,33.3,29.38,NE,45,0.0,0.0,51,0.00,,---,0.00,VWS V14.01,2013-02-05 22:44:00,
2013-02-06 00:45:00,50.7,33.3,29.38,NE,45,1.1,1.1,51,0.00,,---,0.00,VWS V14.01,2013-02-05 22:45:00,
2013-02-06 00:46:00,50.7,33.3,29.38,NE,45,0.0,1.1,51,0.00,,---,0.00,VWS V14.01,2013-02-05 22:46:00,
2013-02-06 00:47:00,50.7,33.3,29.38,NE,45,0.0,0.0,51,0.00,,---,0.00,VWS V14.01,2013-02-05 22:47:00,
2013-02-06 00:48:00,50.7,33.3,29.38,NE,45,0.0,0.0,51,0.00,,---,0.00,VWS V14.01,2013-02-05 22:48:00,
2013-02-06 00:49:00,50.7,33.3,29.38,NE,45,0.0,0.0,51,0.00,,---,0.00,VWS V14.01,2013-02-05 22:49:00,
2013-02-06 00:50:00,50.7,33.3,29.38,NE,45,0.0,0.0,51,0.00,,---,0.00,VWS V14.01,2013-02-05 22:50:00,
2013-02-06 00:51:00,50.7,33.3,29.38,NE,45,0.0,0.0,51,0.00,,---,0.00,VWS V14.01,2013-02-05 22:51:00,
2013-02-06 00:52:00,50.7,33.3,29.38,NE,45,2.2,2.2,51,0.00,,---,0.00,VWS V14.01,2013-02-05 22:52:00,
2013-02-06 00:53:00,50.7,33.3,29.38,NE,45,1.6,2.2,51,0.00,,---,0.00,VWS V14.01,2013-02-05 22:53:00,
2013-02-06 00:54:00,50.7,33.3,29.38,NE,45,1.3,1.6,51,0.00,,---,0.00,VWS V14.01,2013-02-05 22:54:00,
2013-02-06 00:55:00,50.7,33.8,29.38,NE,45,0.0,1.3,52,0.00,,---,0.00,VWS V14.01,2013-02-05 22:55:00,
2013-02-06 00:56:00,50.7,33.8,29.38,NE,45,0.0,0.0,52,0.00,,---,0.00,VWS V14.01,2013-02-05 22:56:00,
2013-02-06 00:57:00,50.7,33.8,29.38,NE,45,0.0,0.0,52,0.00,,---,0.00,VWS V14.01,2013-02-05 22:57:00,
2013-02-06 00:59:00,50.7,33.8,29.38,NNE,22,1.1,1.1,52,0.00,,---,0.00,VWS V14.01,2013-02-05 22:59:00,
2013-02-06 01:00:00,50.7,33.8,29.38,NNE,22,0.0,1.1,52,0.00,,---,0.00,VWS V14.01,2013-02-05 23:00:00,
2013-02-06 01:01:00,50.7,33.8,29.38,NNE,22,1.6,1.6,52,0.00,,---,0.00,VWS V14.01,2013-02-05 23:01:00,
2013-02-06 01:02:00,50.7,33.8,29.38,NNE,22,1.1,1.6,52,0.00,,---,0.00,VWS V14.01,2013-02-05 23:02:00,
2013-02-06 01:03:00,50.7,33.8,29.38,NNE,22,1.1,1.1,52,0.00,,---,0.00,VWS V14.01,2013-02-05 23:03:00,
2013-02-06 01:04:00,50.7,33.8,29.38,NNE,22,1.3,1.3,52,0.00,,---,0.00,VWS V14.01,2013-02-05 23:04:00,
2013-02-06 01:05:00,50.7,33.8,29.38,NNE,22,1.3,1.3,52,0.00,,---,0.00,VWS V14.01,2013-02-05 23:05:00,
2013-02-06 01:06:00,50.7,33.8,29.38,NNE,22,0.9,1.3,52,0.00,,---,0.00,VWS V14.01,2013-02-05 23:06:00,
2013-02-06 01:07:00,50.5,33.6,29.35,NNE,22,0.0,0.9,52,0.00,,---,0.00,VWS V14.01,2013-02-05 23:07:00,
2013-02-06 01:08:00,50.5,33.6,29.35,NNE,22,0.0,0.0,52,0.00,,---,0.00,VWS V14.01,2013-02-05 23:08:00,
2013-02-06 01:09:00,50.5,33.6,29.35,NNE,22,1.6,1.6,52,0.00,,---,0.00,VWS V14.01,2013-02-05 23:09:00,
2013-02-06 01:10:00,50.5,33.6,29.35,NNE,22,1.3,1.6,52,0.00,,---,0.00,VWS V14.01,2013-02-05 23:10:00,
2013-02-06 01:11:00,50.5,33.6,29.35,NNE,22,1.3,1.3,52,0.00,,---,0.00,VWS V14.01,2013-02-05 23:11:00,
2013-02-06 01:12:00,50.5,33.6,29.35,NNE,22,1.3,1.3,52,0.00,,---,0.00,VWS V14.01,2013-02-05 23:12:00,
2013-02-06 01:13:00,50.5,33.6,29.35,NNE,22,1.1,1.3,52,0.00,,---,0.00,VWS V14.01,2013-02-05 23:13:00,
2013-02-06 01:14:00,50.5,33.6,29.35,NNE,22,1.3,1.3,52,0.00,,---,0.00,VWS V14.01,2013-02-05 23:14:00,
2013-02-06 01:15:00,50.5,33.6,29.35,NNE,22,1.1,1.3,52,0.00,,---,0.00,VWS V14.01,2013-02-05 23:15:00,
2013-02-06 01:16:00,50.5,33.6,29.35,NNE,22,1.1,1.1,52,0.00,,---,0.00,VWS V14.01,2013-02-05 23:16:00,
2013-02-06 01:17:00,50.5,33.6,29.35,NNE,22,1.1,1.1,52,0.00,,---,0.00,VWS V14.01,2013-02-05 23:17:00,
2013-02-06 01:18:00,50.5,33.6,29.35,NNE,22,1.1,1.1,52,0.00,,---,0.00,VWS V14.01,2013-02-05 23:18:00,
2013-02-06 01:19:00,50.5,33.6,29.35,NNE,22,1.1,1.1,52,0.00,,---,0.00,VWS V14.01,2013-02-05 23:19:00,
2013-02-06 01:20:00,50.5,33.6,29.35,NNE,22,1.1,1.1,52,0.00,,---,0.00,VWS V14.01,2013-02-05 23:20:00,
2013-02-06 01:21:00,50.5,33.6,29.35,NNE,22,1.3,1.3,52,0.00,,---,0.00,VWS V14.01,2013-02-05 23:21:00,
2013-02-06 01:22:00,50.5,33.6,29.35,NNE,22,1.1,1.3,52,0.00,,---,0.00,VWS V14.01,2013-02-05 23:22:00,
2013-02-06 01:23:00,50.5,33.6,29.35,NNE,22,1.3,1.3,52,0.00,,---,0.00,VWS V14.01,2013-02-05 23:23:00,
2013-02-06 01:24:00,50.5,33.6,29.35,NNE,22,0.9,1.3,52,0.00,,---,0.00,VWS V14.01,2013-02-05 23:24:00,
2013-02-06 01:25:00,50.5,33.6,29.35,NNE,22,0.0,0.9,52,0.00,,---,0.00,VWS V14.01,2013-02-05 23:25:00,
2013-02-06 01:26:00,50.4,33.4,29.35,NNE,22,0.0,0.0,52,0.00,,---,0.00,VWS V14.01,2013-02-05 23:26:00,
2013-02-06 01:27:00,50.4,33.4,29.35,NNE,22,0.0,0.0,52,0.00,,---,0.00,VWS V14.01,2013-02-05 23:27:00,
2013-02-06 01:28:00,50.4,33.4,29.35,NNE,22,0.0,0.0,52,0.00,,---,0.00,VWS V14.01,2013-02-05 23:28:00,
2013-02-06 01:29:00,50.4,33.4,29.35,NNE,22,2.0,2.0,52,0.00,,---,0.00,VWS V14.01,2013-02-05 23:29:00,
2013-02-06 01:30:00,50.4,33.4,29.35,NE,45,0.0,2.0,52,0.00,,---,0.00,VWS V14.01,2013-02-05 23:30:00,
2013-02-06 01:31:00,50.2,33.2,29.35,NE,45,0.0,0.0,52,0.00,,---,0.00,VWS V14.01,2013-02-05 23:31:00,
2013-02-06 01:32:00,50.2,33.2,29.35,NE,45,0.0,0.0,52,0.00,,---,0.00,VWS V14.01,2013-02-05 23:32:00,
2013-02-06 01:33:00,50.2,33.2,29.35,NE,45,1.1,1.1,52,0.00,,---,0.00,VWS V14.01,2013-02-05 23:33:00,
2013-02-06 01:34:00,50.2,33.2,29.35,ENE,68,1.6,1.6,52,0.00,,---,0.00,VWS V14.01,2013-02-05 23:34:00,
2013-02-06 01:35:00,50.2,33.2,29.35,ENE,68,1.3,1.6,52,0.00,,---,0.00,VWS V14.01,2013-02-05 23:35:00,
2013-02-06 01:36:00,50.2,33.2,29.35,ENE,68,1.3,1.3,52,0.00,,---,0.00,VWS V14.01,2013-02-05 23:36:00,
2013-02-06 01:37:00,50.2,33.2,29.38,ENE,68,1.3,1.3,52,0.00,,---,0.00,VWS V14.01,2013-02-05 23:37:00,
2013-02-06 01:38:00,50.2,33.7,29.38,ENE,68,0.9,1.3,53,0.00,,---,0.00,VWS V14.01,2013-02-05 23:38:00,
2013-02-06 01:39:00,50.2,33.7,29.38,ENE,68,0.0,0.9,53,0.00,,---,0.00,VWS V14.01,2013-02-05 23:39:00,
2013-02-06 01:40:00,50.2,33.7,29.38,ENE,68,0.0,0.0,53,0.00,,---,0.00,VWS V14.01,2013-02-05 23:40:00,
2013-02-06 01:41:00,50.2,33.7,29.38,ENE,68,0.0,0.0,53,0.00,,---,0.00,VWS V14.01,2013-02-05 23:41:00,
2013-02-06 01:42:00,50.2,33.7,29.38,ENE,68,2.2,2.2,53,0.00,,---,0.00,VWS V14.01,2013-02-05 23:42:00,
2013-02-06 01:43:00,50.2,33.7,29.38,ENE,68,1.3,2.2,53,0.00,,---,0.00,VWS V14.01,2013-02-05 23:43:00,
2013-02-06 01:44:00,50.2,33.7,29.38,ENE,68,1.1,1.3,53,0.00,,---,0.00,VWS V14.01,2013-02-05 23:44:00,
2013-02-06 01:45:00,50.2,33.7,29.38,ENE,68,1.3,1.3,53,0.00,,---,0.00,VWS V14.01,2013-02-05 23:45:00,
2013-02-06 01:46:00,50.2,33.7,29.38,ENE,68,1.3,1.3,53,0.00,,---,0.00,VWS V14.01,2013-02-05 23:46:00,
2013-02-06 01:47:00,50.2,33.7,29.38,ENE,68,1.3,1.3,53,0.00,,---,0.00,VWS V14.01,2013-02-05 23:47:00,
2013-02-06 01:48:00,50.2,33.7,29.38,ENE,68,1.3,1.3,53,0.00,,---,0.00,VWS V14.01,2013-02-05 23:48:00,
2013-02-06 01:49:00,50.2,33.7,29.38,ENE,68,0.0,1.3,53,0.00,,---,0.00,VWS V14.01,2013-02-05 23:49:00,
2013-02-06 01:50:00,50.2,33.7,29.38,ENE,68,1.3,1.3,53,0.00,,---,0.00,VWS V14.01,2013-02-05 23:50:00,
2013-02-06 01:51:00,50.2,33.7,29.38,NE,45,1.3,1.3,53,0.00,,---,0.00,VWS V14.01,2013-02-05 23:51:00,
2013-02-06 01:52:00,50.2,33.7,29.38,NE,45,0.9,1.3,53,0.00,,---,0.00,VWS V14.01,2013-02-05 23:52:00,
2013-02-06 01:53:00,50.2,33.7,29.38,NE,45,1.6,1.6,53,0.00,,---,0.00,VWS V14.01,2013-02-05 23:53:00,
2013-02-06 01:54:00,50.2,33.7,29.38,NNE,22,1.3,1.6,53,0.00,,---,0.00,VWS V14.01,2013-02-05 23:54:00,
2013-02-06 01:55:00,50.2,33.7,29.38,NNE,22,2.0,2.0,53,0.00,,---,0.00,VWS V14.01,2013-02-05 23:55:00,
2013-02-06 01:56:00,50.0,33.6,29.38,NNE,22,2.0,2.0,53,0.00,,---,0.00,VWS V14.01,2013-02-05 23:56:00,
2013-02-06 01:57:00,50.0,33.6,29.38,NNE,22,2.0,2.0,53,0.00,,---,0.00,VWS V14.01,2013-02-05 23:57:00,
2013-02-06 01:58:00,50.0,33.6,29.38,NNE,22,0.0,2.0,53,0.00,,---,0.00,VWS V14.01,2013-02-05 23:58:00,
2013-02-06 01:59:00,50.0,33.6,29.38,NNE,22,0.0,0.0,53,0.00,,---,0.00,VWS V14.01,2013-02-05 23:59:00,
2013-02-06 02:00:00,50.0,33.6,29.38,NNE,22,1.1,1.1,53,0.00,,---,0.00,VWS V14.01,2013-02-06 00:00:00,
2013-02-06 02:01:00,50.0,33.6,29.38,NNE,22,0.0,1.1,53,0.00,,---,0.00,VWS V14.01,2013-02-06 00:01:00,
2013-02-06 02:02:00,50.0,33.6,29.38,NNE,22,1.3,1.3,53,0.00,,---,0.00,VWS V14.01,2013-02-06 00:02:00,
2013-02-06 02:03:00,50.0,33.6,29.38,NNE,22,1.6,1.6,53,0.00,,---,0.00,VWS V14.01,2013-02-06 00:03:00,
2013-02-06 02:04:00,50.0,33.6,29.38,NNE,22,1.1,1.6,53,0.00,,---,0.00,VWS V14.01,2013-02-06 00:04:00,
2013-02-06 02:05:00,50.0,33.6,29.38,NNE,22,0.9,1.1,53,0.00,,---,0.00,VWS V14.01,2013-02-06 00:05:00,
2013-02-06 02:06:00,50.0,33.6,29.38,NNE,22,0.9,0.9,53,0.00,,---,0.00,VWS V14.01,2013-02-06 00:06:00,
2013-02-06 02:07:00,49.8,33.9,29.38,NNE,22,0.0,0.9,54,0.00,,---,0.00,VWS V14.01,2013-02-06 00:07:00,
2013-02-06 02:08:00,49.8,33.9,29.38,NNE,22,0.0,0.0,54,0.00,,---,0.00,VWS V14.01,2013-02-06 00:08:00,
2013-02-06 02:09:00,49.8,33.9,29.38,NNE,22,0.0,0.0,54,0.00,,---,0.00,VWS V14.01,2013-02-06 00:09:00,
2013-02-06 02:10:00,49.8,33.9,29.38,NNE,22,0.0,0.0,54,0.00,,---,0.00,VWS V14.01,2013-02-06 00:10:00,
2013-02-06 02:11:00,49.8,33.9,29.38,NNE,22,0.0,0.0,54,0.00,,---,0.00,VWS V14.01,2013-02-06 00:11:00,
2013-02-06 02:12:00,49.8,33.9,29.38,NNE,22,0.9,0.9,54,0.00,,---,0.00,VWS V14.01,2013-02-06 00:12:00,
2013-02-06 02:13:00,49.8,33.9,29.38,NNE,22,0.0,0.9,54,0.00,,---,0.00,VWS V14.01,2013-02-06 00:13:00,
2013-02-06 02:14:00,49.8,33.9,29.38,NNE,22,0.0,0.0,54,0.00,,---,0.00,VWS V14.01,2013-02-06 00:14:00,
2013-02-06 02:15:00,49.8,33.9,29.38,NNE,22,0.0,0.0,54,0.00,,---,0.00,VWS V14.01,2013-02-06 00:15:00,
2013-02-06 02:16:00,49.8,33.9,29.38,NNE,22,0.0,0.0,54,0.00,,---,0.00,VWS V14.01,2013-02-06 00:16:00,
2013-02-06 02:17:00,49.6,33.7,29.38,NNE,22,1.6,1.6,54,0.00,,---,0.00,VWS V14.01,2013-02-06 00:17:00,
2013-02-06 02:18:00,49.6,33.7,29.38,NNE,22,1.3,1.6,54,0.00,,---,0.00,VWS V14.01,2013-02-06 00:18:00,
2013-02-06 02:19:00,49.8,33.9,29.38,NNE,22,1.3,1.3,54,0.00,,---,0.00,VWS V14.01,2013-02-06 00:19:00,
2013-02-06 02:20:00,49.8,33.9,29.38,NNE,22,0.9,1.3,54,0.00,,---,0.00,VWS V14.01,2013-02-06 00:20:00,
2013-02-06 02:21:00,49.8,33.9,29.38,NNE,22,1.3,1.3,54,0.00,,---,0.00,VWS V14.01,2013-02-06 00:21:00,
2013-02-06 02:22:00,49.8,33.9,29.38,NNE,22,0.0,1.3,54,0.00,,---,0.00,VWS V14.01,2013-02-06 00:22:00,
2013-02-06 02:23:00,49.8,33.9,29.38,NNE,22,0.0,0.0,54,0.00,,---,0.00,VWS V14.01,2013-02-06 00:23:00,
2013-02-06 02:24:00,49.6,33.7,29.38,NNE,22,0.0,0.0,54,0.00,,---,0.00,VWS V14.01,2013-02-06 00:24:00,
2013-02-06 02:25:00,49.6,33.7,29.38,NNE,22,0.0,0.0,54,0.00,,---,0.00,VWS V14.01,2013-02-06 00:25:00,
2013-02-06 02:26:00,49.6,33.7,29.38,NNE,22,0.0,0.0,54,0.00,,---,0.00,VWS V14.01,2013-02-06 00:26:00,
2013-02-06 02:27:00,49.6,33.7,29.38,NNE,22,0.0,0.0,54,0.00,,---,0.00,VWS V14.01,2013-02-06 00:27:00,
2013-02-06 02:28:00,49.5,33.5,29.38,NNE,22,0.0,0.0,54,0.00,,---,0.00,VWS V14.01,2013-02-06 00:28:00,
2013-02-06 02:29:00,49.5,33.5,29.38,NNE,22,0.0,0.0,54,0.00,,---,0.00,VWS V14.01,2013-02-06 00:29:00,
2013-02-06 02:30:00,49.5,33.5,29.38,NNE,22,0.0,0.0,54,0.00,,---,0.00,VWS V14.01,2013-02-06 00:30:00,
2013-02-06 02:31:00,49.5,33.5,29.38,NNE,22,0.0,0.0,54,0.00,,---,0.00,VWS V14.01,2013-02-06 00:31:00,
2013-02-06 02:32:00,49.3,33.4,29.38,NNE,22,0.0,0.0,54,0.00,,---,0.00,VWS V14.01,2013-02-06 00:32:00,
2013-02-06 02:33:00,49.3,33.4,29.38,NNE,22,0.9,0.9,54,0.00,,---,0.00,VWS V14.01,2013-02-06 00:33:00,
2013-02-06 02:34:00,49.3,33.4,29.38,NNE,22,0.0,0.9,54,0.00,,---,0.00,VWS V14.01,2013-02-06 00:34:00,
2013-02-06 02:35:00,49.3,33.4,29.38,NNE,22,0.0,0.0,54,0.00,,---,0.00,VWS V14.01,2013-02-06 00:35:00,
2013-02-06 02:36:00,49.3,33.4,29.38,NNE,22,0.0,0.0,54,0.00,,---,0.00,VWS V14.01,2013-02-06 00:36:00,
2013-02-06 02:37:00,49.3,33.4,29.38,NNE,22,0.0,0.0,54,0.00,,---,0.00,VWS V14.01,2013-02-06 00:37:00,
2013-02-06 02:38:00,49.3,33.4,29.38,NNE,22,0.0,0.0,54,0.00,,---,0.00,VWS V14.01,2013-02-06 00:38:00,
2013-02-06 02:39:00,49.3,33.8,29.38,NNE,22,0.0,0.0,55,0.00,,---,0.00,VWS V14.01,2013-02-06 00:39:00,
2013-02-06 02:40:00,49.3,33.8,29.38,NNE,22,0.0,0.0,55,0.00,,---,0.00,VWS V14.01,2013-02-06 00:40:00,
2013-02-06 02:41:00,49.3,33.8,29.38,NNE,22,0.0,0.0,55,0.00,,---,0.00,VWS V14.01,2013-02-06 00:41:00,
2013-02-06 02:42:00,49.3,33.8,29.38,NNE,22,0.0,0.0,55,0.00,,---,0.00,VWS V14.01,2013-02-06 00:42:00,
2013-02-06 02:43:00,49.3,33.8,29.38,NNE,22,0.0,0.0,55,0.00,,---,0.00,VWS V14.01,2013-02-06 00:43:00,
2013-02-06 02:44:00,49.3,33.8,29.38,NNE,22,0.0,0.0,55,0.00,,---,0.00,VWS V14.01,2013-02-06 00:44:00,
2013-02-06 02:45:00,49.3,33.8,29.38,NNE,22,0.0,0.0,55,0.00,,---,0.00,VWS V14.01,2013-02-06 00:45:00,
2013-02-06 02:46:00,49.3,33.8,29.38,NNE,22,0.0,0.0,55,0.00,,---,0.00,VWS V14.01,2013-02-06 00:46:00,
2013-02-06 02:47:00,49.3,33.8,29.38,NNE,22,0.0,0.0,55,0.00,,---,0.00,VWS V14.01,2013-02-06 00:47:00,
2013-02-06 02:48:00,49.3,33.8,29.38,NNE,22,2.0,2.0,55,0.00,,---,0.00,VWS V14.01,2013-02-06 00:48:00,
2013-02-06 02:49:00,49.3,33.8,29.38,NNE,22,0.0,2.0,55,0.00,,---,0.00,VWS V14.01,2013-02-06 00:49:00,
2013-02-06 02:50:00,49.3,33.8,29.38,NNE,22,0.0,0.0,55,0.00,,---,0.00,VWS V14.01,2013-02-06 00:50:00,
2013-02-06 02:51:00,49.3,33.8,29.38,NNE,22,0.0,0.0,55,0.00,,---,0.00,VWS V14.01,2013-02-06 00:51:00,
2013-02-06 02:52:00,49.3,33.8,29.35,NNE,22,0.0,0.0,55,0.00,,---,0.00,VWS V14.01,2013-02-06 00:52:00,
2013-02-06 02:53:00,49.3,33.8,29.35,NNE,22,0.9,0.9,55,0.00,,---,0.00,VWS V14.01,2013-02-06 00:53:00,
2013-02-06 02:54:00,49.3,33.8,29.35,NNE,22,0.0,0.9,55,0.00,,---,0.00,VWS V14.01,2013-02-06 00:54:00,
2013-02-06 02:55:00,49.3,33.8,29.35,NNE,22,0.0,0.0,55,0.00,,---,0.00,VWS V14.01,2013-02-06 00:55:00,
2013-02-06 02:56:00,49.3,33.8,29.35,NNE,22,0.0,0.0,55,0.00,,---,0.00,VWS V14.01,2013-02-06 00:56:00,
2013-02-06 02:57:00,49.3,33.8,29.35,NNE,22,0.0,0.0,55,0.00,,---,0.00,VWS V14.01,2013-02-06 00:57:00,
2013-02-06 02:58:00,49.3,33.8,29.35,NNE,22,0.0,0.0,55,0.00,,---,0.00,VWS V14.01,2013-02-06 00:58:00,
2013-02-06 02:59:00,49.3,33.8,29.35,NNE,22,1.1,1.1,55,0.00,,---,0.00,VWS V14.01,2013-02-06 00:59:00,
2013-02-06 03:00:00,49.3,33.8,29.35,NNE,22,0.0,1.1,55,0.00,,---,0.00,VWS V14.01,2013-02-06 01:00:00,
2013-02-06 03:01:00,49.3,33.8,29.35,NNE,22,0.0,0.0,55,0.00,,---,0.00,VWS V14.01,2013-02-06 01:01:00,
2013-02-06 03:02:00,49.3,33.8,29.35,NNE,22,0.0,0.0,55,0.00,,---,0.00,VWS V14.01,2013-02-06 01:02:00,
2013-02-06 03:03:00,49.3,33.8,29.35,NNE,22,0.9,0.9,55,0.00,,---,0.00,VWS V14.01,2013-02-06 01:03:00,
2013-02-06 03:04:00,49.3,33.8,29.35,NNE,22,0.0,0.9,55,0.00,,---,0.00,VWS V14.01,2013-02-06 01:04:00,
2013-02-06 03:05:00,49.3,33.8,29.35,NNE,22,1.1,1.1,55,0.00,,---,0.00,VWS V14.01,2013-02-06 01:05:00,
2013-02-06 03:07:00,49.3,33.8,29.38,NNE,22,0.0,0.0,55,0.00,,---,0.00,VWS V14.01,2013-02-06 01:07:00,
2013-02-06 03:08:00,49.3,33.8,29.38,NNE,22,1.1,1.1,55,0.00,,---,0.00,VWS V14.01,2013-02-06 01:08:00,
2013-02-06 03:09:00,49.3,33.8,29.38,NNE,22,0.0,1.1,55,0.00,,---,0.00,VWS V14.01,2013-02-06 01:09:00,
2013-02-06 03:10:00,49.3,33.8,29.38,NNE,22,0.0,0.0,55,0.00,,---,0.00,VWS V14.01,2013-02-06 01:10:00,
2013-02-06 03:11:00,49.3,33.8,29.38,NNE,22,1.1,1.1,55,0.00,,---,0.00,VWS V14.01,2013-02-06 01:11:00,
2013-02-06 03:12:00,49.3,33.8,29.38,NNE,22,0.0,1.1,55,0.00,,---,0.00,VWS V14.01,2013-02-06 01:12:00,
2013-02-06 03:13:00,49.3,33.8,29.38,NNE,22,0.0,0.0,55,0.00,,---,0.00,VWS V14.01,2013-02-06 01:13:00,
2013-02-06 03:14:00,49.3,33.8,29.38,NNE,22,1.6,1.6,55,0.00,,---,0.00,VWS V14.01,2013-02-06 01:14:00,
2013-02-06 03:15:00,49.5,34.0,29.38,NNE,22,1.1,1.6,55,0.00,,---,0.00,VWS V14.01,2013-02-06 01:15:00,
2013-02-06 03:16:00,49.5,34.4,29.38,NNE,22,1.3,1.3,56,0.00,,---,0.00,VWS V14.01,2013-02-06 01:16:00,
2013-02-06 03:17:00,49.5,34.4,29.38,NNE,22,1.1,1.3,56,0.00,,---,0.00,VWS V14.01,2013-02-06 01:17:00,
2013-02-06 03:18:00,49.6,34.6,29.38,NNE,22,1.1,1.1,56,0.00,,---,0.00,VWS V14.01,2013-02-06 01:18:00,
2013-02-06 03:19:00,49.6,34.6,29.38,NNE,22,0.0,1.1,56,0.00,,---,0.00,VWS V14.01,2013-02-06 01:19:00,
2013-02-06 03:20:00,49.6,34.6,29.38,NNE,22,1.3,1.3,56,0.00,,---,0.00,VWS V14.01,2013-02-06 01:20:00,
2013-02-06 03:21:00,49.6,34.6,29.38,NNE,22,0.0,1.3,56,0.00,,---,0.00,VWS V14.01,2013-02-06 01:21:00,
2013-02-06 03:22:00,49.6,34.2,29.35,NNE,22,0.9,0.9,55,0.00,,---,0.00,VWS V14.01,2013-02-06 01:22:00,
2013-02-06 03:23:00,49.6,34.2,29.35,NNE,22,0.0,0.9,55,0.00,,---,0.00,VWS V14.01,2013-02-06 01:23:00,
2013-02-06 03:24:00,49.5,34.0,29.35,NNE,22,0.0,0.0,55,0.00,,---,0.00,VWS V14.01,2013-02-06 01:24:00,
2013-02-06 03:25:00,49.5,34.0,29.35,NNE,22,0.0,0.0,55,0.00,,---,0.00,VWS V14.01,2013-02-06 01:25:00,
2013-02-06 03:26:00,49.5,34.0,29.35,NNE,22,0.0,0.0,55,0.00,,---,0.00,VWS V14.01,2013-02-06 01:26:00,
2013-02-06 03:27:00,49.5,34.0,29.35,NNE,22,0.0,0.0,55,0.00,,---,0.00,VWS V14.01,2013-02-06 01:27:00,
2013-02-06 03:28:00,49.5,34.0,29.35,NNE,22,1.1,1.1,55,0.00,,---,0.00,VWS V14.01,2013-02-06 01:28:00,
2013-02-06 03:29:00,49.5,34.0,29.35,NNE,22,0.0,1.1,55,0.00,,---,0.00,VWS V14.01,2013-02-06 01:29:00,
2013-02-06 03:30:00,49.5,34.0,29.35,NNE,22,0.0,0.0,55,0.00,,---,0.00,VWS V14.01,2013-02-06 01:30:00,
2013-02-06 03:31:00,49.5,34.0,29.35,NNE,22,0.0,0.0,55,0.00,,---,0.00,VWS V14.01,2013-02-06 01:31:00,
2013-02-06 03:32:00,49.5,34.0,29.35,NNE,22,0.0,0.0,55,0.00,,---,0.00,VWS V14.01,2013-02-06 01:32:00,
2013-02-06 03:33:00,49.3,33.8,29.35,NNE,22,1.1,1.1,55,0.00,,---,0.00,VWS V14.01,2013-02-06 01:33:00,
2013-02-06 03:34:00,49.3,33.8,29.35,NNE,22,1.1,1.1,55,0.00,,---,0.00,VWS V14.01,2013-02-06 01:34:00,
2013-02-06 03:35:00,49.5,34.0,29.35,NNE,22,1.6,1.6,55,0.00,,---,0.00,VWS V14.01,2013-02-06 01:35:00,
2013-02-06 03:36:00,49.3,33.8,29.35,NNE,22,0.0,1.6,55,0.00,,---,0.00,VWS V14.01,2013-02-06 01:36:00,
2013-02-06 03:37:00,49.3,33.8,29.35,NNE,22,0.9,0.9,55,0.00,,---,0.00,VWS V14.01,2013-02-06 01:37:00,
2013-02-06 03:38:00,49.3,34.3,29.35,NNE,22,0.0,0.9,56,0.00,,---,0.00,VWS V14.01,2013-02-06 01:38:00,
2013-02-06 03:39:00,49.3,34.3,29.35,NNE,22,1.1,1.1,56,0.00,,---,0.00,VWS V14.01,2013-02-06 01:39:00,
2013-02-06 03:40:00,49.5,34.4,29.35,ENE,68,1.1,1.1,56,0.00,,---,0.00,VWS V14.01,2013-02-06 01:40:00,
2013-02-06 03:41:00,49.5,34.4,29.35,ENE,68,0.0,1.1,56,0.00,,---,0.00,VWS V14.01,2013-02-06 01:41:00,
2013-02-06 03:42:00,49.3,34.3,29.35,ENE,68,0.0,0.0,56,0.00,,---,0.00,VWS V14.01,2013-02-06 01:42:00,
2013-02-06 03:43:00,49.5,34.4,29.35,ENE,68,0.0,0.0,56,0.00,,---,0.00,VWS V14.01,2013-02-06 01:43:00,
2013-02-06 03:44:00,49.5,34.4,29.35,ENE,68,0.0,0.0,56,0.00,,---,0.00,VWS V14.01,2013-02-06 01:44:00,
2013-02-06 03:45:00,49.5,34.4,29.35,ENE,68,0.9,0.9,56,0.00,,---,0.00,VWS V14.01,2013-02-06 01:45:00,
2013-02-06 03:46:00,49.5,34.4,29.35,ENE,68,0.0,0.9,56,0.00,,---,0.00,VWS V14.01,2013-02-06 01:46:00,
2013-02-06 03:47:00,49.5,34.4,29.35,ENE,68,0.0,0.0,56,0.00,,---,0.00,VWS V14.01,2013-02-06 01:47:00,
2013-02-06 03:48:00,49.5,34.4,29.35,ENE,68,0.0,0.0,56,0.00,,---,0.00,VWS V14.01,2013-02-06 01:48:00,
2013-02-06 03:49:00,49.3,34.3,29.35,ENE,68,0.0,0.0,56,0.00,,---,0.00,VWS V14.01,2013-02-06 01:49:00,
2013-02-06 03:50:00,49.3,34.3,29.35,ENE,68,0.0,0.0,56,0.00,,---,0.00,VWS V14.01,2013-02-06 01:50:00,
2013-02-06 03:51:00,49.3,34.3,29.35,ENE,68,1.1,1.1,56,0.00,,---,0.00,VWS V14.01,2013-02-06 01:51:00,
2013-02-06 03:52:00,49.3,34.3,29.35,ENE,68,0.0,1.1,56,0.00,,---,0.00,VWS V14.01,2013-02-06 01:52:00,
2013-02-06 03:53:00,49.3,34.3,29.35,ENE,68,0.0,0.0,56,0.00,,---,0.00,VWS V14.01,2013-02-06 01:53:00,
2013-02-06 03:54:00,49.3,34.3,29.35,ENE,68,0.9,0.9,56,0.00,,---,0.00,VWS V14.01,2013-02-06 01:54:00,
2013-02-06 03:55:00,49.1,34.1,29.35,ENE,68,0.0,0.9,56,0.00,,---,0.00,VWS V14.01,2013-02-06 01:55:00,
2013-02-06 03:56:00,49.1,34.1,29.35,ENE,68,0.0,0.0,56,0.00,,---,0.00,VWS V14.01,2013-02-06 01:56:00,
2013-02-06 03:57:00,49.1,34.1,29.35,ENE,68,0.0,0.0,56,0.00,,---,0.00,VWS V14.01,2013-02-06 01:57:00,
2013-02-06 03:58:00,49.1,34.1,29.35,ENE,68,0.0,0.0,56,0.00,,---,0.00,VWS V14.01,2013-02-06 01:58:00,
2013-02-06 03:59:00,49.1,34.1,29.35,ENE,68,0.0,0.0,56,0.00,,---,0.00,VWS V14.01,2013-02-06 01:59:00,
2013-02-06 04:00:00,49.1,34.1,29.35,ENE,68,0.0,0.0,56,0.00,,---,0.00,VWS V14.01,2013-02-06 02:00:00,
2013-02-06 04:01:00,49.1,34.5,29.35,ENE,68,0.0,0.0,57,0.00,,---,0.00,VWS V14.01,2013-02-06 02:01:00,
2013-02-06 04:02:00,48.9,34.4,29.35,ENE,68,0.0,0.0,57,0.00,,---,0.00,VWS V14.01,2013-02-06 02:02:00,
2013-02-06 04:04:00,48.9,34.4,29.35,ENE,68,0.0,0.0,57,0.00,,---,0.00,VWS V14.01,2013-02-06 02:04:00,
2013-02-06 04:05:00,48.9,34.4,29.35,ENE,68,0.0,0.0,57,0.00,,---,0.00,VWS V14.01,2013-02-06 02:05:00,
2013-02-06 04:06:00,48.9,34.4,29.35,ENE,68,0.0,0.0,57,0.00,,---,0.00,VWS V14.01,2013-02-06 02:06:00,
2013-02-06 04:07:00,48.9,34.4,29.35,ENE,68,0.0,0.0,57,0.00,,---,0.00,VWS V14.01,2013-02-06 02:07:00,
2013-02-06 04:08:00,48.9,34.4,29.35,ENE,68,0.0,0.0,57,0.00,,---,0.00,VWS V14.01,2013-02-06 02:08:00,
2013-02-06 04:09:00,48.9,34.4,29.35,ENE,68,0.0,0.0,57,0.00,,---,0.00,VWS V14.01,2013-02-06 02:09:00,
2013-02-06 04:10:00,48.9,34.4,29.35,ENE,68,0.0,0.0,57,0.00,,---,0.00,VWS V14.01,2013-02-06 02:10:00,
2013-02-06 04:11:00,48.9,34.4,29.35,ENE,68,1.1,1.1,57,0.00,,---,0.00,VWS V14.01,2013-02-06 02:11:00,
2013-02-06 04:12:00,48.9,34.4,29.35,ENE,68,0.0,1.1,57,0.00,,---,0.00,VWS V14.01,2013-02-06 02:12:00,
2013-02-06 04:13:00,48.9,34.4,29.35,ENE,68,0.0,0.0,57,0.00,,---,0.00,VWS V14.01,2013-02-06 02:13:00,
2013-02-06 04:14:00,48.9,34.8,29.35,ENE,68,0.0,0.0,58,0.00,,---,0.00,VWS V14.01,2013-02-06 02:14:00,
2013-02-06 04:15:00,48.9,34.8,29.35,ENE,68,1.3,1.3,58,0.00,,---,0.00,VWS V14.01,2013-02-06 02:15:00,
2013-02-06 04:16:00,48.9,34.8,29.35,ENE,68,1.3,1.3,58,0.00,,---,0.00,VWS V14.01,2013-02-06 02:16:00,
2013-02-06 04:17:00,48.9,34.8,29.35,ENE,68,0.0,1.3,58,0.00,,---,0.00,VWS V14.01,2013-02-06 02:17:00,
2013-02-06 04:18:00,48.9,34.8,29.35,ENE,68,0.0,0.0,58,0.00,,---,0.00,VWS V14.01,2013-02-06 02:18:00,
2013-02-06 04:19:00,49.1,35.0,29.35,ENE,68,0.0,0.0,58,0.00,,---,0.00,VWS V14.01,2013-02-06 02:19:00,
2013-02-06 04:20:00,49.1,35.0,29.35,ENE,68,0.0,0.0,58,0.00,,---,0.00,VWS V14.01,2013-02-06 02:20:00,
2013-02-06 04:21:00,49.1,35.0,29.35,ENE,68,0.0,0.0,58,0.00,,---,0.00,VWS V14.01,2013-02-06 02:21:00,
2013-02-06 04:22:00,49.1,35.0,29.32,ENE,68,0.0,0.0,58,0.00,,---,0.00,VWS V14.01,2013-02-06 02:22:00,
2013-02-06 04:23:00,49.1,35.0,29.32,ENE,68,0.0,0.0,58,0.00,,---,0.00,VWS V14.01,2013-02-06 02:23:00,
2013-02-06 04:24:00,48.9,34.8,29.32,ENE,68,0.0,0.0,58,0.00,,---,0.00,VWS V14.01,2013-02-06 02:24:00,
2013-02-06 04:25:00,48.9,34.8,29.32,ENE,68,0.0,0.0,58,0.00,,---,0.00,VWS V14.01,2013-02-06 02:25:00,
2013-02-06 04:26:00,49.1,35.0,29.32,ENE,68,0.0,0.0,58,0.00,,---,0.00,VWS V14.01,2013-02-06 02:26:00,
2013-02-06 04:27:00,49.1,35.0,29.32,ENE,68,0.0,0.0,58,0.00,,---,0.00,VWS V14.01,2013-02-06 02:27:00,
2013-02-06 04:28:00,49.1,35.0,29.32,ENE,68,1.1,1.1,58,0.00,,---,0.00,VWS V14.01,2013-02-06 02:28:00,
2013-02-06 04:29:00,49.1,35.0,29.32,ENE,68,1.6,1.6,58,0.00,,---,0.00,VWS V14.01,2013-02-06 02:29:00,
2013-02-06 04:30:00,49.3,35.1,29.32,ENE,68,0.9,1.6,58,0.00,,---,0.00,VWS V14.01,2013-02-06 02:30:00,
2013-02-06 04:31:00,49.3,35.1,29.32,ENE,68,1.1,1.1,58,0.00,,---,0.00,VWS V14.01,2013-02-06 02:31:00,
2013-02-06 04:32:00,49.3,35.1,29.32,ENE,68,0.0,1.1,58,0.00,,---,0.00,VWS V14.01,2013-02-06 02:32:00,
2013-02-06 04:33:00,49.3,35.1,29.32,ENE,68,0.0,0.0,58,0.00,,---,0.00,VWS V14.01,2013-02-06 02:33:00,
2013-02-06 04:34:00,49.3,35.1,29.32,ENE,68,0.0,0.0,58,0.00,,---,0.00,VWS V14.01,2013-02-06 02:34:00,
2013-02-06 04:35:00,49.3,35.1,29.32,ENE,68,0.0,0.0,58,0.00,,---,0.00,VWS V14.01,2013-02-06 02:35:00,
2013-02-06 04:36:00,49.5,35.3,29.32,ENE,68,0.0,0.0,58,0.00,,---,0.00,VWS V14.01,2013-02-06 02:36:00,
2013-02-06 04:37:00,49.5,35.3,29.32,ENE,68,0.0,0.0,58,0.00,,---,0.00,VWS V14.01,2013-02-06 02:37:00,
2013-02-06 04:38:00,49.3,35.1,29.32,ENE,68,0.0,0.0,58,0.00,,---,0.00,VWS V14.01,2013-02-06 02:38:00,
2013-02-06 04:39:00,49.5,35.3,29.32,ENE,68,0.0,0.0,58,0.00,,---,0.00,VWS V14.01,2013-02-06 02:39:00,
2013-02-06 04:40:00,49.5,35.3,29.32,ENE,68,0.0,0.0,58,0.00,,---,0.00,VWS V14.01,2013-02-06 02:40:00,
2013-02-06 04:41:00,49.5,35.7,29.32,ENE,68,0.0,0.0,59,0.00,,---,0.00,VWS V14.01,2013-02-06 02:41:00,
2013-02-06 04:42:00,49.3,35.1,29.32,ENE,68,0.0,0.0,58,0.00,,---,0.00,VWS V14.01,2013-02-06 02:42:00,
2013-02-06 04:43:00,49.3,35.1,29.32,ENE,68,0.0,0.0,58,0.00,,---,0.00,VWS V14.01,2013-02-06 02:43:00,
2013-02-06 04:44:00,49.3,35.6,29.32,ENE,68,0.0,0.0,59,0.00,,---,0.00,VWS V14.01,2013-02-06 02:44:00,
2013-02-06 04:45:00,49.3,35.6,29.32,ENE,68,0.0,0.0,59,0.00,,---,0.00,VWS V14.01,2013-02-06 02:45:00,
2013-02-06 04:46:00,49.3,35.6,29.32,ENE,68,0.0,0.0,59,0.00,,---,0.00,VWS V14.01,2013-02-06 02:46:00,
2013-02-06 04:47:00,49.3,35.6,29.32,ENE,68,0.0,0.0,59,0.00,,---,0.00,VWS V14.01,2013-02-06 02:47:00,
2013-02-06 04:48:00,49.3,35.6,29.32,ENE,68,0.0,0.0,59,0.00,,---,0.00,VWS V14.01,2013-02-06 02:48:00,
2013-02-06 04:49:00,49.3,35.6,29.32,ENE,68,0.0,0.0,59,0.00,,---,0.00,VWS V14.01,2013-02-06 02:49:00,
2013-02-06 04:50:00,49.3,35.6,29.32,ENE,68,0.0,0.0,59,0.00,,---,0.00,VWS V14.01,2013-02-06 02:50:00,
2013-02-06 04:51:00,49.3,35.6,29.32,ENE,68,0.0,0.0,59,0.00,,---,0.00,VWS V14.01,2013-02-06 02:51:00,
2013-02-06 04:52:00,49.3,35.6,29.32,ENE,68,0.0,0.0,59,0.00,,---,0.00,VWS V14.01,2013-02-06 02:52:00,
2013-02-06 04:53:00,49.3,35.6,29.32,ENE,68,0.0,0.0,59,0.00,,---,0.00,VWS V14.01,2013-02-06 02:53:00,
2013-02-06 04:54:00,49.3,35.6,29.32,ENE,68,0.0,0.0,59,0.00,,---,0.00,VWS V14.01,2013-02-06 02:54:00,
2013-02-06 04:55:00,49.3,35.6,29.32,ENE,68,0.0,0.0,59,0.00,,---,0.00,VWS V14.01,2013-02-06 02:55:00,
2013-02-06 04:56:00,49.1,35.4,29.32,ENE,68,0.0,0.0,59,0.00,,---,0.00,VWS V14.01,2013-02-06 02:56:00,
2013-02-06 04:57:00,49.1,35.4,29.32,ENE,68,0.0,0.0,59,0.00,,---,0.00,VWS V14.01,2013-02-06 02:57:00,
2013-02-06 04:58:00,49.1,35.4,29.32,ENE,68,0.0,0.0,59,0.00,,---,0.00,VWS V14.01,2013-02-06 02:58:00,
2013-02-06 04:59:00,49.1,35.4,29.32,ENE,68,0.0,0.0,59,0.00,,---,0.00,VWS V14.01,2013-02-06 02:59:00,
2013-02-06 05:00:00,49.1,35.4,29.32,ENE,68,0.0,0.0,59,0.00,,---,0.00,VWS V14.01,2013-02-06 03:00:00,
2013-02-06 05:01:00,49.1,35.8,29.32,ENE,68,1.3,1.3,60,0.00,,---,0.00,VWS V14.01,2013-02-06 03:01:00,
2013-02-06 05:02:00,49.1,35.8,29.32,ENE,68,0.0,1.3,60,0.00,,---,0.00,VWS V14.01,2013-02-06 03:02:00,
2013-02-06 05:03:00,49.1,35.4,29.32,ENE,68,0.0,0.0,59,0.00,,---,0.00,VWS V14.01,2013-02-06 03:03:00,
2013-02-06 05:04:00,49.1,35.8,29.32,ENE,68,0.0,0.0,60,0.00,,---,0.00,VWS V14.01,2013-02-06 03:04:00,
2013-02-06 05:05:00,48.9,35.7,29.32,ENE,68,0.0,0.0,60,0.00,,---,0.00,VWS V14.01,2013-02-06 03:05:00,
2013-02-06 05:06:00,48.9,35.7,29.32,ENE,68,0.0,0.0,60,0.00,,---,0.00,VWS V14.01,2013-02-06 03:06:00,
2013-02-06 05:07:00,48.9,35.7,29.32,ENE,68,0.0,0.0,60,0.00,,---,0.00,VWS V14.01,2013-02-06 03:07:00,
2013-02-06 05:08:00,48.9,35.7,29.32,ENE,68,0.0,0.0,60,0.00,,---,0.00,VWS V14.01,2013-02-06 03:08:00,
2013-02-06 05:09:00,48.9,35.7,29.32,ENE,68,0.0,0.0,60,0.00,,---,0.00,VWS V14.01,2013-02-06 03:09:00,
2013-02-06 05:10:00,48.9,35.7,29.32,ENE,68,1.3,1.3,60,0.00,,---,0.00,VWS V14.01,2013-02-06 03:10:00,
2013-02-06 05:11:00,48.9,35.7,29.32,ENE,68,1.6,1.6,60,0.00,,---,0.00,VWS V14.01,2013-02-06 03:11:00,
2013-02-06 05:12:00,48.9,35.7,29.32,ENE,68,1.3,1.6,60,0.00,,---,0.00,VWS V14.01,2013-02-06 03:12:00,
2013-02-06 05:13:00,48.9,36.1,29.32,ENE,68,0.9,1.3,61,0.00,,---,0.00,VWS V14.01,2013-02-06 03:13:00,
2013-02-06 05:14:00,48.9,35.7,29.32,ENE,68,0.0,0.9,60,0.00,,---,0.00,VWS V14.01,2013-02-06 03:14:00,
2013-02-06 05:15:00,48.9,35.7,29.32,ENE,68,0.0,0.0,60,0.00,,---,0.00,VWS V14.01,2013-02-06 03:15:00,
2013-02-06 05:16:00,49.1,36.2,29.32,ENE,68,0.0,0.0,61,0.00,,---,0.00,VWS V14.01,2013-02-06 03:16:00,
2013-02-06 05:17:00,49.1,36.2,29.32,ENE,68,1.1,1.1,61,0.00,,---,0.00,VWS V14.01,2013-02-06 03:17:00,
2013-02-06 05:18:00,49.1,36.2,29.32,ENE,68,0.0,1.1,61,0.00,,---,0.00,VWS V14.01,2013-02-06 03:18:00,
2013-02-06 05:19:00,49.1,36.2,29.32,ENE,68,1.3,1.3,61,0.00,,---,0.00,VWS V14.01,2013-02-06 03:19:00,
2013-02-06 05:20:00,49.3,36.4,29.32,ENE,68,1.3,1.3,61,0.00,,---,0.00,VWS V14.01,2013-02-06 03:20:00,
2013-02-06 05:21:00,49.3,36.4,29.32,ENE,68,1.3,1.3,61,0.00,,---,0.00,VWS V14.01,2013-02-06 03:21:00,
2013-02-06 05:22:00,49.3,36.8,29.32,ENE,68,0.0,1.3,62,0.00,,---,0.00,VWS V14.01,2013-02-06 03:22:00,
2013-02-06 05:23:00,49.3,36.8,29.32,ENE,68,0.0,0.0,62,0.00,,---,0.00,VWS V14.01,2013-02-06 03:23:00,
2013-02-06 05:24:00,49.3,36.4,29.32,ENE,68,0.0,0.0,61,0.00,,---,0.00,VWS V14.01,2013-02-06 03:24:00,
2013-02-06 05:25:00,49.3,36.4,29.32,ENE,68,0.0,0.0,61,0.00,,---,0.00,VWS V14.01,2013-02-06 03:25:00,
2013-02-06 05:26:00,49.3,36.4,29.32,ENE,68,0.0,0.0,61,0.00,,---,0.00,VWS V14.01,2013-02-06 03:26:00,
2013-02-06 05:27:00,49.3,36.4,29.32,ENE,68,0.0,0.0,61,0.00,,---,0.00,VWS V14.01,2013-02-06 03:27:00,
2013-02-06 05:28:00,49.3,36.4,29.32,ENE,68,0.0,0.0,61,0.00,,---,0.00,VWS V14.01,2013-02-06 03:28:00,
2013-02-06 05:29:00,49.3,36.4,29.32,ENE,68,0.0,0.0,61,0.00,,---,0.00,VWS V14.01,2013-02-06 03:29:00,
2013-02-06 05:30:00,49.3,36.4,29.32,ENE,68,0.0,0.0,61,0.00,,---,0.00,VWS V14.01,2013-02-06 03:30:00,
2013-02-06 05:31:00,49.3,36.4,29.32,ENE,68,0.0,0.0,61,0.00,,---,0.00,VWS V14.01,2013-02-06 03:31:00,
2013-02-06 05:32:00,49.3,36.4,29.32,ENE,68,0.0,0.0,61,0.00,,---,0.00,VWS V14.01,2013-02-06 03:32:00,
2013-02-06 05:33:00,49.3,36.4,29.32,ENE,68,0.0,0.0,61,0.00,,---,0.00,VWS V14.01,2013-02-06 03:33:00,
2013-02-06 05:34:00,49.3,36.4,29.32,ENE,68,0.0,0.0,61,0.00,,---,0.00,VWS V14.01,2013-02-06 03:34:00,
2013-02-06 05:35:00,49.1,36.7,29.32,ENE,68,0.0,0.0,62,0.00,,---,0.00,VWS V14.01,2013-02-06 03:35:00,
2013-02-06 05:36:00,49.1,36.7,29.32,ENE,68,0.0,0.0,62,0.00,,---,0.00,VWS V14.01,2013-02-06 03:36:00,
2013-02-06 05:37:00,49.1,36.7,29.32,ENE,68,0.0,0.0,62,0.00,,---,0.00,VWS V14.01,2013-02-06 03:37:00,
2013-02-06 05:38:00,49.1,36.7,29.32,ENE,68,0.0,0.0,62,0.00,,---,0.00,VWS V14.01,2013-02-06 03:38:00,
2013-02-06 05:39:00,49.1,36.7,29.32,ENE,68,0.0,0.0,62,0.00,,---,0.00,VWS V14.01,2013-02-06 03:39:00,
2013-02-06 05:40:00,49.1,36.7,29.32,ENE,68,0.0,0.0,62,0.00,,---,0.00,VWS V14.01,2013-02-06 03:40:00,
2013-02-06 05:41:00,49.1,36.7,29.32,ENE,68,0.0,0.0,62,0.00,,---,0.00,VWS V14.01,2013-02-06 03:41:00,
2013-02-06 05:42:00,49.1,36.7,29.32,ENE,68,0.0,0.0,62,0.00,,---,0.00,VWS V14.01,2013-02-06 03:42:00,
2013-02-06 05:43:00,49.1,36.7,29.32,ENE,68,0.0,0.0,62,0.00,,---,0.00,VWS V14.01,2013-02-06 03:43:00,
2013-02-06 05:44:00,49.1,36.7,29.32,ENE,68,0.0,0.0,62,0.00,,---,0.00,VWS V14.01,2013-02-06 03:44:00,
2013-02-06 05:45:00,49.1,36.7,29.32,ENE,68,0.0,0.0,62,0.00,,---,0.00,VWS V14.01,2013-02-06 03:45:00,
2013-02-06 05:46:00,48.9,36.5,29.32,ENE,68,1.1,1.1,62,0.00,,---,0.00,VWS V14.01,2013-02-06 03:46:00,
2013-02-06 05:47:00,48.9,36.5,29.32,ENE,68,0.0,1.1,62,0.00,,---,0.00,VWS V14.01,2013-02-06 03:47:00,
2013-02-06 05:48:00,48.9,36.5,29.32,ENE,68,1.1,1.1,62,0.00,,---,0.00,VWS V14.01,2013-02-06 03:48:00,
2013-02-06 05:49:00,48.9,36.5,29.32,ENE,68,1.1,1.1,62,0.00,,---,0.00,VWS V14.01,2013-02-06 03:49:00,
2013-02-06 05:50:00,48.7,36.3,29.32,ENE,68,0.0,1.1,62,0.00,,---,0.00,VWS V14.01,2013-02-06 03:50:00,
2013-02-06 05:51:00,48.7,36.3,29.32,ENE,68,0.0,0.0,62,0.00,,---,0.00,VWS V14.01,2013-02-06 03:51:00,
2013-02-06 05:52:00,48.7,36.3,29.29,ENE,68,0.0,0.0,62,0.00,,---,0.00,VWS V14.01,2013-02-06 03:52:00,
2013-02-06 05:53:00,48.7,36.3,29.29,NE,45,1.3,1.3,62,0.00,,---,0.00,VWS V14.01,2013-02-06 03:53:00,
2013-02-06 05:54:00,48.9,36.5,29.29,NE,45,0.0,1.3,62,0.00,,---,0.00,VWS V14.01,2013-02-06 03:54:00,
2013-02-06 05:55:00,48.9,36.5,29.29,NE,45,0.0,0.0,62,0.00,,---,0.00,VWS V14.01,2013-02-06 03:55:00,
2013-02-06 05:56:00,48.9,36.9,29.29,NE,45,0.0,0.0,63,0.00,,---,0.00,VWS V14.01,2013-02-06 03:56:00,
2013-02-06 05:57:00,48.9,36.9,29.29,NE,45,0.0,0.0,63,0.00,,---,0.00,VWS V14.01,2013-02-06 03:57:00,
2013-02-06 05:58:00,48.9,36.9,29.29,NE,45,0.9,0.9,63,0.00,,---,0.00,VWS V14.01,2013-02-06 03:58:00,
2013-02-06 05:59:00,48.9,36.9,29.29,NE,45,1.1,1.1,63,0.00,,---,0.00,VWS V14.01,2013-02-06 03:59:00,
2013-02-06 06:00:00,48.9,36.9,29.29,NE,45,0.0,1.1,63,0.00,,---,0.00,VWS V14.01,2013-02-06 04:00:00,
2013-02-06 06:01:00,49.1,37.1,29.29,NE,45,0.0,0.0,63,0.00,,---,0.00,VWS V14.01,2013-02-06 04:01:00,
2013-02-06 06:02:00,49.1,37.1,29.29,NE,45,0.0,0.0,63,0.00,,---,0.00,VWS V14.01,2013-02-06 04:02:00,
2013-02-06 06:04:00,48.9,36.9,29.29,NE,45,0.0,0.0,63,0.00,,---,0.00,VWS V14.01,2013-02-06 04:04:00,
2013-02-06 06:05:00,48.9,36.9,29.29,NE,45,0.0,0.0,63,0.00,,---,0.00,VWS V14.01,2013-02-06 04:05:00,
2013-02-06 06:06:00,48.9,36.9,29.29,NE,45,0.0,0.0,63,0.00,,---,0.00,VWS V14.01,2013-02-06 04:06:00,
2013-02-06 06:07:00,48.9,36.9,29.32,NE,45,0.0,0.0,63,0.00,,---,0.00,VWS V14.01,2013-02-06 04:07:00,
2013-02-06 06:08:00,48.9,36.9,29.32,NE,45,0.0,0.0,63,0.00,,---,0.00,VWS V14.01,2013-02-06 04:08:00,
2013-02-06 06:09:00,48.7,36.7,29.32,NE,45,0.0,0.0,63,0.00,,---,0.00,VWS V14.01,2013-02-06 04:09:00,
2013-02-06 06:10:00,48.7,36.7,29.32,NE,45,0.0,0.0,63,0.00,,---,0.00,VWS V14.01,2013-02-06 04:10:00,
2013-02-06 06:11:00,48.7,36.7,29.32,NE,45,0.0,0.0,63,0.00,,---,0.00,VWS V14.01,2013-02-06 04:11:00,
2013-02-06 06:12:00,48.7,36.7,29.32,NE,45,0.0,0.0,63,0.00,,---,0.00,VWS V14.01,2013-02-06 04:12:00,
2013-02-06 06:13:00,48.7,36.7,29.32,NE,45,0.0,0.0,63,0.00,,---,0.00,VWS V14.01,2013-02-06 04:13:00,
2013-02-06 06:14:00,48.7,36.7,29.32,NE,45,0.0,0.0,63,0.00,,---,0.00,VWS V14.01,2013-02-06 04:14:00,
2013-02-06 06:15:00,48.7,36.7,29.32,NE,45,0.0,0.0,63,0.00,,---,0.00,VWS V14.01,2013-02-06 04:15:00,
2013-02-06 06:16:00,48.6,37.0,29.32,NE,45,0.0,0.0,64,0.00,,---,0.00,VWS V14.01,2013-02-06 04:16:00,
2013-02-06 06:17:00,48.6,37.0,29.32,NE,45,0.0,0.0,64,0.00,,---,0.00,VWS V14.01,2013-02-06 04:17:00,
2013-02-06 06:18:00,48.6,37.0,29.32,NE,45,0.0,0.0,64,0.00,,---,0.00,VWS V14.01,2013-02-06 04:18:00,
2013-02-06 06:19:00,48.6,37.0,29.32,NE,45,0.0,0.0,64,0.00,,---,0.00,VWS V14.01,2013-02-06 04:19:00,
2013-02-06 06:20:00,48.6,37.0,29.32,NE,45,0.0,0.0,64,0.00,,---,0.00,VWS V14.01,2013-02-06 04:20:00,
2013-02-06 06:21:00,48.6,37.0,29.32,NE,45,0.0,0.0,64,0.00,,---,0.00,VWS V14.01,2013-02-06 04:21:00,
2013-02-06 06:22:00,48.6,37.0,29.29,NE,45,0.0,0.0,64,0.00,,---,0.00,VWS V14.01,2013-02-06 04:22:00,
2013-02-06 06:23:00,48.6,37.0,29.29,NE,45,0.0,0.0,64,0.00,,---,0.00,VWS V14.01,2013-02-06 04:23:00,
2013-02-06 06:24:00,48.6,37.0,29.29,NE,45,0.0,0.0,64,0.00,,---,0.00,VWS V14.01,2013-02-06 04:24:00,
2013-02-06 06:25:00,48.6,37.0,29.29,NE,45,0.0,0.0,64,0.00,,---,0.00,VWS V14.01,2013-02-06 04:25:00,
2013-02-06 06:26:00,48.6,37.3,29.29,NE,45,0.0,0.0,65,0.00,,---,0.00,VWS V14.01,2013-02-06 04:26:00,
2013-02-06 06:27:00,48.6,37.3,29.29,NE,45,0.0,0.0,65,0.00,,---,0.00,VWS V14.01,2013-02-06 04:27:00,
2013-02-06 06:28:00,48.6,37.3,29.29,NE,45,0.0,0.0,65,0.00,,---,0.00,VWS V14.01,2013-02-06 04:28:00,
2013-02-06 06:29:00,48.6,37.3,29.29,NE,45,0.0,0.0,65,0.00,,---,0.00,VWS V14.01,2013-02-06 04:29:00,
2013-02-06 06:30:00,48.6,37.3,29.29,NE,45,0.0,0.0,65,0.00,,---,0.00,VWS V14.01,2013-02-06 04:30:00,
2013-02-06 06:31:00,48.6,37.3,29.29,NE,45,0.0,0.0,65,0.00,,---,0.00,VWS V14.01,2013-02-06 04:31:00,
2013-02-06 06:32:00,48.6,37.3,29.29,NE,45,0.0,0.0,65,0.00,,---,0.00,VWS V14.01,2013-02-06 04:32:00,
2013-02-06 06:33:00,48.6,37.3,29.29,NE,45,0.0,0.0,65,0.00,,---,0.00,VWS V14.01,2013-02-06 04:33:00,
2013-02-06 06:34:00,48.6,37.3,29.29,NE,45,0.0,0.0,65,0.00,,---,0.00,VWS V14.01,2013-02-06 04:34:00,
2013-02-06 06:35:00,48.6,37.3,29.29,NE,45,0.0,0.0,65,0.00,,---,0.00,VWS V14.01,2013-02-06 04:35:00,
2013-02-06 06:36:00,48.7,37.9,29.29,NE,45,0.0,0.0,66,0.00,,---,0.00,VWS V14.01,2013-02-06 04:36:00,
2013-02-06 06:37:00,48.7,37.9,29.32,NE,45,0.0,0.0,66,0.00,,---,0.00,VWS V14.01,2013-02-06 04:37:00,
2013-02-06 06:38:00,48.7,37.9,29.32,NE,45,0.0,0.0,66,0.00,,---,0.00,VWS V14.01,2013-02-06 04:38:00,
2013-02-06 06:39:00,48.6,37.7,29.32,NE,45,0.0,0.0,66,0.00,,---,0.00,VWS V14.01,2013-02-06 04:39:00,
2013-02-06 06:40:00,48.6,37.7,29.32,NE,45,0.0,0.0,66,0.00,,---,0.00,VWS V14.01,2013-02-06 04:40:00,
2013-02-06 06:41:00,48.6,37.7,29.32,NE,45,0.0,0.0,66,0.00,,---,0.00,VWS V14.01,2013-02-06 04:41:00,
2013-02-06 06:42:00,48.6,37.7,29.32,NE,45,0.0,0.0,66,0.00,,---,0.00,VWS V14.01,2013-02-06 04:42:00,
2013-02-06 06:43:00,48.6,37.7,29.32,NE,45,0.0,0.0,66,0.00,,---,0.00,VWS V14.01,2013-02-06 04:43:00,
2013-02-06 06:44:00,48.7,37.9,29.32,NE,45,0.0,0.0,66,0.00,,---,0.00,VWS V14.01,2013-02-06 04:44:00,
2013-02-06 06:45:00,48.7,37.9,29.32,NE,45,0.0,0.0,66,0.00,,---,0.00,VWS V14.01,2013-02-06 04:45:00,
2013-02-06 06:46:00,48.7,37.9,29.32,NE,45,0.0,0.0,66,0.00,,---,0.00,VWS V14.01,2013-02-06 04:46:00,
2013-02-06 06:47:00,48.7,37.9,29.32,NE,45,0.0,0.0,66,0.00,,---,0.00,VWS V14.01,2013-02-06 04:47:00,
2013-02-06 06:48:00,48.7,37.9,29.32,NE,45,0.0,0.0,66,0.00,,---,0.00,VWS V14.01,2013-02-06 04:48:00,
2013-02-06 06:49:00,48.7,37.9,29.32,NE,45,0.0,0.0,66,0.00,,---,0.00,VWS V14.01,2013-02-06 04:49:00,
2013-02-06 06:50:00,48.7,37.9,29.32,NE,45,0.0,0.0,66,0.00,,---,0.00,VWS V14.01,2013-02-06 04:50:00,
2013-02-06 06:51:00,48.9,38.1,29.32,NE,45,0.0,0.0,66,0.00,,---,0.00,VWS V14.01,2013-02-06 04:51:00,
2013-02-06 06:52:00,48.9,38.1,29.32,NE,45,0.0,0.0,66,0.00,,---,0.00,VWS V14.01,2013-02-06 04:52:00,
2013-02-06 06:53:00,48.9,38.1,29.32,NE,45,0.0,0.0,66,0.00,,---,0.00,VWS V14.01,2013-02-06 04:53:00,
2013-02-06 06:54:00,48.9,38.1,29.32,NE,45,0.0,0.0,66,0.00,,---,0.00,VWS V14.01,2013-02-06 04:54:00,
2013-02-06 06:55:00,48.9,38.1,29.32,NE,45,0.0,0.0,66,0.00,,---,0.00,VWS V14.01,2013-02-06 04:55:00,
2013-02-06 06:56:00,48.9,38.1,29.32,NE,45,0.0,0.0,66,0.00,,---,0.00,VWS V14.01,2013-02-06 04:56:00,
2013-02-06 06:57:00,48.9,38.1,29.32,NE,45,0.0,0.0,66,0.00,,---,0.00,VWS V14.01,2013-02-06 04:57:00,
2013-02-06 06:58:00,49.1,38.2,29.32,NE,45,0.0,0.0,66,0.00,,---,0.00,VWS V14.01,2013-02-06 04:58:00,
2013-02-06 06:59:00,49.1,38.2,29.32,NE,45,0.0,0.0,66,0.00,,---,0.00,VWS V14.01,2013-02-06 04:59:00,
2013-02-06 07:00:00,48.9,38.1,29.32,NE,45,0.0,0.0,66,0.00,,---,0.00,VWS V14.01,2013-02-06 05:00:00,
2013-02-06 07:01:00,49.1,38.2,29.32,NE,45,0.0,0.0,66,0.00,,---,0.00,VWS V14.01,2013-02-06 05:01:00,
2013-02-06 07:02:00,49.1,38.2,29.32,NE,45,0.0,0.0,66,0.00,,---,0.00,VWS V14.01,2013-02-06 05:02:00,
2013-02-06 07:03:00,49.1,38.2,29.32,NE,45,0.0,0.0,66,0.00,,---,0.00,VWS V14.01,2013-02-06 05:03:00,
2013-02-06 07:04:00,49.1,38.2,29.32,NE,45,0.0,0.0,66,0.00,,---,0.00,VWS V14.01,2013-02-06 05:04:00,
2013-02-06 07:05:00,49.1,38.2,29.32,NE,45,0.0,0.0,66,0.00,,---,0.00,VWS V14.01,2013-02-06 05:05:00,
2013-02-06 07:06:00,49.1,38.2,29.32,NE,45,0.0,0.0,66,0.00,,---,0.00,VWS V14.01,2013-02-06 05:06:00,
2013-02-06 07:07:00,49.1,38.2,29.32,NE,45,0.0,0.0,66,0.00,,---,0.00,VWS V14.01,2013-02-06 05:07:00,
2013-02-06 07:08:00,49.1,38.2,29.32,NE,45,0.0,0.0,66,0.00,,---,0.00,VWS V14.01,2013-02-06 05:08:00,
2013-02-06 07:09:00,49.1,38.2,29.32,NE,45,0.0,0.0,66,0.00,,---,0.00,VWS V14.01,2013-02-06 05:09:00,
2013-02-06 07:10:00,48.9,38.1,29.32,NE,45,0.0,0.0,66,0.00,,---,0.00,VWS V14.01,2013-02-06 05:10:00,
2013-02-06 07:11:00,48.9,38.1,29.32,NE,45,0.0,0.0,66,0.00,,---,0.00,VWS V14.01,2013-02-06 05:11:00,
2013-02-06 07:12:00,48.9,38.1,29.32,NE,45,0.0,0.0,66,0.00,,---,0.00,VWS V14.01,2013-02-06 05:12:00,
2013-02-06 07:13:00,49.1,38.2,29.32,NE,45,0.0,0.0,66,0.00,,---,0.00,VWS V14.01,2013-02-06 05:13:00,
2013-02-06 07:14:00,49.1,38.2,29.32,NE,45,0.0,0.0,66,0.00,,---,0.00,VWS V14.01,2013-02-06 05:14:00,
2013-02-06 07:15:00,49.1,38.2,29.32,NE,45,0.0,0.0,66,0.00,,---,0.00,VWS V14.01,2013-02-06 05:15:00,
2013-02-06 07:16:00,48.9,38.5,29.32,NE,45,0.0,0.0,67,0.00,,---,0.00,VWS V14.01,2013-02-06 05:16:00,
2013-02-06 07:17:00,48.9,38.5,29.32,NE,45,0.0,0.0,67,0.00,,---,0.00,VWS V14.01,2013-02-06 05:17:00,
2013-02-06 07:18:00,48.9,38.5,29.32,NE,45,0.0,0.0,67,0.00,,---,0.00,VWS V14.01,2013-02-06 05:18:00,
2013-02-06 07:19:00,48.9,38.5,29.32,NE,45,0.0,0.0,67,0.00,,---,0.00,VWS V14.01,2013-02-06 05:19:00,
2013-02-06 07:20:00,48.9,38.5,29.32,NE,45,0.0,0.0,67,0.00,,---,0.00,VWS V14.01,2013-02-06 05:20:00,
2013-02-06 07:21:00,48.9,38.5,29.32,NE,45,0.0,0.0,67,0.00,,---,0.00,VWS V14.01,2013-02-06 05:21:00,
2013-02-06 07:22:00,49.1,38.6,29.32,NE,45,0.0,0.0,67,0.00,,---,0.00,VWS V14.01,2013-02-06 05:22:00,
2013-02-06 07:23:00,49.1,38.6,29.32,NE,45,0.0,0.0,67,0.00,,---,0.00,VWS V14.01,2013-02-06 05:23:00,
2013-02-06 07:24:00,49.1,38.6,29.32,NE,45,0.0,0.0,67,0.00,,---,0.00,VWS V14.01,2013-02-06 05:24:00,
2013-02-06 07:25:00,49.1,38.6,29.32,NE,45,0.0,0.0,67,0.00,,---,0.00,VWS V14.01,2013-02-06 05:25:00,
2013-02-06 07:26:00,49.1,38.6,29.32,NE,45,0.0,0.0,67,0.00,,---,0.00,VWS V14.01,2013-02-06 05:26:00,
2013-02-06 07:27:00,49.3,38.8,29.32,NE,45,0.0,0.0,67,0.00,,---,0.00,VWS V14.01,2013-02-06 05:27:00,
2013-02-06 07:28:00,49.3,38.8,29.32,NE,45,0.0,0.0,67,0.00,,---,0.00,VWS V14.01,2013-02-06 05:28:00,
2013-02-06 07:29:00,49.3,38.8,29.32,NE,45,0.0,0.0,67,0.00,,---,0.00,VWS V14.01,2013-02-06 05:29:00,
2013-02-06 07:30:00,49.3,38.8,29.32,NE,45,0.0,0.0,67,0.00,,---,0.00,VWS V14.01,2013-02-06 05:30:00,
2013-02-06 07:31:00,49.3,38.8,29.32,NE,45,0.0,0.0,67,0.00,,---,0.00,VWS V14.01,2013-02-06 05:31:00,
2013-02-06 07:32:00,49.5,39.0,29.32,NE,45,0.0,0.0,67,0.00,,---,0.00,VWS V14.01,2013-02-06 05:32:00,
2013-02-06 07:33:00,49.5,39.0,29.32,NE,45,0.0,0.0,67,0.00,,---,0.00,VWS V14.01,2013-02-06 05:33:00,
2013-02-06 07:34:00,49.5,39.0,29.32,NE,45,0.0,0.0,67,0.00,,---,0.00,VWS V14.01,2013-02-06 05:34:00,
2013-02-06 07:35:00,49.5,39.0,29.32,NE,45,0.0,0.0,67,0.00,,---,0.00,VWS V14.01,2013-02-06 05:35:00,
2013-02-06 07:36:00,49.5,39.0,29.32,NE,45,0.0,0.0,67,0.00,,---,0.00,VWS V14.01,2013-02-06 05:36:00,
2013-02-06 07:37:00,49.5,39.0,29.32,NE,45,0.0,0.0,67,0.00,,---,0.00,VWS V14.01,2013-02-06 05:37:00,
2013-02-06 07:38:00,49.5,39.0,29.32,NE,45,0.0,0.0,67,0.00,,---,0.00,VWS V14.01,2013-02-06 05:38:00,
2013-02-06 07:39:00,49.5,39.0,29.32,NE,45,0.0,0.0,67,0.00,,---,0.00,VWS V14.01,2013-02-06 05:39:00,
2013-02-06 07:40:00,49.5,39.0,29.32,NE,45,0.0,0.0,67,0.00,,---,0.00,VWS V14.01,2013-02-06 05:40:00,
2013-02-06 07:41:00,49.5,39.0,29.32,NE,45,0.0,0.0,67,0.00,,---,0.00,VWS V14.01,2013-02-06 05:41:00,
2013-02-06 07:42:00,49.6,39.2,29.32,NE,45,0.0,0.0,67,0.00,,---,0.00,VWS V14.01,2013-02-06 05:42:00,
2013-02-06 07:43:00,49.6,39.2,29.32,NE,45,0.0,0.0,67,0.00,,---,0.00,VWS V14.01,2013-02-06 05:43:00,
2013-02-06 07:44:00,49.6,39.5,29.32,NE,45,0.0,0.0,68,0.00,,---,0.00,VWS V14.01,2013-02-06 05:44:00,
2013-02-06 07:45:00,49.6,39.5,29.32,NE,45,0.0,0.0,68,0.00,,---,0.00,VWS V14.01,2013-02-06 05:45:00,
2013-02-06 07:46:00,49.8,39.7,29.32,NE,45,0.0,0.0,68,0.00,,---,0.00,VWS V14.01,2013-02-06 05:46:00,
2013-02-06 07:47:00,49.8,39.7,29.32,NE,45,0.0,0.0,68,0.00,,---,0.00,VWS V14.01,2013-02-06 05:47:00,
2013-02-06 07:48:00,49.8,39.7,29.32,NE,45,0.0,0.0,68,0.00,,---,0.00,VWS V14.01,2013-02-06 05:48:00,
2013-02-06 07:49:00,50.0,39.9,29.32,NE,45,0.0,0.0,68,0.00,,---,0.00,VWS V14.01,2013-02-06 05:49:00,
2013-02-06 07:50:00,50.0,39.9,29.32,NE,45,0.0,0.0,68,0.00,,---,0.00,VWS V14.01,2013-02-06 05:50:00,
2013-02-06 07:51:00,50.0,39.9,29.32,NE,45,0.0,0.0,68,0.00,,---,0.00,VWS V14.01,2013-02-06 05:51:00,
2013-02-06 07:52:00,50.0,39.9,29.32,NE,45,0.0,0.0,68,0.00,,---,0.00,VWS V14.01,2013-02-06 05:52:00,
2013-02-06 07:53:00,50.2,40.0,29.32,NE,45,0.0,0.0,68,0.00,,---,0.00,VWS V14.01,2013-02-06 05:53:00,
2013-02-06 07:54:00,50.2,40.0,29.32,NE,45,0.0,0.0,68,0.00,,---,0.00,VWS V14.01,2013-02-06 05:54:00,
2013-02-06 07:55:00,50.2,40.0,29.32,NE,45,0.0,0.0,68,0.00,,---,0.00,VWS V14.01,2013-02-06 05:55:00,
2013-02-06 07:56:00,50.2,40.0,29.32,NE,45,0.0,0.0,68,0.00,,---,0.00,VWS V14.01,2013-02-06 05:56:00,
2013-02-06 07:57:00,50.4,40.2,29.32,NE,45,0.0,0.0,68,0.00,,---,0.00,VWS V14.01,2013-02-06 05:57:00,
2013-02-06 07:58:00,50.4,40.2,29.32,NE,45,0.0,0.0,68,0.00,,---,0.00,VWS V14.01,2013-02-06 05:58:00,
2013-02-06 07:59:00,50.4,40.2,29.32,NE,45,0.0,0.0,68,0.00,,---,0.00,VWS V14.01,2013-02-06 05:59:00,
2013-02-06 08:00:00,50.4,40.2,29.32,NE,45,0.0,0.0,68,0.00,,---,0.00,VWS V14.01,2013-02-06 06:00:00,
2013-02-06 08:01:00,50.4,40.2,29.32,NE,45,0.0,0.0,68,0.00,,---,0.00,VWS V14.01,2013-02-06 06:01:00,
2013-02-06 08:02:00,50.4,40.2,29.32,NE,45,0.0,0.0,68,0.00,,---,0.00,VWS V14.01,2013-02-06 06:02:00,
2013-02-06 08:04:00,50.5,40.4,29.32,NE,45,0.0,0.0,68,0.00,,---,0.00,VWS V14.01,2013-02-06 06:04:00,
2013-02-06 08:05:00,50.5,40.4,29.32,NE,45,0.0,0.0,68,0.00,,---,0.00,VWS V14.01,2013-02-06 06:05:00,
2013-02-06 08:06:00,50.5,40.4,29.32,NE,45,0.0,0.0,68,0.00,,---,0.00,VWS V14.01,2013-02-06 06:06:00,
2013-02-06 08:07:00,50.7,40.6,29.32,NE,45,0.0,0.0,68,0.00,,---,0.00,VWS V14.01,2013-02-06 06:07:00,
2013-02-06 08:08:00,50.7,40.6,29.32,NE,45,0.0,0.0,68,0.00,,---,0.00,VWS V14.01,2013-02-06 06:08:00,
2013-02-06 08:09:00,50.7,40.6,29.32,NE,45,0.0,0.0,68,0.00,,---,0.00,VWS V14.01,2013-02-06 06:09:00,
2013-02-06 08:10:00,50.9,40.7,29.32,NE,45,0.0,0.0,68,0.00,,---,0.00,VWS V14.01,2013-02-06 06:10:00,
2013-02-06 08:11:00,50.9,40.7,29.32,NE,45,0.0,0.0,68,0.00,,---,0.00,VWS V14.01,2013-02-06 06:11:00,
2013-02-06 08:12:00,50.9,40.7,29.32,NE,45,0.0,0.0,68,0.00,,---,0.00,VWS V14.01,2013-02-06 06:12:00,
2013-02-06 08:13:00,51.1,40.9,29.32,NE,45,0.0,0.0,68,0.00,,---,0.00,VWS V14.01,2013-02-06 06:13:00,
2013-02-06 08:14:00,51.1,40.9,29.32,NE,45,0.0,0.0,68,0.00,,---,0.00,VWS V14.01,2013-02-06 06:14:00,
2013-02-06 08:15:00,51.1,40.9,29.32,NE,45,0.0,0.0,68,0.00,,---,0.00,VWS V14.01,2013-02-06 06:15:00,
2013-02-06 08:16:00,51.3,41.1,29.32,NE,45,0.0,0.0,68,0.00,,---,0.00,VWS V14.01,2013-02-06 06:16:00,
2013-02-06 08:17:00,51.3,41.1,29.32,NE,45,0.0,0.0,68,0.00,,---,0.00,VWS V14.01,2013-02-06 06:17:00,
2013-02-06 08:18:00,51.3,41.1,29.32,ENE,68,1.3,1.3,68,0.00,,---,0.00,VWS V14.01,2013-02-06 06:18:00,
2013-02-06 08:19:00,51.4,41.2,29.32,ENE,68,0.9,1.3,68,0.00,,---,0.00,VWS V14.01,2013-02-06 06:19:00,
2013-02-06 08:20:00,51.4,41.2,29.32,East,90,1.3,1.3,68,0.00,,---,0.00,VWS V14.01,2013-02-06 06:20:00,
2013-02-06 08:21:00,51.6,41.4,29.32,East,90,1.3,1.3,68,0.00,,---,0.00,VWS V14.01,2013-02-06 06:21:00,
2013-02-06 08:22:00,51.6,41.4,29.32,East,90,0.0,1.3,68,0.00,,---,0.00,VWS V14.01,2013-02-06 06:22:00,
2013-02-06 08:23:00,51.6,41.4,29.32,East,90,0.0,0.0,68,0.00,,---,0.00,VWS V14.01,2013-02-06 06:23:00,
2013-02-06 08:24:00,51.6,41.4,29.32,East,90,0.0,0.0,68,0.00,,---,0.00,VWS V14.01,2013-02-06 06:24:00,
2013-02-06 08:25:00,51.8,41.6,29.32,East,90,0.0,0.0,68,0.00,,---,0.00,VWS V14.01,2013-02-06 06:25:00,
2013-02-06 08:26:00,52.0,41.8,29.32,East,90,0.0,0.0,68,0.00,,---,0.00,VWS V14.01,2013-02-06 06:26:00,
2013-02-06 08:27:00,52.0,41.8,29.32,East,90,0.0,0.0,68,0.00,,---,0.00,VWS V14.01,2013-02-06 06:27:00,
2013-02-06 08:28:00,52.2,41.9,29.32,East,90,0.0,0.0,68,0.00,,---,0.00,VWS V14.01,2013-02-06 06:28:00,
2013-02-06 08:29:00,52.3,42.1,29.32,East,90,0.0,0.0,68,0.00,,---,0.00,VWS V14.01,2013-02-06 06:29:00,
2013-02-06 08:30:00,52.7,42.8,29.32,East,90,0.0,0.0,69,0.00,,---,0.00,VWS V14.01,2013-02-06 06:30:00,
2013-02-06 08:31:00,52.7,42.8,29.32,East,90,0.0,0.0,69,0.00,,---,0.00,VWS V14.01,2013-02-06 06:31:00,
2013-02-06 08:32:00,53.2,43.3,29.32,East,90,0.0,0.0,69,0.00,,---,0.00,VWS V14.01,2013-02-06 06:32:00,
2013-02-06 08:33:00,53.4,43.9,29.32,East,90,0.0,0.0,70,0.00,,---,0.00,VWS V14.01,2013-02-06 06:33:00,
2013-02-06 08:34:00,53.8,43.9,29.32,East,90,0.0,0.0,69,0.00,,---,0.00,VWS V14.01,2013-02-06 06:34:00,
2013-02-06 08:35:00,53.8,43.9,29.32,East,90,0.0,0.0,69,0.00,,---,0.00,VWS V14.01,2013-02-06 06:35:00,
2013-02-06 08:36:00,54.3,44.8,29.32,East,90,0.0,0.0,70,0.00,,---,0.00,VWS V14.01,2013-02-06 06:36:00,
2013-02-06 08:37:00,54.9,45.3,29.32,East,90,1.1,1.1,70,0.00,,---,0.00,VWS V14.01,2013-02-06 06:37:00,
2013-02-06 08:38:00,55.2,45.6,29.32,ESE,112,1.1,1.1,70,0.00,,---,0.00,VWS V14.01,2013-02-06 06:38:00,
2013-02-06 08:39:00,55.4,45.4,29.32,ESE,112,0.0,1.1,69,0.00,,---,0.00,VWS V14.01,2013-02-06 06:39:00,
2013-02-06 08:40:00,55.4,45.4,29.32,ESE,112,0.0,0.0,69,0.00,,---,0.00,VWS V14.01,2013-02-06 06:40:00,
2013-02-06 08:41:00,55.9,45.9,29.32,ESE,112,0.0,0.0,69,0.00,,---,0.00,VWS V14.01,2013-02-06 06:41:00,
2013-02-06 08:42:00,56.1,46.1,29.32,ESE,112,0.0,0.0,69,0.00,,---,0.00,VWS V14.01,2013-02-06 06:42:00,
2013-02-06 08:43:00,56.5,46.8,29.32,ESE,112,0.0,0.0,70,0.00,,---,0.00,VWS V14.01,2013-02-06 06:43:00,
2013-02-06 08:44:00,56.7,47.0,29.32,ESE,112,0.0,0.0,70,0.00,,---,0.00,VWS V14.01,2013-02-06 06:44:00,
2013-02-06 08:45:00,57.0,47.3,29.32,ESE,112,0.0,0.0,70,0.00,,---,0.00,VWS V14.01,2013-02-06 06:45:00,
2013-02-06 08:46:00,57.2,47.1,29.32,ESE,112,0.0,0.0,69,0.00,,---,0.00,VWS V14.01,2013-02-06 06:46:00,
2013-02-06 08:47:00,57.2,47.1,29.32,ESE,112,0.0,0.0,69,0.00,,---,0.00,VWS V14.01,2013-02-06 06:47:00,
2013-02-06 08:48:00,57.2,46.8,29.32,ESE,112,0.0,0.0,68,0.00,,---,0.00,VWS V14.01,2013-02-06 06:48:00,
2013-02-06 08:49:00,57.4,46.9,29.32,ESE,112,0.0,0.0,68,0.00,,---,0.00,VWS V14.01,2013-02-06 06:49:00,
2013-02-06 08:50:00,57.6,47.1,29.32,ESE,112,1.1,1.1,68,0.00,,---,0.00,VWS V14.01,2013-02-06 06:50:00,
2013-02-06 08:51:00,57.7,47.3,29.32,ESE,112,0.0,1.1,68,0.00,,---,0.00,VWS V14.01,2013-02-06 06:51:00,
2013-02-06 08:52:00,57.7,46.9,29.32,ESE,112,0.0,0.0,67,0.00,,---,0.00,VWS V14.01,2013-02-06 06:52:00,
2013-02-06 08:53:00,57.9,47.0,29.32,ESE,112,0.0,0.0,67,0.00,,---,0.00,VWS V14.01,2013-02-06 06:53:00,
2013-02-06 08:54:00,58.1,47.6,29.32,ESE,112,0.0,0.0,68,0.00,,---,0.00,VWS V14.01,2013-02-06 06:54:00,
2013-02-06 08:55:00,57.9,47.0,29.32,ESE,112,0.0,0.0,67,0.00,,---,0.00,VWS V14.01,2013-02-06 06:55:00,
2013-02-06 08:57:00,57.7,46.5,29.32,ESE,112,0.0,0.0,66,0.00,,---,0.00,VWS V14.01,2013-02-06 06:57:00,
2013-02-06 08:58:00,57.6,45.9,29.32,ESE,112,0.0,0.0,65,0.00,,---,0.00,VWS V14.01,2013-02-06 06:58:00,
2013-02-06 08:59:00,57.7,45.7,29.32,ESE,112,0.0,0.0,64,0.00,,---,0.00,VWS V14.01,2013-02-06 06:59:00,
2013-02-06 09:00:00,58.1,46.4,29.32,SE,135,0.9,0.9,65,0.00,,---,0.00,VWS V14.01,2013-02-06 07:00:00,
2013-02-06 09:01:00,58.3,47.0,29.32,ESE,112,1.1,1.1,66,0.00,,---,0.00,VWS V14.01,2013-02-06 07:01:00,
2013-02-06 09:02:00,58.3,47.0,29.32,ESE,112,1.1,1.1,66,0.00,,---,0.00,VWS V14.01,2013-02-06 07:02:00,
2013-02-06 09:03:00,58.5,47.2,29.32,ESE,112,0.9,1.1,66,0.00,,---,0.00,VWS V14.01,2013-02-06 07:03:00,
2013-02-06 09:04:00,58.5,46.8,29.32,ESE,112,1.1,1.1,65,0.00,,---,0.00,VWS V14.01,2013-02-06 07:04:00,
2013-02-06 09:05:00,58.5,46.8,29.32,East,90,1.6,1.6,65,0.00,,---,0.00,VWS V14.01,2013-02-06 07:05:00,
2013-02-06 09:06:00,58.8,47.1,29.32,ENE,68,1.3,1.6,65,0.00,,---,0.00,VWS V14.01,2013-02-06 07:06:00,
2013-02-06 09:07:00,58.8,46.7,29.32,ENE,68,0.0,1.3,64,0.00,,---,0.00,VWS V14.01,2013-02-06 07:07:00,
2013-02-06 09:08:00,59.0,46.4,29.32,ENE,68,1.1,1.1,63,0.00,,---,0.00,VWS V14.01,2013-02-06 07:08:00,
2013-02-06 09:09:00,59.2,46.6,29.32,ENE,68,0.0,1.1,63,0.00,,---,0.00,VWS V14.01,2013-02-06 07:09:00,
2013-02-06 09:10:00,59.4,46.8,29.32,ENE,68,1.1,1.1,63,0.00,,---,0.00,VWS V14.01,2013-02-06 07:10:00,
2013-02-06 09:11:00,59.5,47.0,29.32,ENE,68,0.0,1.1,63,0.00,,---,0.00,VWS V14.01,2013-02-06 07:11:00,
2013-02-06 09:12:00,59.7,46.7,29.32,East,90,0.0,0.0,62,0.00,,---,0.00,VWS V14.01,2013-02-06 07:12:00,
2013-02-06 09:13:00,59.7,46.3,29.32,East,90,1.6,1.6,61,0.00,,---,0.00,VWS V14.01,2013-02-06 07:13:00,
2013-02-06 09:14:00,60.1,46.6,29.32,East,90,0.0,1.6,61,0.00,,---,0.00,VWS V14.01,2013-02-06 07:14:00,
2013-02-06 09:15:00,60.6,47.1,29.32,SE,135,2.2,2.2,61,0.00,,---,0.00,VWS V14.01,2013-02-06 07:15:00,
2013-02-06 09:16:00,60.8,46.8,29.32,SE,135,0.9,2.2,60,0.00,,---,0.00,VWS V14.01,2013-02-06 07:16:00,
2013-02-06 09:17:00,61.0,46.6,29.32,SSE,158,2.2,2.2,59,0.00,,---,0.00,VWS V14.01,2013-02-06 07:17:00,
2013-02-06 09:18:00,61.2,46.7,29.32,ESE,112,2.5,2.5,59,0.00,,---,0.00,VWS V14.01,2013-02-06 07:18:00,
2013-02-06 09:19:00,61.2,46.3,29.32,SE,135,0.0,2.5,58,0.00,,---,0.00,VWS V14.01,2013-02-06 07:19:00,
2013-02-06 09:20:00,61.3,46.0,29.32,ESE,112,1.1,1.1,57,0.00,,---,0.00,VWS V14.01,2013-02-06 07:20:00,
2013-02-06 09:21:00,61.0,44.7,29.32,SE,135,0.9,1.1,55,0.00,,---,0.00,VWS V14.01,2013-02-06 07:21:00,
2013-02-06 09:22:00,61.3,44.6,29.32,SE,135,1.6,1.6,54,0.00,,---,0.00,VWS V14.01,2013-02-06 07:22:00,
2013-02-06 09:23:00,61.5,44.7,29.32,SSE,158,2.0,2.0,54,0.00,,---,0.00,VWS V14.01,2013-02-06 07:23:00,
2013-02-06 09:24:00,61.5,44.7,29.32,SSE,158,1.6,2.0,54,0.00,,---,0.00,VWS V14.01,2013-02-06 07:24:00,
2013-02-06 09:25:00,61.5,44.2,29.32,SW,225,2.0,2.0,53,0.00,,---,0.00,VWS V14.01,2013-02-06 07:25:00,
2013-02-06 09:26:00,61.7,44.4,29.32,SW,225,0.9,2.0,53,0.00,,---,0.00,VWS V14.01,2013-02-06 07:26:00,
2013-02-06 09:27:00,61.7,43.9,29.32,WSW,248,0.9,0.9,52,0.00,,---,0.00,VWS V14.01,2013-02-06 07:27:00,
2013-02-06 09:28:00,61.7,43.9,29.32,WSW,248,0.0,0.9,52,0.00,,---,0.00,VWS V14.01,2013-02-06 07:28:00,
2013-02-06 09:29:00,61.7,43.4,29.32,South,180,2.0,2.0,51,0.00,,---,0.00,VWS V14.01,2013-02-06 07:29:00,
2013-02-06 09:30:00,61.9,43.1,29.32,NNE,22,0.9,2.0,50,0.00,,---,0.00,VWS V14.01,2013-02-06 07:30:00,
2013-02-06 09:31:00,61.5,42.2,29.32,South,180,1.1,1.1,49,0.00,,---,0.00,VWS V14.01,2013-02-06 07:31:00,
2013-02-06 09:32:00,61.3,41.5,29.32,SSE,158,0.0,1.1,48,0.00,,---,0.00,VWS V14.01,2013-02-06 07:32:00,
2013-02-06 09:33:00,61.0,40.6,29.32,SSE,158,0.0,0.0,47,0.00,,---,0.00,VWS V14.01,2013-02-06 07:33:00,
2013-02-06 09:34:00,61.0,40.6,29.32,SSE,158,1.1,1.1,47,0.00,,---,0.00,VWS V14.01,2013-02-06 07:34:00,
2013-02-06 09:35:00,61.0,40.6,29.32,South,180,1.3,1.3,47,0.00,,---,0.00,VWS V14.01,2013-02-06 07:35:00,
2013-02-06 09:36:00,60.6,40.8,29.32,SW,225,0.0,1.3,48,0.00,,---,0.00,VWS V14.01,2013-02-06 07:36:00,
2013-02-06 09:37:00,60.4,40.1,29.32,SSE,158,3.6,3.6,47,0.00,,---,0.00,VWS V14.01,2013-02-06 07:37:00,
2013-02-06 09:38:00,60.3,40.0,29.32,SSE,158,3.4,3.6,47,0.00,,---,0.00,VWS V14.01,2013-02-06 07:38:00,
2013-02-06 09:39:00,59.9,39.1,29.32,SSE,158,1.3,3.4,46,0.00,,---,0.00,VWS V14.01,2013-02-06 07:39:00,
2013-02-06 09:40:00,59.7,38.9,29.32,SSE,158,4.0,4.0,46,0.00,,---,0.00,VWS V14.01,2013-02-06 07:40:00,
2013-02-06 09:41:00,59.5,38.8,29.32,ESE,112,2.5,4.0,46,0.00,,---,0.00,VWS V14.01,2013-02-06 07:41:00,
2013-02-06 09:42:00,59.5,38.8,29.32,SE,135,2.5,2.5,46,0.00,,---,0.00,VWS V14.01,2013-02-06 07:42:00,
2013-02-06 09:43:00,59.2,38.4,29.32,SSE,158,2.2,2.5,46,0.00,,---,0.00,VWS V14.01,2013-02-06 07:43:00,
2013-02-06 09:44:00,59.0,38.3,29.32,SSE,158,2.0,2.2,46,0.00,,---,0.00,VWS V14.01,2013-02-06 07:44:00,
2013-02-06 09:45:00,58.8,38.7,29.32,ESE,112,2.0,2.0,47,0.00,,---,0.00,VWS V14.01,2013-02-06 07:45:00,
2013-02-06 09:46:00,58.6,38.5,29.32,SSE,158,1.6,2.0,47,0.00,,---,0.00,VWS V14.01,2013-02-06 07:46:00,
2013-02-06 09:47:00,58.6,38.5,29.32,SSE,158,1.3,1.6,47,0.00,,---,0.00,VWS V14.01,2013-02-06 07:47:00,
2013-02-06 09:48:00,58.5,38.3,29.32,SSE,158,0.0,1.3,47,0.00,,---,0.00,VWS V14.01,2013-02-06 07:48:00,
2013-02-06 09:49:00,58.5,38.9,29.32,SSE,158,1.1,1.1,48,0.00,,---,0.00,VWS V14.01,2013-02-06 07:49:00,
2013-02-06 09:50:00,58.5,38.9,29.32,ESE,112,2.7,2.7,48,0.00,,---,0.00,VWS V14.01,2013-02-06 07:50:00,
2013-02-06 09:51:00,58.5,38.9,29.32,SSE,158,2.2,2.7,48,0.00,,---,0.00,VWS V14.01,2013-02-06 07:51:00,
2013-02-06 09:52:00,58.5,38.9,29.32,SSE,158,0.0,2.2,48,0.00,,---,0.00,VWS V14.01,2013-02-06 07:52:00,
2013-02-06 09:53:00,58.6,39.5,29.32,SSE,158,0.0,0.0,49,0.00,,---,0.00,VWS V14.01,2013-02-06 07:53:00,
2013-02-06 09:54:00,58.6,39.5,29.32,SSE,158,1.1,1.1,49,0.00,,---,0.00,VWS V14.01,2013-02-06 07:54:00,
2013-02-06 09:55:00,58.6,39.5,29.32,SSE,158,0.0,1.1,49,0.00,,---,0.00,VWS V14.01,2013-02-06 07:55:00,
2013-02-06 09:56:00,58.6,39.5,29.32,SSE,158,1.6,1.6,49,0.00,,---,0.00,VWS V14.01,2013-02-06 07:56:00,
2013-02-06 09:57:00,58.6,39.5,29.32,South,180,1.3,1.6,49,0.00,,---,0.00,VWS V14.01,2013-02-06 07:57:00,
2013-02-06 09:58:00,58.8,39.7,29.32,SSE,158,3.4,3.4,49,0.00,,---,0.00,VWS V14.01,2013-02-06 07:58:00,
2013-02-06 09:59:00,58.8,39.7,29.32,SE,135,1.6,3.4,49,0.00,,---,0.00,VWS V14.01,2013-02-06 07:59:00,
2013-02-06 10:00:00,58.8,39.7,29.32,SSE,158,1.3,1.6,49,0.00,,---,0.00,VWS V14.01,2013-02-06 08:00:00,
2013-02-06 10:01:00,59.2,40.0,29.32,ESE,112,2.7,2.7,49,0.00,,---,0.00,VWS V14.01,2013-02-06 08:01:00,
2013-02-06 10:02:00,59.4,40.2,29.32,SSE,158,2.9,2.9,49,0.00,,---,0.00,VWS V14.01,2013-02-06 08:02:00,
2013-02-06 10:04:00,60.1,40.9,29.32,SE,135,2.0,2.9,49,0.00,,---,0.00,VWS V14.01,2013-02-06 08:04:00,
2013-02-06 10:05:00,60.3,41.0,29.32,SSE,158,2.0,2.0,49,0.00,,---,0.00,VWS V14.01,2013-02-06 08:05:00,
2013-02-06 10:06:00,60.3,41.0,29.32,South,180,1.1,2.0,49,0.00,,---,0.00,VWS V14.01,2013-02-06 08:06:00,
2013-02-06 10:07:00,60.4,41.2,29.32,WNW,292,1.6,1.6,49,0.00,,---,0.00,VWS V14.01,2013-02-06 08:07:00,
2013-02-06 10:08:00,60.6,41.4,29.32,NNW,338,1.3,1.6,49,0.00,,---,0.00,VWS V14.01,2013-02-06 08:08:00,
2013-02-06 10:09:00,61.0,41.2,29.32,NNW,338,0.0,1.3,48,0.00,,---,0.00,VWS V14.01,2013-02-06 08:09:00,
2013-02-06 10:10:00,61.2,41.3,29.32,WSW,248,0.0,0.0,48,0.00,,---,0.00,VWS V14.01,2013-02-06 08:10:00,
2013-02-06 10:11:00,61.3,41.5,29.32,SSW,202,2.7,2.7,48,0.00,,---,0.00,VWS V14.01,2013-02-06 08:11:00,
2013-02-06 10:12:00,61.5,41.7,29.32,ESE,112,1.3,2.7,48,0.00,,---,0.00,VWS V14.01,2013-02-06 08:12:00,
2013-02-06 10:13:00,61.9,41.5,29.32,SE,135,2.0,2.0,47,0.00,,---,0.00,VWS V14.01,2013-02-06 08:13:00,
2013-02-06 10:14:00,61.9,41.5,29.32,ESE,112,0.9,2.0,47,0.00,,---,0.00,VWS V14.01,2013-02-06 08:14:00,
2013-02-06 10:15:00,62.1,41.1,29.32,SSE,158,2.9,2.9,46,0.00,,---,0.00,VWS V14.01,2013-02-06 08:15:00,
2013-02-06 10:16:00,62.4,41.4,29.32,SE,135,1.6,2.9,46,0.00,,---,0.00,VWS V14.01,2013-02-06 08:16:00,
2013-02-06 10:17:00,62.6,41.0,29.32,SSE,158,1.1,1.6,45,0.00,,---,0.00,VWS V14.01,2013-02-06 08:17:00,
2013-02-06 10:18:00,62.4,40.8,29.32,SSE,158,1.3,1.3,45,0.00,,---,0.00,VWS V14.01,2013-02-06 08:18:00,
2013-02-06 10:19:00,62.2,40.7,29.32,SE,135,2.0,2.0,45,0.00,,---,0.00,VWS V14.01,2013-02-06 08:19:00,
2013-02-06 10:20:00,62.4,40.8,29.32,ESE,112,2.2,2.2,45,0.00,,---,0.00,VWS V14.01,2013-02-06 08:20:00,
2013-02-06 10:21:00,62.6,40.4,29.32,SE,135,2.2,2.2,44,0.00,,---,0.00,VWS V14.01,2013-02-06 08:21:00,
2013-02-06 10:22:00,62.6,40.4,29.32,SE,135,1.1,2.2,44,0.00,,---,0.00,VWS V14.01,2013-02-06 08:22:00,
2013-02-06 10:23:00,62.8,40.6,29.32,SSE,158,0.9,1.1,44,0.00,,---,0.00,VWS V14.01,2013-02-06 08:23:00,
2013-02-06 10:24:00,62.4,40.2,29.32,West,270,2.2,2.2,44,0.00,,---,0.00,VWS V14.01,2013-02-06 08:24:00,
2013-02-06 10:25:00,62.8,40.0,29.32,SSE,158,2.0,2.2,43,0.00,,---,0.00,VWS V14.01,2013-02-06 08:25:00,
2013-02-06 10:26:00,63.0,40.7,29.32,SE,135,0.9,2.0,44,0.00,,---,0.00,VWS V14.01,2013-02-06 08:26:00,
2013-02-06 10:27:00,63.1,39.7,29.32,ESE,112,2.5,2.5,42,0.00,,---,0.00,VWS V14.01,2013-02-06 08:27:00,
2013-02-06 10:28:00,63.1,39.7,29.32,ESE,112,2.5,2.5,42,0.00,,---,0.00,VWS V14.01,2013-02-06 08:28:00,
2013-02-06 10:29:00,63.1,39.1,29.32,SSE,158,1.6,2.5,41,0.00,,---,0.00,VWS V14.01,2013-02-06 08:29:00,
2013-02-06 10:30:00,63.3,39.2,29.32,ESE,112,3.8,3.8,41,0.00,,---,0.00,VWS V14.01,2013-02-06 08:30:00,
2013-02-06 10:31:00,63.3,38.6,29.32,ESE,112,5.6,5.6,40,0.00,,---,0.00,VWS V14.01,2013-02-06 08:31:00,
2013-02-06 10:32:00,63.3,38.6,29.32,SSE,158,2.9,5.6,40,0.00,,---,0.00,VWS V14.01,2013-02-06 08:32:00,
2013-02-06 10:33:00,63.3,38.6,29.32,ESE,112,2.5,2.9,40,0.00,,---,0.00,VWS V14.01,2013-02-06 08:33:00,
2013-02-06 10:34:00,63.1,38.5,29.32,ESE,112,5.6,5.6,40,0.00,,---,0.00,VWS V14.01,2013-02-06 08:34:00,
2013-02-06 10:35:00,63.1,38.5,29.32,West,270,1.6,5.6,40,0.00,,---,0.00,VWS V14.01,2013-02-06 08:35:00,
2013-02-06 10:36:00,63.1,38.5,29.32,SSE,158,0.9,1.6,40,0.00,,---,0.00,VWS V14.01,2013-02-06 08:36:00,
2013-02-06 10:37:00,63.1,38.5,29.32,SE,135,1.6,1.6,40,0.00,,---,0.00,VWS V14.01,2013-02-06 08:37:00,
2013-02-06 10:38:00,63.3,38.6,29.32,East,90,1.6,1.6,40,0.00,,---,0.00,VWS V14.01,2013-02-06 08:38:00,
2013-02-06 10:39:00,63.5,38.1,29.32,East,90,2.0,2.0,39,0.00,,---,0.00,VWS V14.01,2013-02-06 08:39:00,
2013-02-06 10:40:00,63.5,38.8,29.32,ESE,112,0.9,2.0,40,0.00,,---,0.00,VWS V14.01,2013-02-06 08:40:00,
2013-02-06 10:41:00,63.5,38.8,29.32,South,180,3.6,3.6,40,0.00,,---,0.00,VWS V14.01,2013-02-06 08:41:00,
2013-02-06 10:42:00,63.5,38.8,29.32,SW,225,1.3,3.6,40,0.00,,---,0.00,VWS V14.01,2013-02-06 08:42:00,
2013-02-06 10:43:00,63.5,38.8,29.32,SE,135,1.1,1.3,40,0.00,,---,0.00,VWS V14.01,2013-02-06 08:43:00,
2013-02-06 10:44:00,63.5,38.1,29.32,SSE,158,3.6,3.6,39,0.00,,---,0.00,VWS V14.01,2013-02-06 08:44:00,
2013-02-06 10:45:00,63.5,38.1,29.32,SSE,158,2.7,3.6,39,0.00,,---,0.00,VWS V14.01,2013-02-06 08:45:00,
2013-02-06 10:46:00,63.5,38.1,29.32,SSE,158,2.2,2.7,39,0.00,,---,0.00,VWS V14.01,2013-02-06 08:46:00,
2013-02-06 10:47:00,63.5,38.1,29.32,SE,135,2.9,2.9,39,0.00,,---,0.00,VWS V14.01,2013-02-06 08:47:00,
2013-02-06 10:48:00,63.7,38.3,29.32,SSE,158,3.4,3.4,39,0.00,,---,0.00,VWS V14.01,2013-02-06 08:48:00,
2013-02-06 10:49:00,63.7,38.3,29.32,SSE,158,3.1,3.4,39,0.00,,---,0.00,VWS V14.01,2013-02-06 08:49:00,
2013-02-06 10:50:00,63.3,37.3,29.32,WNW,292,1.6,3.1,38,0.00,,---,0.00,VWS V14.01,2013-02-06 08:50:00,
2013-02-06 10:51:00,63.1,37.1,29.32,SSW,202,1.3,1.6,38,0.00,,---,0.00,VWS V14.01,2013-02-06 08:51:00,
2013-02-06 10:52:00,63.1,37.8,29.32,SSE,158,5.8,5.8,39,0.00,,---,0.00,VWS V14.01,2013-02-06 08:52:00,
2013-02-06 10:53:00,62.8,36.8,29.32,South,180,1.6,5.8,38,0.00,,---,0.00,VWS V14.01,2013-02-06 08:53:00,
2013-02-06 10:54:00,62.2,37.0,29.32,SSE,158,2.5,2.5,39,0.00,,---,0.00,VWS V14.01,2013-02-06 08:54:00,
2013-02-06 10:55:00,62.2,37.0,29.32,SSE,158,3.1,3.1,39,0.00,,---,0.00,VWS V14.01,2013-02-06 08:55:00,
2013-02-06 10:56:00,62.2,37.0,29.32,SE,135,2.9,3.1,39,0.00,,---,0.00,VWS V14.01,2013-02-06 08:56:00,
2013-02-06 10:57:00,62.2,37.6,29.32,SSE,158,3.1,3.1,40,0.00,,---,0.00,VWS V14.01,2013-02-06 08:57:00,
2013-02-06 10:58:00,62.2,37.6,29.32,WNW,292,2.7,3.1,40,0.00,,---,0.00,VWS V14.01,2013-02-06 08:58:00,
2013-02-06 10:59:00,62.1,37.5,29.32,SSW,202,2.5,2.7,40,0.00,,---,0.00,VWS V14.01,2013-02-06 08:59:00,
2013-02-06 11:00:00,62.2,37.6,29.32,SE,135,1.6,2.5,40,0.00,,---,0.00,VWS V14.01,2013-02-06 09:00:00,
2013-02-06 11:01:00,62.2,37.6,29.32,SSW,202,1.6,1.6,40,0.00,,---,0.00,VWS V14.01,2013-02-06 09:01:00,
2013-02-06 11:02:00,62.6,38.0,29.32,WNW,292,2.0,2.0,40,0.00,,---,0.00,VWS V14.01,2013-02-06 09:02:00,
2013-02-06 11:04:00,63.0,38.3,29.32,NNW,338,2.9,2.9,40,0.00,,---,0.00,VWS V14.01,2013-02-06 09:04:00,
2013-02-06 11:05:00,63.1,38.5,29.32,NNW,338,2.5,2.9,40,0.00,,---,0.00,VWS V14.01,2013-02-06 09:05:00,
2013-02-06 11:06:00,63.1,38.5,29.32,NNE,22,1.3,2.5,40,0.00,,---,0.00,VWS V14.01,2013-02-06 09:06:00,
2013-02-06 11:07:00,63.3,38.6,29.32,NW,315,2.0,2.0,40,0.00,,---,0.00,VWS V14.01,2013-02-06 09:07:00,
2013-02-06 11:08:00,63.3,38.6,29.32,South,180,1.6,2.0,40,0.00,,---,0.00,VWS V14.01,2013-02-06 09:08:00,
2013-02-06 11:09:00,63.7,38.3,29.32,SE,135,2.7,2.7,39,0.00,,---,0.00,VWS V14.01,2013-02-06 09:09:00,
2013-02-06 11:10:00,63.7,38.3,29.32,SSE,158,2.2,2.7,39,0.00,,---,0.00,VWS V14.01,2013-02-06 09:10:00,
2013-02-06 11:11:00,63.7,37.6,29.32,SSE,158,2.2,2.2,38,0.00,,---,0.00,VWS V14.01,2013-02-06 09:11:00,
2013-02-06 11:12:00,63.9,37.8,29.32,ESE,112,5.4,5.4,38,0.00,,---,0.00,VWS V14.01,2013-02-06 09:12:00,
2013-02-06 11:13:00,63.9,37.8,29.32,SE,135,3.1,5.4,38,0.00,,---,0.00,VWS V14.01,2013-02-06 09:13:00,
2013-02-06 11:14:00,64.0,37.9,29.32,South,180,4.9,4.9,38,0.00,,---,0.00,VWS V14.01,2013-02-06 09:14:00,
2013-02-06 11:15:00,64.0,37.9,29.32,South,180,4.3,4.9,38,0.00,,---,0.00,VWS V14.01,2013-02-06 09:15:00,
2013-02-06 11:16:00,64.2,38.1,29.32,SE,135,1.6,4.3,38,0.00,,---,0.00,VWS V14.01,2013-02-06 09:16:00,
2013-02-06 11:17:00,64.6,38.4,29.32,ESE,112,3.4,3.4,38,0.00,,---,0.00,VWS V14.01,2013-02-06 09:17:00,
2013-02-06 11:18:00,64.6,38.4,29.32,SE,135,2.5,3.4,38,0.00,,---,0.00,VWS V14.01,2013-02-06 09:18:00,
2013-02-06 11:19:00,64.8,37.9,29.32,SSE,158,1.6,2.5,37,0.00,,---,0.00,VWS V14.01,2013-02-06 09:19:00,
2013-02-06 11:20:00,64.8,37.9,29.32,ENE,68,2.0,2.0,37,0.00,,---,0.00,VWS V14.01,2013-02-06 09:20:00,
2013-02-06 11:21:00,64.8,37.9,29.32,SSE,158,3.1,3.1,37,0.00,,---,0.00,VWS V14.01,2013-02-06 09:21:00,
2013-02-06 11:22:00,64.8,37.9,29.32,ESE,112,2.5,3.1,37,0.00,,---,0.00,VWS V14.01,2013-02-06 09:22:00,
2013-02-06 11:23:00,64.8,37.2,29.32,SE,135,2.7,2.7,36,0.00,,---,0.00,VWS V14.01,2013-02-06 09:23:00,
2013-02-06 11:24:00,64.8,37.2,29.32,South,180,2.5,2.7,36,0.00,,---,0.00,VWS V14.01,2013-02-06 09:24:00,
2013-02-06 11:25:00,64.9,37.4,29.32,South,180,2.0,2.5,36,0.00,,---,0.00,VWS V14.01,2013-02-06 09:25:00,
2013-02-06 11:26:00,65.1,38.2,29.32,ENE,68,1.6,2.0,37,0.00,,---,0.00,VWS V14.01,2013-02-06 09:26:00,
2013-02-06 11:27:00,65.3,38.4,29.32,ESE,112,1.3,1.6,37,0.00,,---,0.00,VWS V14.01,2013-02-06 09:27:00,
2013-02-06 11:28:00,65.5,38.5,29.32,SE,135,2.0,2.0,37,0.00,,---,0.00,VWS V14.01,2013-02-06 09:28:00,
2013-02-06 11:29:00,65.5,38.5,29.32,WSW,248,1.3,2.0,37,0.00,,---,0.00,VWS V14.01,2013-02-06 09:29:00,
2013-02-06 11:30:00,65.5,37.8,29.32,SSE,158,1.6,1.6,36,0.00,,---,0.00,VWS V14.01,2013-02-06 09:30:00,
2013-02-06 11:31:00,65.5,37.8,29.32,SSW,202,1.6,1.6,36,0.00,,---,0.00,VWS V14.01,2013-02-06 09:31:00,
2013-02-06 11:32:00,65.5,37.8,29.32,East,90,2.7,2.7,36,0.00,,---,0.00,VWS V14.01,2013-02-06 09:32:00,
2013-02-06 11:33:00,65.5,37.1,29.32,SW,225,4.3,4.3,35,0.00,,---,0.00,VWS V14.01,2013-02-06 09:33:00,
2013-02-06 11:34:00,65.5,37.1,29.32,WSW,248,2.7,4.3,35,0.00,,---,0.00,VWS V14.01,2013-02-06 09:34:00,
2013-02-06 11:35:00,65.5,37.1,29.32,SE,135,0.9,2.7,35,0.00,,---,0.00,VWS V14.01,2013-02-06 09:35:00,
2013-02-06 11:36:00,65.5,37.1,29.32,SE,135,1.3,1.3,35,0.00,,---,0.00,VWS V14.01,2013-02-06 09:36:00,
2013-02-06 11:37:00,65.8,37.5,29.29,SSE,158,4.0,4.0,35,0.00,,---,0.00,VWS V14.01,2013-02-06 09:37:00,
2013-02-06 11:38:00,65.8,37.5,29.29,SSE,158,3.6,4.0,35,0.00,,---,0.00,VWS V14.01,2013-02-06 09:38:00,
2013-02-06 11:39:00,65.8,37.5,29.29,SSW,202,4.0,4.0,35,0.00,,---,0.00,VWS V14.01,2013-02-06 09:39:00,
2013-02-06 11:40:00,65.7,36.6,29.29,SE,135,1.3,4.0,34,0.00,,---,0.00,VWS V14.01,2013-02-06 09:40:00,
2013-02-06 11:41:00,65.8,37.5,29.29,SE,135,1.3,1.3,35,0.00,,---,0.00,VWS V14.01,2013-02-06 09:41:00,
2013-02-06 11:42:00,65.8,36.7,29.29,East,90,1.6,1.6,34,0.00,,---,0.00,VWS V14.01,2013-02-06 09:42:00,
2013-02-06 11:44:00,65.8,36.7,29.29,WSW,248,4.0,4.0,34,0.00,,---,0.00,VWS V14.01,2013-02-06 09:44:00,
2013-02-06 11:45:00,65.7,36.6,29.29,SSE,158,4.5,4.5,34,0.00,,---,0.00,VWS V14.01,2013-02-06 09:45:00,
2013-02-06 11:46:00,65.5,36.4,29.29,SSE,158,5.8,5.8,34,0.00,,---,0.00,VWS V14.01,2013-02-06 09:46:00,
2013-02-06 11:47:00,65.5,36.4,29.29,ENE,68,2.0,5.8,34,0.00,,---,0.00,VWS V14.01,2013-02-06 09:47:00,
2013-02-06 11:48:00,65.5,36.4,29.29,SE,135,1.3,2.0,34,0.00,,---,0.00,VWS V14.01,2013-02-06 09:48:00,
2013-02-06 11:49:00,65.7,37.3,29.29,SSW,202,1.6,1.6,35,0.00,,---,0.00,VWS V14.01,2013-02-06 09:49:00,
2013-02-06 11:50:00,65.5,37.1,29.29,ESE,112,1.3,1.6,35,0.00,,---,0.00,VWS V14.01,2013-02-06 09:50:00,
2013-02-06 11:51:00,65.7,36.6,29.29,SSE,158,3.6,3.6,34,0.00,,---,0.00,VWS V14.01,2013-02-06 09:51:00,
2013-02-06 11:52:00,65.5,36.4,29.32,WSW,248,1.1,3.6,34,0.00,,---,0.00,VWS V14.01,2013-02-06 09:52:00,
2013-02-06 11:53:00,65.7,36.6,29.32,South,180,6.3,6.3,34,0.00,,---,0.00,VWS V14.01,2013-02-06 09:53:00,
2013-02-06 11:54:00,65.7,36.6,29.32,South,180,4.0,6.3,34,0.00,,---,0.00,VWS V14.01,2013-02-06 09:54:00,
2013-02-06 11:55:00,65.3,36.2,29.32,East,90,0.9,4.0,34,0.00,,---,0.00,VWS V14.01,2013-02-06 09:55:00,
2013-02-06 11:56:00,65.3,36.2,29.32,ENE,68,1.6,1.6,34,0.00,,---,0.00,VWS V14.01,2013-02-06 09:56:00,
2013-02-06 11:57:00,65.1,36.1,29.32,SSE,158,2.5,2.5,34,0.00,,---,0.00,VWS V14.01,2013-02-06 09:57:00,
2013-02-06 11:58:00,65.3,36.2,29.32,North,0,2.9,2.9,34,0.00,,---,0.00,VWS V14.01,2013-02-06 09:58:00,
2013-02-06 11:59:00,65.3,36.2,29.32,SSW,202,1.6,2.9,34,0.00,,---,0.00,VWS V14.01,2013-02-06 09:59:00,
2013-02-06 12:00:00,65.5,36.4,29.32,SE,135,1.1,1.6,34,0.00,,---,0.00,VWS V14.01,2013-02-06 10:00:00,
2013-02-06 12:01:00,65.7,37.3,29.32,SSW,202,2.0,2.0,35,0.00,,---,0.00,VWS V14.01,2013-02-06 10:01:00,
2013-02-06 12:02:00,65.7,36.6,29.32,SSE,158,2.0,2.0,34,0.00,,---,0.00,VWS V14.01,2013-02-06 10:02:00,
2013-02-06 12:04:00,65.8,36.7,29.32,SE,135,2.2,2.2,34,0.00,,---,0.00,VWS V14.01,2013-02-06 10:04:00,
2013-02-06 12:05:00,65.8,36.7,29.32,South,180,1.3,2.2,34,0.00,,---,0.00,VWS V14.01,2013-02-06 10:05:00,
2013-02-06 12:06:00,65.8,36.7,29.32,SSE,158,4.3,4.3,34,0.00,,---,0.00,VWS V14.01,2013-02-06 10:06:00,
2013-02-06 12:07:00,66.0,36.9,29.32,SSE,158,4.9,4.9,34,0.00,,---,0.00,VWS V14.01,2013-02-06 10:07:00,
2013-02-06 12:08:00,66.0,36.9,29.32,SSE,158,3.4,4.9,34,0.00,,---,0.00,VWS V14.01,2013-02-06 10:08:00,
2013-02-06 12:09:00,65.8,36.7,29.32,SE,135,1.3,3.4,34,0.00,,---,0.00,VWS V14.01,2013-02-06 10:09:00,
2013-02-06 12:10:00,65.8,36.7,29.32,East,90,2.0,2.0,34,0.00,,---,0.00,VWS V14.01,2013-02-06 10:10:00,
2013-02-06 12:11:00,65.8,36.7,29.32,South,180,2.0,2.0,34,0.00,,---,0.00,VWS V14.01,2013-02-06 10:11:00,
2013-02-06 12:12:00,65.8,36.7,29.32,WSW,248,2.5,2.5,34,0.00,,---,0.00,VWS V14.01,2013-02-06 10:12:00,
2013-02-06 12:13:00,65.5,36.4,29.32,NW,315,3.4,3.4,34,0.00,,---,0.00,VWS V14.01,2013-02-06 10:13:00,
2013-02-06 12:14:00,65.5,36.4,29.32,SSW,202,1.3,3.4,34,0.00,,---,0.00,VWS V14.01,2013-02-06 10:14:00,
2013-02-06 12:15:00,65.3,36.2,29.32,SE,135,1.6,1.6,34,0.00,,---,0.00,VWS V14.01,2013-02-06 10:15:00,
2013-02-06 12:16:00,65.5,36.4,29.32,South,180,3.8,3.8,34,0.00,,---,0.00,VWS V14.01,2013-02-06 10:16:00,
2013-02-06 12:17:00,65.5,36.4,29.32,SSE,158,2.2,3.8,34,0.00,,---,0.00,VWS V14.01,2013-02-06 10:17:00,
2013-02-06 12:18:00,65.8,36.7,29.32,SSE,158,4.3,4.3,34,0.00,,---,0.00,VWS V14.01,2013-02-06 10:18:00,
2013-02-06 12:19:00,65.8,36.7,29.32,SSW,202,5.4,5.4,34,0.00,,---,0.00,VWS V14.01,2013-02-06 10:19:00,
2013-02-06 12:20:00,65.7,36.6,29.32,SSW,202,3.4,5.4,34,0.00,,---,0.00,VWS V14.01,2013-02-06 10:20:00,
2013-02-06 12:21:00,65.8,36.7,29.32,East,90,2.7,3.4,34,0.00,,---,0.00,VWS V14.01,2013-02-06 10:21:00,
2013-02-06 12:22:00,65.7,36.6,29.29,NNW,338,2.5,2.7,34,0.00,,---,0.00,VWS V14.01,2013-02-06 10:22:00,
2013-02-06 12:23:00,65.3,36.2,29.29,SE,135,1.1,2.5,34,0.00,,---,0.00,VWS V14.01,2013-02-06 10:23:00,
2013-02-06 12:24:00,65.7,36.6,29.29,SE,135,0.0,1.1,34,0.00,,---,0.00,VWS V14.01,2013-02-06 10:24:00,
2013-02-06 12:25:00,66.0,36.9,29.29,SSE,158,0.0,0.0,34,0.00,,---,0.00,VWS V14.01,2013-02-06 10:25:00,
2013-02-06 12:26:00,66.0,36.9,29.29,NNW,338,2.0,2.0,34,0.00,,---,0.00,VWS V14.01,2013-02-06 10:26:00,
2013-02-06 12:27:00,66.0,36.9,29.29,East,90,2.5,2.5,34,0.00,,---,0.00,VWS V14.01,2013-02-06 10:27:00,
2013-02-06 12:29:00,66.0,36.9,29.29,SSE,158,2.9,2.9,34,0.00,,---,0.00,VWS V14.01,2013-02-06 10:29:00,
2013-02-06 12:30:00,66.0,36.9,29.29,SE,135,0.9,2.9,34,0.00,,---,0.00,VWS V14.01,2013-02-06 10:30:00,
2013-02-06 12:31:00,65.7,36.6,29.29,SW,225,1.1,1.1,34,0.00,,---,0.00,VWS V14.01,2013-02-06 10:31:00,
2013-02-06 12:32:00,65.8,36.7,29.29,South,180,0.0,1.1,34,0.00,,---,0.00,VWS V14.01,2013-02-06 10:32:00,
2013-02-06 12:33:00,65.7,36.6,29.29,East,90,2.0,2.0,34,0.00,,---,0.00,VWS V14.01,2013-02-06 10:33:00,
2013-02-06 12:34:00,65.8,36.7,29.29,West,270,2.0,2.0,34,0.00,,---,0.00,VWS V14.01,2013-02-06 10:34:00,
2013-02-06 12:35:00,65.7,36.6,29.29,West,270,3.1,3.1,34,0.00,,---,0.00,VWS V14.01,2013-02-06 10:35:00,
2013-02-06 12:36:00,66.0,36.9,29.29,NE,45,2.2,3.1,34,0.00,,---,0.00,VWS V14.01,2013-02-06 10:36:00,
2013-02-06 12:37:00,66.0,36.9,29.29,NNE,22,2.0,2.2,34,0.00,,---,0.00,VWS V14.01,2013-02-06 10:37:00,
2013-02-06 12:38:00,66.0,36.9,29.29,NW,315,1.3,2.0,34,0.00,,---,0.00,VWS V14.01,2013-02-06 10:38:00,
2013-02-06 12:39:00,66.0,36.9,29.29,South,180,1.1,1.3,34,0.00,,---,0.00,VWS V14.01,2013-02-06 10:39:00,
2013-02-06 12:40:00,65.8,36.7,29.29,SE,135,2.0,2.0,34,0.00,,---,0.00,VWS V14.01,2013-02-06 10:40:00,
2013-02-06 12:41:00,66.0,36.9,29.29,NNE,22,1.3,2.0,34,0.00,,---,0.00,VWS V14.01,2013-02-06 10:41:00,
2013-02-06 12:42:00,65.7,36.6,29.29,WNW,292,2.5,2.5,34,0.00,,---,0.00,VWS V14.01,2013-02-06 10:42:00,
2013-02-06 12:43:00,65.8,36.7,29.29,SSE,158,2.9,2.9,34,0.00,,---,0.00,VWS V14.01,2013-02-06 10:43:00,
2013-02-06 12:44:00,65.7,36.6,29.29,NNW,338,0.9,2.9,34,0.00,,---,0.00,VWS V14.01,2013-02-06 10:44:00,
2013-02-06 12:45:00,65.7,36.6,29.29,West,270,2.9,2.9,34,0.00,,---,0.00,VWS V14.01,2013-02-06 10:45:00,
2013-02-06 12:46:00,65.7,36.6,29.29,NW,315,2.0,2.9,34,0.00,,---,0.00,VWS V14.01,2013-02-06 10:46:00,
2013-02-06 12:47:00,65.7,36.6,29.29,WNW,292,1.3,2.0,34,0.00,,---,0.00,VWS V14.01,2013-02-06 10:47:00,
2013-02-06 12:48:00,65.5,36.4,29.29,SE,135,2.7,2.7,34,0.00,,---,0.00,VWS V14.01,2013-02-06 10:48:00,
2013-02-06 12:49:00,65.7,36.6,29.29,NE,45,1.6,2.7,34,0.00,,---,0.00,VWS V14.01,2013-02-06 10:49:00,
2013-02-06 12:50:00,65.7,36.6,29.29,East,90,2.5,2.5,34,0.00,,---,0.00,VWS V14.01,2013-02-06 10:50:00,
2013-02-06 12:51:00,65.8,36.7,29.29,East,90,2.7,2.7,34,0.00,,---,0.00,VWS V14.01,2013-02-06 10:51:00,
2013-02-06 12:52:00,65.7,36.6,29.29,SE,135,4.3,4.3,34,0.00,,---,0.00,VWS V14.01,2013-02-06 10:52:00,
2013-02-06 12:53:00,65.5,36.4,29.29,East,90,2.0,4.3,34,0.00,,---,0.00,VWS V14.01,2013-02-06 10:53:00,
2013-02-06 12:54:00,65.5,36.4,29.29,SSE,158,3.4,3.4,34,0.00,,---,0.00,VWS V14.01,2013-02-06 10:54:00,
2013-02-06 12:55:00,65.7,36.6,29.29,SSW,202,2.0,3.4,34,0.00,,---,0.00,VWS V14.01,2013-02-06 10:55:00,
2013-02-06 12:56:00,65.7,36.6,29.29,SW,225,2.7,2.7,34,0.00,,---,0.00,VWS V14.01,2013-02-06 10:56:00,
2013-02-06 12:57:00,65.5,36.4,29.29,WSW,248,1.6,2.7,34,0.00,,---,0.00,VWS V14.01,2013-02-06 10:57:00,
2013-02-06 12:58:00,65.7,36.6,29.29,SE,135,3.1,3.1,34,0.00,,---,0.00,VWS V14.01,2013-02-06 10:58:00,
2013-02-06 12:59:00,65.8,36.7,29.29,WNW,292,2.5,3.1,34,0.00,,---,0.00,VWS V14.01,2013-02-06 10:59:00,
2013-02-06 13:00:00,65.5,36.4,29.29,North,0,2.5,2.5,34,0.00,,---,0.00,VWS V14.01,2013-02-06 11:00:00,
2013-02-06 13:01:00,65.7,36.6,29.29,SE,135,2.7,2.7,34,0.00,,---,0.00,VWS V14.01,2013-02-06 11:01:00,
2013-02-06 13:02:00,65.8,36.7,29.29,NE,45,2.7,2.7,34,0.00,,---,0.00,VWS V14.01,2013-02-06 11:02:00,
2013-02-06 13:03:00,65.5,36.4,29.29,SSE,158,2.0,2.7,34,0.00,,---,0.00,VWS V14.01,2013-02-06 11:03:00,
2013-02-06 13:04:00,65.5,36.4,29.29,North,0,2.5,2.5,34,0.00,,---,0.00,VWS V14.01,2013-02-06 11:04:00,
2013-02-06 13:05:00,65.5,36.4,29.29,NNW,338,1.6,2.5,34,0.00,,---,0.00,VWS V14.01,2013-02-06 11:05:00,
2013-02-06 13:06:00,65.5,36.4,29.29,NNE,22,2.0,2.0,34,0.00,,---,0.00,VWS V14.01,2013-02-06 11:06:00,
2013-02-06 13:07:00,65.1,36.1,29.26,NE,45,2.7,2.7,34,0.00,,---,0.00,VWS V14.01,2013-02-06 11:07:00,
2013-02-06 13:08:00,64.9,35.9,29.26,North,0,2.7,2.7,34,0.00,,---,0.00,VWS V14.01,2013-02-06 11:08:00,
2013-02-06 13:09:00,64.4,35.5,29.26,East,90,2.7,2.7,34,0.00,,---,0.00,VWS V14.01,2013-02-06 11:09:00,
2013-02-06 13:10:00,64.4,35.5,29.26,SW,225,2.0,2.7,34,0.00,,---,0.00,VWS V14.01,2013-02-06 11:10:00,
2013-02-06 13:11:00,64.0,35.9,29.26,WNW,292,2.0,2.0,35,0.00,,---,0.00,VWS V14.01,2013-02-06 11:11:00,
2013-02-06 13:12:00,64.0,35.9,29.26,North,0,3.4,3.4,35,0.00,,---,0.00,VWS V14.01,2013-02-06 11:12:00,
2013-02-06 13:13:00,64.0,35.9,29.26,WSW,248,1.3,3.4,35,0.00,,---,0.00,VWS V14.01,2013-02-06 11:13:00,
2013-02-06 13:14:00,64.0,35.9,29.26,NNW,338,4.0,4.0,35,0.00,,---,0.00,VWS V14.01,2013-02-06 11:14:00,
2013-02-06 13:15:00,64.4,36.2,29.26,WNW,292,2.2,4.0,35,0.00,,---,0.00,VWS V14.01,2013-02-06 11:15:00,
2013-02-06 13:16:00,64.8,36.5,29.26,ESE,112,2.5,2.5,35,0.00,,---,0.00,VWS V14.01,2013-02-06 11:16:00,
2013-02-06 13:17:00,65.1,36.8,29.26,East,90,0.9,2.5,35,0.00,,---,0.00,VWS V14.01,2013-02-06 11:17:00,
2013-02-06 13:18:00,65.1,36.8,29.26,WNW,292,4.0,4.0,35,0.00,,---,0.00,VWS V14.01,2013-02-06 11:18:00,
2013-02-06 13:19:00,65.1,36.8,29.26,WSW,248,4.0,4.0,35,0.00,,---,0.00,VWS V14.01,2013-02-06 11:19:00,
2013-02-06 13:20:00,65.1,36.1,29.26,ENE,68,2.5,4.0,34,0.00,,---,0.00,VWS V14.01,2013-02-06 11:20:00,
2013-02-06 13:21:00,65.1,36.1,29.26,SSE,158,1.6,2.5,34,0.00,,---,0.00,VWS V14.01,2013-02-06 11:21:00,
2013-02-06 13:22:00,65.1,36.1,29.26,West,270,2.5,2.5,34,0.00,,---,0.00,VWS V14.01,2013-02-06 11:22:00,
2013-02-06 13:23:00,65.1,36.1,29.26,WSW,248,2.0,2.5,34,0.00,,---,0.00,VWS V14.01,2013-02-06 11:23:00,
2013-02-06 13:24:00,65.1,36.1,29.26,NE,45,2.5,2.5,34,0.00,,---,0.00,VWS V14.01,2013-02-06 11:24:00,
2013-02-06 13:25:00,65.3,36.2,29.26,ENE,68,0.9,2.5,34,0.00,,---,0.00,VWS V14.01,2013-02-06 11:25:00,
2013-02-06 13:26:00,65.1,36.1,29.26,South,180,0.9,0.9,34,0.00,,---,0.00,VWS V14.01,2013-02-06 11:26:00,
2013-02-06 13:27:00,65.1,36.1,29.26,South,180,3.4,3.4,34,0.00,,---,0.00,VWS V14.01,2013-02-06 11:27:00,
2013-02-06 13:28:00,65.1,36.1,29.26,ENE,68,1.6,3.4,34,0.00,,---,0.00,VWS V14.01,2013-02-06 11:28:00,
2013-02-06 13:29:00,64.8,35.8,29.26,West,270,4.3,4.3,34,0.00,,---,0.00,VWS V14.01,2013-02-06 11:29:00,
2013-02-06 13:30:00,64.4,35.5,29.26,WNW,292,4.0,4.3,34,0.00,,---,0.00,VWS V14.01,2013-02-06 11:30:00,
2013-02-06 13:31:00,64.0,35.1,29.26,SE,135,2.7,4.0,34,0.00,,---,0.00,VWS V14.01,2013-02-06 11:31:00,
2013-02-06 13:32:00,63.9,35.0,29.26,SE,135,3.4,3.4,34,0.00,,---,0.00,VWS V14.01,2013-02-06 11:32:00,
2013-02-06 13:33:00,63.9,35.0,29.26,South,180,3.4,3.4,34,0.00,,---,0.00,VWS V14.01,2013-02-06 11:33:00,
2013-02-06 13:34:00,63.5,34.7,29.26,ENE,68,2.0,3.4,34,0.00,,---,0.00,VWS V14.01,2013-02-06 11:34:00,
2013-02-06 13:35:00,63.1,34.3,29.26,SSE,158,1.3,2.0,34,0.00,,---,0.00,VWS V14.01,2013-02-06 11:35:00,
2013-02-06 13:36:00,63.1,34.3,29.26,SE,135,4.0,4.0,34,0.00,,---,0.00,VWS V14.01,2013-02-06 11:36:00,
2013-02-06 13:37:00,63.1,35.1,29.26,WNW,292,1.3,4.0,35,0.00,,---,0.00,VWS V14.01,2013-02-06 11:37:00,
2013-02-06 13:38:00,63.3,35.2,29.26,SE,135,2.5,2.5,35,0.00,,---,0.00,VWS V14.01,2013-02-06 11:38:00,
2013-02-06 13:39:00,63.3,35.2,29.26,ESE,112,1.3,2.5,35,0.00,,---,0.00,VWS V14.01,2013-02-06 11:39:00,
2013-02-06 13:40:00,63.7,35.5,29.26,NNW,338,1.1,1.3,35,0.00,,---,0.00,VWS V14.01,2013-02-06 11:40:00,
2013-02-06 13:41:00,63.5,35.4,29.26,NNW,338,1.6,1.6,35,0.00,,---,0.00,VWS V14.01,2013-02-06 11:41:00,
2013-02-06 13:42:00,63.7,35.5,29.26,West,270,0.9,1.6,35,0.00,,---,0.00,VWS V14.01,2013-02-06 11:42:00,
2013-02-06 13:43:00,63.9,35.7,29.26,South,180,1.6,1.6,35,0.00,,---,0.00,VWS V14.01,2013-02-06 11:43:00,
2013-02-06 13:44:00,63.9,35.7,29.26,SSW,202,1.1,1.6,35,0.00,,---,0.00,VWS V14.01,2013-02-06 11:44:00,
2013-02-06 13:45:00,63.7,35.5,29.26,ENE,68,1.3,1.3,35,0.00,,---,0.00,VWS V14.01,2013-02-06 11:45:00,
2013-02-06 13:46:00,63.7,35.5,29.26,NNW,338,2.7,2.7,35,0.00,,---,0.00,VWS V14.01,2013-02-06 11:46:00,
2013-02-06 13:47:00,63.5,35.4,29.26,South,180,0.9,2.7,35,0.00,,---,0.00,VWS V14.01,2013-02-06 11:47:00,
2013-02-06 13:48:00,63.3,35.2,29.26,SE,135,2.7,2.7,35,0.00,,---,0.00,VWS V14.01,2013-02-06 11:48:00,
2013-02-06 13:49:00,63.0,34.9,29.26,NW,315,1.3,2.7,35,0.00,,---,0.00,VWS V14.01,2013-02-06 11:49:00,
2013-02-06 13:50:00,63.0,34.9,29.26,West,270,1.6,1.6,35,0.00,,---,0.00,VWS V14.01,2013-02-06 11:50:00,
2013-02-06 13:51:00,63.0,34.9,29.26,SSE,158,1.3,1.6,35,0.00,,---,0.00,VWS V14.01,2013-02-06 11:51:00,
2013-02-06 13:52:00,63.3,35.2,29.26,SW,225,2.5,2.5,35,0.00,,---,0.00,VWS V14.01,2013-02-06 11:52:00,
2013-02-06 13:53:00,63.5,35.4,29.26,SSW,202,2.9,2.9,35,0.00,,---,0.00,VWS V14.01,2013-02-06 11:53:00,
2013-02-06 13:54:00,63.7,35.5,29.26,West,270,2.7,2.9,35,0.00,,---,0.00,VWS V14.01,2013-02-06 11:54:00,
2013-02-06 13:55:00,64.0,35.9,29.26,South,180,4.0,4.0,35,0.00,,---,0.00,VWS V14.01,2013-02-06 11:55:00,
2013-02-06 13:56:00,64.2,36.0,29.26,West,270,2.7,4.0,35,0.00,,---,0.00,VWS V14.01,2013-02-06 11:56:00,
2013-02-06 13:57:00,64.4,35.5,29.26,WSW,248,3.4,3.4,34,0.00,,---,0.00,VWS V14.01,2013-02-06 11:57:00,
2013-02-06 13:58:00,64.6,35.6,29.26,South,180,1.6,3.4,34,0.00,,---,0.00,VWS V14.01,2013-02-06 11:58:00,
2013-02-06 13:59:00,64.8,35.8,29.26,South,180,3.1,3.1,34,0.00,,---,0.00,VWS V14.01,2013-02-06 11:59:00,
2013-02-06 14:00:00,64.9,35.9,29.26,SE,135,1.3,3.1,34,0.00,,---,0.00,VWS V14.01,2013-02-06 12:00:00,
2013-02-06 14:01:00,65.1,36.1,29.26,SSE,158,3.4,3.4,34,0.00,,---,0.00,VWS V14.01,2013-02-06 12:01:00,
2013-02-06 14:02:00,65.3,36.2,29.26,SSE,158,3.6,3.6,34,0.00,,---,0.00,VWS V14.01,2013-02-06 12:02:00,
2013-02-06 14:03:00,65.5,35.6,29.26,South,180,4.3,4.3,33,0.00,,---,0.00,VWS V14.01,2013-02-06 12:03:00,
2013-02-06 14:04:00,65.3,35.5,29.26,SE,135,1.6,4.3,33,0.00,,---,0.00,VWS V14.01,2013-02-06 12:04:00,
2013-02-06 14:05:00,65.3,35.5,29.26,SSE,158,2.0,2.0,33,0.00,,---,0.00,VWS V14.01,2013-02-06 12:05:00,
2013-02-06 14:06:00,65.1,35.3,29.26,West,270,1.6,2.0,33,0.00,,---,0.00,VWS V14.01,2013-02-06 12:06:00,
2013-02-06 14:07:00,65.1,35.3,29.26,SW,225,3.4,3.4,33,0.00,,---,0.00,VWS V14.01,2013-02-06 12:07:00,
2013-02-06 14:08:00,64.9,35.2,29.26,SSE,158,2.9,3.4,33,0.00,,---,0.00,VWS V14.01,2013-02-06 12:08:00,
2013-02-06 14:09:00,64.9,35.2,29.26,East,90,1.3,2.9,33,0.00,,---,0.00,VWS V14.01,2013-02-06 12:09:00,
2013-02-06 14:10:00,65.1,35.3,29.26,SE,135,1.6,1.6,33,0.00,,---,0.00,VWS V14.01,2013-02-06 12:10:00,
2013-02-06 14:11:00,65.1,35.3,29.26,East,90,1.6,1.6,33,0.00,,---,0.00,VWS V14.01,2013-02-06 12:11:00,
2013-02-06 14:12:00,65.3,35.5,29.26,ENE,68,1.6,1.6,33,0.00,,---,0.00,VWS V14.01,2013-02-06 12:12:00,
2013-02-06 14:13:00,65.3,35.5,29.26,South,180,2.0,2.0,33,0.00,,---,0.00,VWS V14.01,2013-02-06 12:13:00,
2013-02-06 14:14:00,65.5,35.6,29.26,ESE,112,2.7,2.7,33,0.00,,---,0.00,VWS V14.01,2013-02-06 12:14:00,
2013-02-06 14:15:00,65.7,35.8,29.26,ESE,112,2.0,2.7,33,0.00,,---,0.00,VWS V14.01,2013-02-06 12:15:00,
2013-02-06 14:16:00,65.7,35.8,29.26,South,180,2.2,2.2,33,0.00,,---,0.00,VWS V14.01,2013-02-06 12:16:00,
2013-02-06 14:17:00,65.7,35.8,29.26,SE,135,2.7,2.7,33,0.00,,---,0.00,VWS V14.01,2013-02-06 12:17:00,
2013-02-06 14:18:00,65.8,36.0,29.26,SW,225,1.6,2.7,33,0.00,,---,0.00,VWS V14.01,2013-02-06 12:18:00,
2013-02-06 14:19:00,65.8,36.0,29.26,SE,135,2.5,2.5,33,0.00,,---,0.00,VWS V14.01,2013-02-06 12:19:00,
2013-02-06 14:20:00,65.8,36.0,29.26,ESE,112,0.0,2.5,33,0.00,,---,0.00,VWS V14.01,2013-02-06 12:20:00,
2013-02-06 14:21:00,65.8,36.0,29.26,ESE,112,0.9,0.9,33,0.00,,---,0.00,VWS V14.01,2013-02-06 12:21:00,
2013-02-06 14:22:00,65.8,36.0,29.26,NW,315,1.3,1.3,33,0.00,,---,0.00,VWS V14.01,2013-02-06 12:22:00,
2013-02-06 14:23:00,65.8,36.0,29.26,SSE,158,4.7,4.7,33,0.00,,---,0.00,VWS V14.01,2013-02-06 12:23:00,
2013-02-06 14:24:00,65.8,36.0,29.26,SSW,202,2.5,4.7,33,0.00,,---,0.00,VWS V14.01,2013-02-06 12:24:00,
2013-02-06 14:25:00,65.8,35.2,29.26,SSE,158,2.7,2.7,32,0.00,,---,0.00,VWS V14.01,2013-02-06 12:25:00,
2013-02-06 14:26:00,65.8,36.0,29.26,SE,135,3.6,3.6,33,0.00,,---,0.00,VWS V14.01,2013-02-06 12:26:00,
2013-02-06 14:27:00,65.8,35.2,29.26,South,180,1.6,3.6,32,0.00,,---,0.00,VWS V14.01,2013-02-06 12:27:00,
2013-02-06 14:28:00,65.8,35.2,29.26,SE,135,1.1,1.6,32,0.00,,---,0.00,VWS V14.01,2013-02-06 12:28:00,
2013-02-06 14:29:00,65.8,35.2,29.26,South,180,1.1,1.1,32,0.00,,---,0.00,VWS V14.01,2013-02-06 12:29:00,
2013-02-06 14:30:00,66.0,36.1,29.26,SE,135,3.1,3.1,33,0.00,,---,0.00,VWS V14.01,2013-02-06 12:30:00,
2013-02-06 14:31:00,65.8,35.2,29.26,SSW,202,2.9,3.1,32,0.00,,---,0.00,VWS V14.01,2013-02-06 12:31:00,
2013-02-06 14:32:00,65.7,35.0,29.26,NE,45,2.2,2.9,32,0.00,,---,0.00,VWS V14.01,2013-02-06 12:32:00,
2013-02-06 14:33:00,65.7,35.0,29.26,SW,225,1.6,2.2,32,0.00,,---,0.00,VWS V14.01,2013-02-06 12:33:00,
2013-02-06 14:34:00,65.1,33.8,29.26,West,270,1.3,1.6,31,0.00,,---,0.00,VWS V14.01,2013-02-06 12:34:00,
2013-02-06 14:35:00,65.1,34.6,29.26,West,270,0.9,1.3,32,0.00,,---,0.00,VWS V14.01,2013-02-06 12:35:00,
2013-02-06 14:36:00,65.3,33.9,29.26,ENE,68,2.7,2.7,31,0.00,,---,0.00,VWS V14.01,2013-02-06 12:36:00,
2013-02-06 14:37:00,65.3,33.9,29.26,SSE,158,1.6,2.7,31,0.00,,---,0.00,VWS V14.01,2013-02-06 12:37:00,
2013-02-06 14:38:00,65.5,34.1,29.26,ESE,112,2.0,2.0,31,0.00,,---,0.00,VWS V14.01,2013-02-06 12:38:00,
2013-02-06 14:39:00,65.5,34.1,29.26,North,0,2.7,2.7,31,0.00,,---,0.00,VWS V14.01,2013-02-06 12:39:00,
2013-02-06 14:40:00,65.5,34.1,29.26,ESE,112,3.1,3.1,31,0.00,,---,0.00,VWS V14.01,2013-02-06 12:40:00,
2013-02-06 14:41:00,65.1,33.8,29.26,East,90,0.0,3.1,31,0.00,,---,0.00,VWS V14.01,2013-02-06 12:41:00,
2013-02-06 14:42:00,64.8,33.5,29.26,SE,135,1.1,1.1,31,0.00,,---,0.00,VWS V14.01,2013-02-06 12:42:00,
2013-02-06 14:43:00,64.8,33.5,29.26,South,180,2.7,2.7,31,0.00,,---,0.00,VWS V14.01,2013-02-06 12:43:00,
2013-02-06 14:44:00,64.8,33.5,29.26,WNW,292,2.0,2.7,31,0.00,,---,0.00,VWS V14.01,2013-02-06 12:44:00,
2013-02-06 14:45:00,64.6,33.3,29.26,ENE,68,1.6,2.0,31,0.00,,---,0.00,VWS V14.01,2013-02-06 12:45:00,
2013-02-06 14:46:00,64.8,34.2,29.26,SSE,158,3.8,3.8,32,0.00,,---,0.00,VWS V14.01,2013-02-06 12:46:00,
2013-02-06 14:47:00,64.8,34.2,29.26,SSW,202,2.0,3.8,32,0.00,,---,0.00,VWS V14.01,2013-02-06 12:47:00,
2013-02-06 14:48:00,64.4,33.9,29.26,SSW,202,3.8,3.8,32,0.00,,---,0.00,VWS V14.01,2013-02-06 12:48:00,
2013-02-06 14:49:00,64.4,33.9,29.26,SE,135,3.4,3.8,32,0.00,,---,0.00,VWS V14.01,2013-02-06 12:49:00,
2013-02-06 14:50:00,64.8,35.0,29.26,SSE,158,4.7,4.7,33,0.00,,---,0.00,VWS V14.01,2013-02-06 12:50:00,
2013-02-06 14:51:00,64.8,35.0,29.26,North,0,3.8,4.7,33,0.00,,---,0.00,VWS V14.01,2013-02-06 12:51:00,
2013-02-06 14:52:00,64.4,34.7,29.26,NNE,22,2.5,3.8,33,0.00,,---,0.00,VWS V14.01,2013-02-06 12:52:00,
2013-02-06 14:53:00,64.4,34.7,29.26,NW,315,1.3,2.5,33,0.00,,---,0.00,VWS V14.01,2013-02-06 12:53:00,
2013-02-06 14:54:00,64.2,35.3,29.26,West,270,1.3,1.3,34,0.00,,---,0.00,VWS V14.01,2013-02-06 12:54:00,
2013-02-06 14:55:00,64.2,35.3,29.26,West,270,1.1,1.3,34,0.00,,---,0.00,VWS V14.01,2013-02-06 12:55:00,
2013-02-06 14:56:00,64.6,34.8,29.26,South,180,2.7,2.7,33,0.00,,---,0.00,VWS V14.01,2013-02-06 12:56:00,
2013-02-06 14:57:00,64.8,35.0,29.26,SE,135,2.5,2.7,33,0.00,,---,0.00,VWS V14.01,2013-02-06 12:57:00,
2013-02-06 14:58:00,64.8,35.0,29.26,SSE,158,3.4,3.4,33,0.00,,---,0.00,VWS V14.01,2013-02-06 12:58:00,
2013-02-06 14:59:00,64.8,35.0,29.26,SSE,158,1.6,3.4,33,0.00,,---,0.00,VWS V14.01,2013-02-06 12:59:00,
2013-02-06 15:00:00,64.6,34.8,29.26,WSW,248,1.6,1.6,33,0.00,,---,0.00,VWS V14.01,2013-02-06 13:00:00,
2013-02-06 15:01:00,64.2,35.3,29.26,ESE,112,3.6,3.6,34,0.00,,---,0.00,VWS V14.01,2013-02-06 13:01:00,
2013-02-06 15:02:00,64.2,35.3,29.26,South,180,2.5,3.6,34,0.00,,---,0.00,VWS V14.01,2013-02-06 13:02:00,
2013-02-06 15:03:00,64.0,35.1,29.26,ESE,112,3.6,3.6,34,0.00,,---,0.00,VWS V14.01,2013-02-06 13:03:00,
2013-02-06 15:04:00,64.0,35.1,29.26,NNW,338,2.2,3.6,34,0.00,,---,0.00,VWS V14.01,2013-02-06 13:04:00,
2013-02-06 15:05:00,63.9,35.0,29.26,North,0,2.7,2.7,34,0.00,,---,0.00,VWS V14.01,2013-02-06 13:05:00,
2013-02-06 15:06:00,63.9,35.0,29.26,East,90,1.6,2.7,34,0.00,,---,0.00,VWS V14.01,2013-02-06 13:06:00,
2013-02-06 15:07:00,63.9,35.0,29.26,SSW,202,2.0,2.0,34,0.00,,---,0.00,VWS V14.01,2013-02-06 13:07:00,
2013-02-06 15:08:00,63.9,35.0,29.26,SSE,158,2.5,2.5,34,0.00,,---,0.00,VWS V14.01,2013-02-06 13:08:00,
2013-02-06 15:09:00,64.4,35.5,29.26,SE,135,2.9,2.9,34,0.00,,---,0.00,VWS V14.01,2013-02-06 13:09:00,
2013-02-06 15:10:00,64.6,35.6,29.26,ENE,68,2.7,2.9,34,0.00,,---,0.00,VWS V14.01,2013-02-06 13:10:00,
2013-02-06 15:11:00,64.6,35.6,29.26,ESE,112,2.5,2.7,34,0.00,,---,0.00,VWS V14.01,2013-02-06 13:11:00,
2013-02-06 15:12:00,64.4,35.5,29.26,SSE,158,2.2,2.5,34,0.00,,---,0.00,VWS V14.01,2013-02-06 13:12:00,
2013-02-06 15:13:00,64.4,35.5,29.26,SSE,158,4.0,4.0,34,0.00,,---,0.00,VWS V14.01,2013-02-06 13:13:00,
2013-02-06 15:14:00,64.8,36.5,29.26,SSE,158,2.7,4.0,35,0.00,,---,0.00,VWS V14.01,2013-02-06 13:14:00,
2013-02-06 15:15:00,64.8,36.5,29.26,ESE,112,2.5,2.7,35,0.00,,---,0.00,VWS V14.01,2013-02-06 13:15:00,
2013-02-06 15:16:00,64.8,36.5,29.26,ESE,112,2.9,2.9,35,0.00,,---,0.00,VWS V14.01,2013-02-06 13:16:00,
2013-02-06 15:17:00,64.8,36.5,29.26,SE,135,1.3,2.9,35,0.00,,---,0.00,VWS V14.01,2013-02-06 13:17:00,
2013-02-06 15:18:00,64.8,36.5,29.26,NNW,338,2.9,2.9,35,0.00,,---,0.00,VWS V14.01,2013-02-06 13:18:00,
2013-02-06 15:19:00,64.8,36.5,29.26,WSW,248,1.3,2.9,35,0.00,,---,0.00,VWS V14.01,2013-02-06 13:19:00,
2013-02-06 15:20:00,64.4,36.2,29.26,NNW,338,1.3,1.3,35,0.00,,---,0.00,VWS V14.01,2013-02-06 13:20:00,
2013-02-06 15:21:00,64.6,36.3,29.26,SSE,158,2.9,2.9,35,0.00,,---,0.00,VWS V14.01,2013-02-06 13:21:00,
2013-02-06 15:22:00,64.4,35.5,29.23,NNW,338,2.7,2.9,34,0.00,,---,0.00,VWS V14.01,2013-02-06 13:22:00,
2013-02-06 15:23:00,64.4,35.5,29.23,WNW,292,2.5,2.7,34,0.00,,---,0.00,VWS V14.01,2013-02-06 13:23:00,
2013-02-06 15:24:00,64.4,35.5,29.23,WNW,292,2.0,2.5,34,0.00,,---,0.00,VWS V14.01,2013-02-06 13:24:00,
2013-02-06 15:25:00,64.4,36.2,29.23,WSW,248,2.5,2.5,35,0.00,,---,0.00,VWS V14.01,2013-02-06 13:25:00,
2013-02-06 15:26:00,64.4,36.2,29.23,WSW,248,2.9,2.9,35,0.00,,---,0.00,VWS V14.01,2013-02-06 13:26:00,
2013-02-06 15:27:00,64.4,36.2,29.23,SE,135,3.8,3.8,35,0.00,,---,0.00,VWS V14.01,2013-02-06 13:27:00,
2013-02-06 15:28:00,64.2,36.0,29.23,NNE,22,1.3,3.8,35,0.00,,---,0.00,VWS V14.01,2013-02-06 13:28:00,
2013-02-06 15:29:00,64.2,36.0,29.23,WSW,248,1.6,1.6,35,0.00,,---,0.00,VWS V14.01,2013-02-06 13:29:00,
2013-02-06 15:30:00,63.7,35.5,29.23,East,90,2.5,2.5,35,0.00,,---,0.00,VWS V14.01,2013-02-06 13:30:00,
2013-02-06 15:31:00,63.7,35.5,29.23,SSE,158,3.6,3.6,35,0.00,,---,0.00,VWS V14.01,2013-02-06 13:31:00,
2013-02-06 15:32:00,63.3,35.9,29.23,SSE,158,2.7,3.6,36,0.00,,---,0.00,VWS V14.01,2013-02-06 13:32:00,
2013-02-06 15:33:00,63.1,35.8,29.23,South,180,1.1,2.7,36,0.00,,---,0.00,VWS V14.01,2013-02-06 13:33:00,
2013-02-06 15:34:00,63.0,35.6,29.23,ENE,68,2.0,2.0,36,0.00,,---,0.00,VWS V14.01,2013-02-06 13:34:00,
2013-02-06 15:35:00,62.6,35.3,29.23,SSW,202,1.6,2.0,36,0.00,,---,0.00,VWS V14.01,2013-02-06 13:35:00,
2013-02-06 15:36:00,62.6,35.3,29.23,NNE,22,0.9,1.6,36,0.00,,---,0.00,VWS V14.01,2013-02-06 13:36:00,
2013-02-06 15:37:00,62.4,35.8,29.26,WSW,248,2.5,2.5,37,0.00,,---,0.00,VWS V14.01,2013-02-06 13:37:00,
2013-02-06 15:38:00,62.2,36.3,29.26,WSW,248,2.0,2.5,38,0.00,,---,0.00,VWS V14.01,2013-02-06 13:38:00,
2013-02-06 15:39:00,62.1,36.2,29.26,SSE,158,2.5,2.5,38,0.00,,---,0.00,VWS V14.01,2013-02-06 13:39:00,
2013-02-06 15:40:00,62.1,36.2,29.26,ESE,112,1.1,2.5,38,0.00,,---,0.00,VWS V14.01,2013-02-06 13:40:00,
2013-02-06 15:41:00,61.9,36.7,29.26,WNW,292,3.6,3.6,39,0.00,,---,0.00,VWS V14.01,2013-02-06 13:41:00,
2013-02-06 15:42:00,61.9,36.7,29.26,North,0,2.5,3.6,39,0.00,,---,0.00,VWS V14.01,2013-02-06 13:42:00,
2013-02-06 15:43:00,61.9,36.7,29.26,WNW,292,1.1,2.5,39,0.00,,---,0.00,VWS V14.01,2013-02-06 13:43:00,
2013-02-06 15:44:00,61.9,37.3,29.26,ESE,112,1.6,1.6,40,0.00,,---,0.00,VWS V14.01,2013-02-06 13:44:00,
2013-02-06 15:45:00,62.1,37.5,29.26,NNE,22,1.1,1.6,40,0.00,,---,0.00,VWS V14.01,2013-02-06 13:45:00,
2013-02-06 15:46:00,62.1,38.1,29.26,East,90,1.6,1.6,41,0.00,,---,0.00,VWS V14.01,2013-02-06 13:46:00,
2013-02-06 15:47:00,62.2,38.3,29.26,ESE,112,1.3,1.6,41,0.00,,---,0.00,VWS V14.01,2013-02-06 13:47:00,
2013-02-06 15:48:00,62.4,38.4,29.26,East,90,1.6,1.6,41,0.00,,---,0.00,VWS V14.01,2013-02-06 13:48:00,
2013-02-06 15:49:00,62.4,38.4,29.26,ENE,68,2.0,2.0,41,0.00,,---,0.00,VWS V14.01,2013-02-06 13:49:00,
2013-02-06 15:50:00,63.0,38.9,29.26,SSE,158,3.4,3.4,41,0.00,,---,0.00,VWS V14.01,2013-02-06 13:50:00,
2013-02-06 15:51:00,63.0,38.9,29.26,WSW,248,1.6,3.4,41,0.00,,---,0.00,VWS V14.01,2013-02-06 13:51:00,
2013-02-06 15:52:00,63.0,38.9,29.23,East,90,2.7,2.7,41,0.00,,---,0.00,VWS V14.01,2013-02-06 13:52:00,
2013-02-06 15:53:00,63.0,38.9,29.23,WNW,292,1.1,2.7,41,0.00,,---,0.00,VWS V14.01,2013-02-06 13:53:00,
2013-02-06 15:54:00,63.0,38.9,29.23,North,0,3.6,3.6,41,0.00,,---,0.00,VWS V14.01,2013-02-06 13:54:00,
2013-02-06 15:55:00,63.0,38.9,29.23,WNW,292,1.6,3.6,41,0.00,,---,0.00,VWS V14.01,2013-02-06 13:55:00,
2013-02-06 15:56:00,63.0,38.9,29.23,South,180,1.3,1.6,41,0.00,,---,0.00,VWS V14.01,2013-02-06 13:56:00,
2013-02-06 15:57:00,63.0,38.9,29.23,NNE,22,1.1,1.3,41,0.00,,---,0.00,VWS V14.01,2013-02-06 13:57:00,
2013-02-06 15:58:00,63.1,39.1,29.23,North,0,2.0,2.0,41,0.00,,---,0.00,VWS V14.01,2013-02-06 13:58:00,
2013-02-06 15:59:00,63.3,39.2,29.23,NNE,22,1.3,2.0,41,0.00,,---,0.00,VWS V14.01,2013-02-06 13:59:00,
2013-02-06 16:00:00,63.1,39.1,29.23,SW,225,5.4,5.4,41,0.00,,---,0.00,VWS V14.01,2013-02-06 14:00:00,
2013-02-06 16:01:00,63.0,38.9,29.23,ESE,112,3.1,5.4,41,0.00,,---,0.00,VWS V14.01,2013-02-06 14:01:00,
2013-02-06 16:02:00,63.0,38.9,29.23,ESE,112,2.2,3.1,41,0.00,,---,0.00,VWS V14.01,2013-02-06 14:02:00,
2013-02-06 16:03:00,63.0,38.9,29.23,East,90,1.6,2.2,41,0.00,,---,0.00,VWS V14.01,2013-02-06 14:03:00,
2013-02-06 16:04:00,63.0,38.9,29.23,WSW,248,3.4,3.4,41,0.00,,---,0.00,VWS V14.01,2013-02-06 14:04:00,
2013-02-06 16:05:00,63.0,38.9,29.23,North,0,2.5,3.4,41,0.00,,---,0.00,VWS V14.01,2013-02-06 14:05:00,
2013-02-06 16:06:00,63.0,38.9,29.23,South,180,2.0,2.5,41,0.00,,---,0.00,VWS V14.01,2013-02-06 14:06:00,
2013-02-06 16:07:00,63.0,38.9,29.23,NW,315,2.9,2.9,41,0.00,,---,0.00,VWS V14.01,2013-02-06 14:07:00,
2013-02-06 16:08:00,62.8,38.1,29.23,SSE,158,3.8,3.8,40,0.00,,---,0.00,VWS V14.01,2013-02-06 14:08:00,
2013-02-06 16:09:00,62.6,38.0,29.23,North,0,0.9,3.8,40,0.00,,---,0.00,VWS V14.01,2013-02-06 14:09:00,
2013-02-06 16:10:00,62.8,38.1,29.23,NE,45,1.6,1.6,40,0.00,,---,0.00,VWS V14.01,2013-02-06 14:10:00,
2013-02-06 16:11:00,62.6,38.0,29.23,NW,315,0.9,1.6,40,0.00,,---,0.00,VWS V14.01,2013-02-06 14:11:00,
2013-02-06 16:12:00,62.6,38.0,29.23,ESE,112,3.1,3.1,40,0.00,,---,0.00,VWS V14.01,2013-02-06 14:12:00,
2013-02-06 16:13:00,62.6,38.6,29.23,East,90,2.7,3.1,41,0.00,,---,0.00,VWS V14.01,2013-02-06 14:13:00,
2013-02-06 16:14:00,62.6,38.6,29.23,South,180,2.2,2.7,41,0.00,,---,0.00,VWS V14.01,2013-02-06 14:14:00,
2013-02-06 16:15:00,62.6,38.6,29.23,WNW,292,2.7,2.7,41,0.00,,---,0.00,VWS V14.01,2013-02-06 14:15:00,
2013-02-06 16:16:00,62.4,38.4,29.23,West,270,1.6,2.7,41,0.00,,---,0.00,VWS V14.01,2013-02-06 14:16:00,
2013-02-06 16:17:00,62.4,38.4,29.23,SE,135,2.7,2.7,41,0.00,,---,0.00,VWS V14.01,2013-02-06 14:17:00,
2013-02-06 16:18:00,62.4,38.4,29.23,SE,135,2.7,2.7,41,0.00,,---,0.00,VWS V14.01,2013-02-06 14:18:00,
2013-02-06 16:19:00,62.6,38.6,29.23,SSE,158,3.8,3.8,41,0.00,,---,0.00,VWS V14.01,2013-02-06 14:19:00,
2013-02-06 16:20:00,62.4,38.4,29.23,SSW,202,4.0,4.0,41,0.00,,---,0.00,VWS V14.01,2013-02-06 14:20:00,
2013-02-06 16:21:00,62.4,38.4,29.23,SE,135,1.3,4.0,41,0.00,,---,0.00,VWS V14.01,2013-02-06 14:21:00,
2013-02-06 16:22:00,62.4,38.4,29.23,WSW,248,2.5,2.5,41,0.00,,---,0.00,VWS V14.01,2013-02-06 14:22:00,
2013-02-06 16:23:00,62.4,38.4,29.23,NNW,338,2.2,2.5,41,0.00,,---,0.00,VWS V14.01,2013-02-06 14:23:00,
2013-02-06 16:24:00,62.4,38.4,29.23,NW,315,2.5,2.5,41,0.00,,---,0.00,VWS V14.01,2013-02-06 14:24:00,
2013-02-06 16:25:00,62.4,38.4,29.23,SSE,158,3.1,3.1,41,0.00,,---,0.00,VWS V14.01,2013-02-06 14:25:00,
2013-02-06 16:26:00,62.4,39.0,29.23,SW,225,2.9,3.1,42,0.00,,---,0.00,VWS V14.01,2013-02-06 14:26:00,
2013-02-06 16:27:00,62.4,39.0,29.23,East,90,1.1,2.9,42,0.00,,---,0.00,VWS V14.01,2013-02-06 14:27:00,
2013-02-06 16:28:00,62.6,39.2,29.23,NW,315,1.1,1.1,42,0.00,,---,0.00,VWS V14.01,2013-02-06 14:28:00,
2013-02-06 16:29:00,62.6,39.2,29.23,West,270,1.6,1.6,42,0.00,,---,0.00,VWS V14.01,2013-02-06 14:29:00,
2013-02-06 16:30:00,62.6,39.2,29.23,SW,225,1.1,1.6,42,0.00,,---,0.00,VWS V14.01,2013-02-06 14:30:00,
2013-02-06 16:31:00,62.6,39.2,29.23,ENE,68,1.6,1.6,42,0.00,,---,0.00,VWS V14.01,2013-02-06 14:31:00,
2013-02-06 16:32:00,62.6,39.2,29.23,NNW,338,2.5,2.5,42,0.00,,---,0.00,VWS V14.01,2013-02-06 14:32:00,
2013-02-06 16:33:00,62.6,39.8,29.23,WNW,292,5.8,5.8,43,0.00,,---,0.00,VWS V14.01,2013-02-06 14:33:00,
2013-02-06 16:34:00,62.2,39.5,29.23,East,90,2.7,5.8,43,0.00,,---,0.00,VWS V14.01,2013-02-06 14:34:00,
2013-02-06 16:35:00,62.2,39.5,29.23,West,270,1.6,2.7,43,0.00,,---,0.00,VWS V14.01,2013-02-06 14:35:00,
2013-02-06 16:36:00,62.1,39.3,29.23,SSE,158,2.5,2.5,43,0.00,,---,0.00,VWS V14.01,2013-02-06 14:36:00,
2013-02-06 16:37:00,62.1,39.3,29.23,South,180,1.1,2.5,43,0.00,,---,0.00,VWS V14.01,2013-02-06 14:37:00,
2013-02-06 16:38:00,62.1,39.9,29.23,SSW,202,2.0,2.0,44,0.00,,---,0.00,VWS V14.01,2013-02-06 14:38:00,
2013-02-06 16:39:00,62.1,39.9,29.23,ENE,68,2.9,2.9,44,0.00,,---,0.00,VWS V14.01,2013-02-06 14:39:00,
2013-02-06 16:40:00,62.1,39.9,29.23,North,0,2.7,2.9,44,0.00,,---,0.00,VWS V14.01,2013-02-06 14:40:00,
2013-02-06 16:41:00,62.1,39.9,29.23,NW,315,2.0,2.7,44,0.00,,---,0.00,VWS V14.01,2013-02-06 14:41:00,
2013-02-06 16:42:00,61.9,39.8,29.23,ESE,112,2.7,2.7,44,0.00,,---,0.00,VWS V14.01,2013-02-06 14:42:00,
2013-02-06 16:43:00,61.9,39.8,29.23,South,180,3.4,3.4,44,0.00,,---,0.00,VWS V14.01,2013-02-06 14:43:00,
2013-02-06 16:44:00,61.9,39.8,29.23,NNE,22,2.9,3.4,44,0.00,,---,0.00,VWS V14.01,2013-02-06 14:44:00,
2013-02-06 16:45:00,61.9,40.3,29.23,WSW,248,5.6,5.6,45,0.00,,---,0.00,VWS V14.01,2013-02-06 14:45:00,
2013-02-06 16:46:00,61.9,40.3,29.23,South,180,2.2,5.6,45,0.00,,---,0.00,VWS V14.01,2013-02-06 14:46:00,
2013-02-06 16:47:00,61.9,40.3,29.23,SE,135,1.1,2.2,45,0.00,,---,0.00,VWS V14.01,2013-02-06 14:47:00,
2013-02-06 16:48:00,61.9,40.3,29.23,East,90,3.1,3.1,45,0.00,,---,0.00,VWS V14.01,2013-02-06 14:48:00,
2013-02-06 16:49:00,61.9,40.3,29.23,North,0,2.0,3.1,45,0.00,,---,0.00,VWS V14.01,2013-02-06 14:49:00,
2013-02-06 16:50:00,61.7,40.2,29.23,ESE,112,1.3,2.0,45,0.00,,---,0.00,VWS V14.01,2013-02-06 14:50:00,
2013-02-06 16:51:00,61.7,40.2,29.23,SSW,202,2.0,2.0,45,0.00,,---,0.00,VWS V14.01,2013-02-06 14:51:00,
2013-02-06 16:52:00,61.5,40.0,29.26,South,180,3.4,3.4,45,0.00,,---,0.00,VWS V14.01,2013-02-06 14:52:00,
2013-02-06 16:53:00,61.3,39.8,29.26,ESE,112,3.8,3.8,45,0.00,,---,0.00,VWS V14.01,2013-02-06 14:53:00,
2013-02-06 16:54:00,61.5,40.0,29.26,South,180,6.0,6.0,45,0.00,,---,0.00,VWS V14.01,2013-02-06 14:54:00,
2013-02-06 16:55:00,61.3,39.8,29.26,ESE,112,5.8,6.0,45,0.00,,---,0.00,VWS V14.01,2013-02-06 14:55:00,
2013-02-06 16:56:00,61.3,39.8,29.26,SSE,158,2.9,5.8,45,0.00,,---,0.00,VWS V14.01,2013-02-06 14:56:00,
2013-02-06 16:57:00,61.3,39.8,29.26,SSE,158,5.6,5.6,45,0.00,,---,0.00,VWS V14.01,2013-02-06 14:57:00,
2013-02-06 16:58:00,61.3,39.8,29.26,South,180,4.9,5.6,45,0.00,,---,0.00,VWS V14.01,2013-02-06 14:58:00,
2013-02-06 16:59:00,61.0,39.5,29.26,SW,225,3.1,4.9,45,0.00,,---,0.00,VWS V14.01,2013-02-06 14:59:00,
2013-02-06 17:00:00,61.0,39.5,29.26,ESE,112,4.3,4.3,45,0.00,,---,0.00,VWS V14.01,2013-02-06 15:00:00,
2013-02-06 17:01:00,61.0,39.5,29.26,SSE,158,6.0,6.0,45,0.00,,---,0.00,VWS V14.01,2013-02-06 15:01:00,
2013-02-06 17:02:00,61.0,39.5,29.26,South,180,2.7,6.0,45,0.00,,---,0.00,VWS V14.01,2013-02-06 15:02:00,
2013-02-06 17:03:00,61.0,39.5,29.26,South,180,1.6,2.7,45,0.00,,---,0.00,VWS V14.01,2013-02-06 15:03:00,
2013-02-06 17:04:00,61.0,39.5,29.26,South,180,1.1,1.6,45,0.00,,---,0.00,VWS V14.01,2013-02-06 15:04:00,
2013-02-06 17:05:00,61.0,39.5,29.26,SSE,158,2.7,2.7,45,0.00,,---,0.00,VWS V14.01,2013-02-06 15:05:00,
2013-02-06 17:06:00,61.0,39.5,29.26,South,180,1.3,2.7,45,0.00,,---,0.00,VWS V14.01,2013-02-06 15:06:00,
2013-02-06 17:07:00,61.0,39.5,29.23,SSE,158,1.3,1.3,45,0.00,,---,0.00,VWS V14.01,2013-02-06 15:07:00,
2013-02-06 17:08:00,61.0,39.5,29.23,East,90,0.9,1.3,45,0.00,,---,0.00,VWS V14.01,2013-02-06 15:08:00,
2013-02-06 17:09:00,61.0,39.5,29.23,ESE,112,2.7,2.7,45,0.00,,---,0.00,VWS V14.01,2013-02-06 15:09:00,
2013-02-06 17:10:00,60.8,38.8,29.23,ESE,112,6.0,6.0,44,0.00,,---,0.00,VWS V14.01,2013-02-06 15:10:00,
2013-02-06 17:11:00,60.8,38.8,29.23,SSE,158,3.4,6.0,44,0.00,,---,0.00,VWS V14.01,2013-02-06 15:11:00,
2013-02-06 17:12:00,60.6,38.6,29.23,SSW,202,3.4,3.4,44,0.00,,---,0.00,VWS V14.01,2013-02-06 15:12:00,
2013-02-06 17:13:00,60.6,38.6,29.23,SSE,158,2.0,3.4,44,0.00,,---,0.00,VWS V14.01,2013-02-06 15:13:00,
2013-02-06 17:14:00,60.4,38.4,29.23,WNW,292,2.0,2.0,44,0.00,,---,0.00,VWS V14.01,2013-02-06 15:14:00,
2013-02-06 17:15:00,60.4,38.4,29.23,SSE,158,2.2,2.2,44,0.00,,---,0.00,VWS V14.01,2013-02-06 15:15:00,
2013-02-06 17:16:00,60.4,38.4,29.23,NNE,22,2.0,2.2,44,0.00,,---,0.00,VWS V14.01,2013-02-06 15:16:00,
2013-02-06 17:17:00,60.4,38.4,29.23,South,180,2.5,2.5,44,0.00,,---,0.00,VWS V14.01,2013-02-06 15:17:00,
2013-02-06 17:18:00,60.4,38.4,29.23,WSW,248,1.3,2.5,44,0.00,,---,0.00,VWS V14.01,2013-02-06 15:18:00,
2013-02-06 17:19:00,60.4,38.4,29.23,NNW,338,2.0,2.0,44,0.00,,---,0.00,VWS V14.01,2013-02-06 15:19:00,
2013-02-06 17:20:00,60.4,38.4,29.23,NNW,338,0.9,2.0,44,0.00,,---,0.00,VWS V14.01,2013-02-06 15:20:00,
2013-02-06 17:21:00,60.4,37.9,29.23,SSW,202,2.0,2.0,43,0.00,,---,0.00,VWS V14.01,2013-02-06 15:21:00,
2013-02-06 17:22:00,60.4,37.9,29.23,WNW,292,2.0,2.0,43,0.00,,---,0.00,VWS V14.01,2013-02-06 15:22:00,
2013-02-06 17:23:00,60.4,37.9,29.23,North,0,1.3,2.0,43,0.00,,---,0.00,VWS V14.01,2013-02-06 15:23:00,
2013-02-06 17:24:00,60.4,37.9,29.23,SE,135,2.7,2.7,43,0.00,,---,0.00,VWS V14.01,2013-02-06 15:24:00,
2013-02-06 17:25:00,60.3,37.7,29.23,NNW,338,3.1,3.1,43,0.00,,---,0.00,VWS V14.01,2013-02-06 15:25:00,
2013-02-06 17:26:00,60.3,37.7,29.23,South,180,3.1,3.1,43,0.00,,---,0.00,VWS V14.01,2013-02-06 15:26:00,
2013-02-06 17:27:00,60.3,37.7,29.23,SSE,158,2.5,3.1,43,0.00,,---,0.00,VWS V14.01,2013-02-06 15:27:00,
2013-02-06 17:28:00,60.1,37.5,29.23,SW,225,2.7,2.7,43,0.00,,---,0.00,VWS V14.01,2013-02-06 15:28:00,
2013-02-06 17:29:00,60.1,37.5,29.23,SSE,158,1.1,2.7,43,0.00,,---,0.00,VWS V14.01,2013-02-06 15:29:00,
2013-02-06 17:30:00,60.1,37.5,29.23,SE,135,1.3,1.3,43,0.00,,---,0.00,VWS V14.01,2013-02-06 15:30:00,
2013-02-06 17:31:00,60.1,37.5,29.23,SSE,158,0.9,1.3,43,0.00,,---,0.00,VWS V14.01,2013-02-06 15:31:00,
2013-02-06 17:32:00,60.1,37.5,29.23,SSE,158,0.0,0.9,43,0.00,,---,0.00,VWS V14.01,2013-02-06 15:32:00,
2013-02-06 17:33:00,60.1,37.5,29.23,ESE,112,1.3,1.3,43,0.00,,---,0.00,VWS V14.01,2013-02-06 15:33:00,
2013-02-06 17:34:00,60.1,37.5,29.23,SSW,202,2.0,2.0,43,0.00,,---,0.00,VWS V14.01,2013-02-06 15:34:00,
2013-02-06 17:35:00,60.1,37.5,29.23,NW,315,3.8,3.8,43,0.00,,---,0.00,VWS V14.01,2013-02-06 15:35:00,
2013-02-06 17:36:00,59.9,37.4,29.23,West,270,0.0,3.8,43,0.00,,---,0.00,VWS V14.01,2013-02-06 15:36:00,
2013-02-06 17:37:00,59.9,37.4,29.23,SE,135,1.3,1.3,43,0.00,,---,0.00,VWS V14.01,2013-02-06 15:37:00,
2013-02-06 17:38:00,59.9,37.4,29.23,ESE,112,2.2,2.2,43,0.00,,---,0.00,VWS V14.01,2013-02-06 15:38:00,
2013-02-06 17:39:00,59.9,37.4,29.23,East,90,1.1,2.2,43,0.00,,---,0.00,VWS V14.01,2013-02-06 15:39:00,
2013-02-06 17:40:00,59.9,37.4,29.23,South,180,1.6,1.6,43,0.00,,---,0.00,VWS V14.01,2013-02-06 15:40:00,
2013-02-06 17:41:00,59.7,37.2,29.23,West,270,3.4,3.4,43,0.00,,---,0.00,VWS V14.01,2013-02-06 15:41:00,
2013-02-06 17:42:00,59.7,37.2,29.23,NW,315,2.2,3.4,43,0.00,,---,0.00,VWS V14.01,2013-02-06 15:42:00,
2013-02-06 17:43:00,59.7,37.2,29.23,NNW,338,1.3,2.2,43,0.00,,---,0.00,VWS V14.01,2013-02-06 15:43:00,
2013-02-06 17:44:00,59.7,36.6,29.23,South,180,1.6,1.6,42,0.00,,---,0.00,VWS V14.01,2013-02-06 15:44:00,
2013-02-06 17:45:00,59.7,36.6,29.23,NW,315,2.5,2.5,42,0.00,,---,0.00,VWS V14.01,2013-02-06 15:45:00,
2013-02-06 17:46:00,59.7,36.6,29.23,WNW,292,1.3,2.5,42,0.00,,---,0.00,VWS V14.01,2013-02-06 15:46:00,
2013-02-06 17:47:00,59.5,36.5,29.23,NNW,338,1.3,1.3,42,0.00,,---,0.00,VWS V14.01,2013-02-06 15:47:00,
2013-02-06 17:48:00,59.5,36.5,29.23,SSE,158,2.0,2.0,42,0.00,,---,0.00,VWS V14.01,2013-02-06 15:48:00,
2013-02-06 17:49:00,59.5,36.5,29.23,NNE,22,1.1,2.0,42,0.00,,---,0.00,VWS V14.01,2013-02-06 15:49:00,
2013-02-06 17:50:00,59.5,36.5,29.23,WNW,292,1.6,1.6,42,0.00,,---,0.00,VWS V14.01,2013-02-06 15:50:00,
2013-02-06 17:51:00,59.5,36.5,29.23,South,180,1.6,1.6,42,0.00,,---,0.00,VWS V14.01,2013-02-06 15:51:00,
2013-02-06 17:52:00,59.4,36.3,29.23,SSE,158,2.9,2.9,42,0.00,,---,0.00,VWS V14.01,2013-02-06 15:52:00,
2013-02-06 17:53:00,59.4,36.3,29.23,West,270,1.6,2.9,42,0.00,,---,0.00,VWS V14.01,2013-02-06 15:53:00,
2013-02-06 17:54:00,59.4,36.3,29.23,NW,315,2.7,2.7,42,0.00,,---,0.00,VWS V14.01,2013-02-06 15:54:00,
2013-02-06 17:55:00,59.4,36.3,29.23,SW,225,1.1,2.7,42,0.00,,---,0.00,VWS V14.01,2013-02-06 15:55:00,
2013-02-06 17:56:00,59.4,36.3,29.23,NNW,338,2.7,2.7,42,0.00,,---,0.00,VWS V14.01,2013-02-06 15:56:00,
2013-02-06 17:57:00,59.4,36.3,29.23,ENE,68,2.0,2.7,42,0.00,,---,0.00,VWS V14.01,2013-02-06 15:57:00,
2013-02-06 17:58:00,59.4,36.3,29.23,ESE,112,1.3,2.0,42,0.00,,---,0.00,VWS V14.01,2013-02-06 15:58:00,
2013-02-06 17:59:00,59.4,36.3,29.23,ENE,68,1.1,1.3,42,0.00,,---,0.00,VWS V14.01,2013-02-06 15:59:00,
2013-02-06 18:00:00,59.2,36.1,29.23,NNE,22,0.9,1.1,42,0.00,,---,0.00,VWS V14.01,2013-02-06 16:00:00,
2013-02-06 18:01:00,59.2,36.1,29.23,North,0,0.0,0.9,42,0.00,,---,0.00,VWS V14.01,2013-02-06 16:01:00,
2013-02-06 18:02:00,59.2,36.1,29.23,NNW,338,0.9,0.9,42,0.00,,---,0.00,VWS V14.01,2013-02-06 16:02:00,
2013-02-06 18:03:00,59.2,36.1,29.23,NNE,22,2.2,2.2,42,0.00,,---,0.00,VWS V14.01,2013-02-06 16:03:00,
2013-02-06 18:04:00,59.2,36.1,29.23,WNW,292,1.3,2.2,42,0.00,,---,0.00,VWS V14.01,2013-02-06 16:04:00,
2013-02-06 18:05:00,59.2,36.7,29.23,WNW,292,1.6,1.6,43,0.00,,---,0.00,VWS V14.01,2013-02-06 16:05:00,
2013-02-06 18:06:00,59.2,36.7,29.23,WSW,248,1.1,1.6,43,0.00,,---,0.00,VWS V14.01,2013-02-06 16:06:00,
2013-02-06 18:07:00,59.2,36.7,29.20,SSW,202,1.3,1.3,43,0.00,,---,0.00,VWS V14.01,2013-02-06 16:07:00,
2013-02-06 18:08:00,59.2,36.7,29.20,SW,225,1.1,1.3,43,0.00,,---,0.00,VWS V14.01,2013-02-06 16:08:00,
2013-02-06 18:09:00,59.2,36.7,29.20,NNW,338,1.6,1.6,43,0.00,,---,0.00,VWS V14.01,2013-02-06 16:09:00,
2013-02-06 18:10:00,59.2,36.7,29.20,NW,315,2.5,2.5,43,0.00,,---,0.00,VWS V14.01,2013-02-06 16:10:00,
2013-02-06 18:11:00,59.2,36.7,29.20,SSW,202,1.6,2.5,43,0.00,,---,0.00,VWS V14.01,2013-02-06 16:11:00,
2013-02-06 18:12:00,59.2,36.7,29.20,WNW,292,1.6,1.6,43,0.00,,---,0.00,VWS V14.01,2013-02-06 16:12:00,
2013-02-06 18:13:00,59.0,36.6,29.20,NW,315,3.8,3.8,43,0.00,,---,0.00,VWS V14.01,2013-02-06 16:13:00,
2013-02-06 18:14:00,59.0,37.1,29.20,NNW,338,1.3,3.8,44,0.00,,---,0.00,VWS V14.01,2013-02-06 16:14:00,
2013-02-06 18:15:00,59.0,37.1,29.20,NNW,338,1.3,1.3,44,0.00,,---,0.00,VWS V14.01,2013-02-06 16:15:00,
2013-02-06 18:16:00,59.0,37.1,29.20,NNW,338,2.2,2.2,44,0.00,,---,0.00,VWS V14.01,2013-02-06 16:16:00,
2013-02-06 18:17:00,59.0,37.1,29.20,North,0,1.6,2.2,44,0.00,,---,0.00,VWS V14.01,2013-02-06 16:17:00,
2013-02-06 18:18:00,59.0,37.1,29.20,North,0,1.6,1.6,44,0.00,,---,0.00,VWS V14.01,2013-02-06 16:18:00,
2013-02-06 18:19:00,59.0,37.7,29.20,WNW,292,1.6,1.6,45,0.00,,---,0.00,VWS V14.01,2013-02-06 16:19:00,
2013-02-06 18:20:00,59.0,37.7,29.20,WSW,248,0.9,1.6,45,0.00,,---,0.00,VWS V14.01,2013-02-06 16:20:00,
2013-02-06 18:21:00,59.0,37.7,29.20,NW,315,0.9,0.9,45,0.00,,---,0.00,VWS V14.01,2013-02-06 16:21:00,
2013-02-06 18:22:00,58.8,37.5,29.23,NW,315,0.0,0.9,45,0.00,,---,0.00,VWS V14.01,2013-02-06 16:22:00,
2013-02-06 18:23:00,59.0,37.7,29.23,NNW,338,1.6,1.6,45,0.00,,---,0.00,VWS V14.01,2013-02-06 16:23:00,
2013-02-06 18:24:00,58.8,37.5,29.23,North,0,1.3,1.6,45,0.00,,---,0.00,VWS V14.01,2013-02-06 16:24:00,
2013-02-06 18:25:00,58.8,37.5,29.23,NNW,338,2.0,2.0,45,0.00,,---,0.00,VWS V14.01,2013-02-06 16:25:00,
2013-02-06 18:26:00,58.8,38.1,29.23,NNW,338,1.1,2.0,46,0.00,,---,0.00,VWS V14.01,2013-02-06 16:26:00,
2013-02-06 18:27:00,58.8,38.1,29.23,NNW,338,2.0,2.0,46,0.00,,---,0.00,VWS V14.01,2013-02-06 16:27:00,
2013-02-06 18:28:00,58.8,38.1,29.23,North,0,0.0,2.0,46,0.00,,---,0.00,VWS V14.01,2013-02-06 16:28:00,
2013-02-06 18:29:00,58.8,38.1,29.23,North,0,1.1,1.1,46,0.00,,---,0.00,VWS V14.01,2013-02-06 16:29:00,
2013-02-06 18:30:00,58.8,38.1,29.23,NNW,338,2.0,2.0,46,0.00,,---,0.00,VWS V14.01,2013-02-06 16:30:00,
2013-02-06 18:31:00,58.8,38.1,29.23,NNW,338,1.1,2.0,46,0.00,,---,0.00,VWS V14.01,2013-02-06 16:31:00,
2013-02-06 18:32:00,58.8,38.1,29.23,West,270,1.1,1.1,46,0.00,,---,0.00,VWS V14.01,2013-02-06 16:32:00,
2013-02-06 18:33:00,58.8,38.1,29.23,NW,315,1.1,1.1,46,0.00,,---,0.00,VWS V14.01,2013-02-06 16:33:00,
2013-02-06 18:34:00,58.8,38.1,29.23,NNW,338,2.2,2.2,46,0.00,,---,0.00,VWS V14.01,2013-02-06 16:34:00,
2013-02-06 18:35:00,58.8,38.1,29.23,NNW,338,1.6,2.2,46,0.00,,---,0.00,VWS V14.01,2013-02-06 16:35:00,
2013-02-06 18:36:00,58.8,38.1,29.23,SW,225,2.0,2.0,46,0.00,,---,0.00,VWS V14.01,2013-02-06 16:36:00,
2013-02-06 18:37:00,58.8,38.1,29.20,ESE,112,2.2,2.2,46,0.00,,---,0.00,VWS V14.01,2013-02-06 16:37:00,
2013-02-06 18:38:00,58.8,38.1,29.20,ESE,112,1.6,2.2,46,0.00,,---,0.00,VWS V14.01,2013-02-06 16:38:00,
2013-02-06 18:39:00,58.6,37.9,29.20,North,0,1.6,1.6,46,0.00,,---,0.00,VWS V14.01,2013-02-06 16:39:00,
2013-02-06 18:40:00,58.8,38.7,29.20,NNW,338,2.0,2.0,47,0.00,,---,0.00,VWS V14.01,2013-02-06 16:40:00,
2013-02-06 18:41:00,58.8,38.7,29.20,NNW,338,2.2,2.2,47,0.00,,---,0.00,VWS V14.01,2013-02-06 16:41:00,
2013-02-06 18:42:00,58.6,38.5,29.20,NNW,338,2.9,2.9,47,0.00,,---,0.00,VWS V14.01,2013-02-06 16:42:00,
2013-02-06 18:43:00,58.6,38.5,29.20,NNW,338,1.3,2.9,47,0.00,,---,0.00,VWS V14.01,2013-02-06 16:43:00,
2013-02-06 18:44:00,58.6,38.5,29.20,NNW,338,2.2,2.2,47,0.00,,---,0.00,VWS V14.01,2013-02-06 16:44:00,
2013-02-06 18:45:00,58.6,38.5,29.20,NNW,338,1.1,2.2,47,0.00,,---,0.00,VWS V14.01,2013-02-06 16:45:00,
2013-02-06 18:46:00,58.6,38.5,29.20,North,0,2.5,2.5,47,0.00,,---,0.00,VWS V14.01,2013-02-06 16:46:00,
2013-02-06 18:47:00,58.6,38.5,29.20,NNW,338,2.5,2.5,47,0.00,,---,0.00,VWS V14.01,2013-02-06 16:47:00,
2013-02-06 18:48:00,58.6,38.5,29.20,NNW,338,2.2,2.5,47,0.00,,---,0.00,VWS V14.01,2013-02-06 16:48:00,
2013-02-06 18:49:00,58.6,38.5,29.20,NNW,338,1.3,2.2,47,0.00,,---,0.00,VWS V14.01,2013-02-06 16:49:00,
2013-02-06 18:50:00,58.6,38.5,29.20,North,0,1.6,1.6,47,0.00,,---,0.00,VWS V14.01,2013-02-06 16:50:00,
2013-02-06 18:51:00,58.6,38.5,29.20,NNW,338,1.6,1.6,47,0.00,,---,0.00,VWS V14.01,2013-02-06 16:51:00,
2013-02-06 18:53:00,58.6,38.5,29.23,NNW,338,2.0,2.2,47,0.00,,---,0.00,VWS V14.01,2013-02-06 16:53:00,
2013-02-06 18:54:00,58.6,39.0,29.23,North,0,2.9,2.9,48,0.00,,---,0.00,VWS V14.01,2013-02-06 16:54:00,
2013-02-06 18:55:00,58.6,39.0,29.23,North,0,2.5,2.9,48,0.00,,---,0.00,VWS V14.01,2013-02-06 16:55:00,
2013-02-06 18:56:00,58.6,39.0,29.23,North,0,2.5,2.5,48,0.00,,---,0.00,VWS V14.01,2013-02-06 16:56:00,
2013-02-06 18:57:00,58.6,39.0,29.23,NNW,338,1.1,2.5,48,0.00,,---,0.00,VWS V14.01,2013-02-06 16:57:00,
2013-02-06 18:58:00,58.6,39.0,29.23,North,0,2.7,2.7,48,0.00,,---,0.00,VWS V14.01,2013-02-06 16:58:00,
2013-02-06 18:59:00,58.5,38.9,29.23,North,0,2.5,2.7,48,0.00,,---,0.00,VWS V14.01,2013-02-06 16:59:00,
2013-02-06 19:00:00,58.5,38.9,29.23,NNW,338,3.8,3.8,48,0.00,,---,0.00,VWS V14.01,2013-02-06 17:00:00,
2013-02-06 19:01:00,58.5,38.9,29.23,North,0,1.6,3.8,48,0.00,,---,0.00,VWS V14.01,2013-02-06 17:01:00,
2013-02-06 19:02:00,58.5,38.9,29.23,North,0,2.7,2.7,48,0.00,,---,0.00,VWS V14.01,2013-02-06 17:02:00,
2013-02-06 19:03:00,58.5,38.9,29.23,NNW,338,1.3,2.7,48,0.00,,---,0.00,VWS V14.01,2013-02-06 17:03:00,
2013-02-06 19:04:00,58.5,38.9,29.23,South,180,2.0,2.0,48,0.00,,---,0.00,VWS V14.01,2013-02-06 17:04:00,
2013-02-06 19:05:00,58.5,38.9,29.23,ESE,112,1.6,2.0,48,0.00,,---,0.00,VWS V14.01,2013-02-06 17:05:00,
2013-02-06 19:06:00,58.5,38.9,29.23,NNE,22,1.3,1.6,48,0.00,,---,0.00,VWS V14.01,2013-02-06 17:06:00,
2013-02-06 19:07:00,58.5,38.9,29.23,North,0,1.1,1.3,48,0.00,,---,0.00,VWS V14.01,2013-02-06 17:07:00,
2013-02-06 19:08:00,58.5,38.9,29.23,North,0,1.1,1.1,48,0.00,,---,0.00,VWS V14.01,2013-02-06 17:08:00,
2013-02-06 19:09:00,58.5,38.9,29.23,NNE,22,1.6,1.6,48,0.00,,---,0.00,VWS V14.01,2013-02-06 17:09:00,
2013-02-06 19:10:00,58.5,38.9,29.23,NNE,22,0.0,1.6,48,0.00,,---,0.00,VWS V14.01,2013-02-06 17:10:00,
2013-02-06 19:11:00,58.5,38.9,29.23,NW,315,1.3,1.3,48,0.00,,---,0.00,VWS V14.01,2013-02-06 17:11:00,
2013-02-06 19:12:00,58.5,38.9,29.23,NW,315,1.1,1.3,48,0.00,,---,0.00,VWS V14.01,2013-02-06 17:12:00,
2013-02-06 19:13:00,58.5,38.3,29.23,WSW,248,2.0,2.0,47,0.00,,---,0.00,VWS V14.01,2013-02-06 17:13:00,
2013-02-06 19:14:00,58.5,38.3,29.23,SSE,158,0.0,2.0,47,0.00,,---,0.00,VWS V14.01,2013-02-06 17:14:00,
2013-02-06 19:15:00,58.5,38.3,29.23,SE,135,0.0,0.0,47,0.00,,---,0.00,VWS V14.01,2013-02-06 17:15:00,
2013-02-06 19:16:00,58.5,38.3,29.23,West,270,1.1,1.1,47,0.00,,---,0.00,VWS V14.01,2013-02-06 17:16:00,
2013-02-06 19:17:00,58.5,38.3,29.23,South,180,1.3,1.3,47,0.00,,---,0.00,VWS V14.01,2013-02-06 17:17:00,
2013-02-06 19:18:00,58.5,38.3,29.23,South,180,2.2,2.2,47,0.00,,---,0.00,VWS V14.01,2013-02-06 17:18:00,
2013-02-06 19:19:00,58.5,38.3,29.23,South,180,1.6,2.2,47,0.00,,---,0.00,VWS V14.01,2013-02-06 17:19:00,
2013-02-06 19:20:00,58.5,38.3,29.23,ESE,112,2.7,2.7,47,0.00,,---,0.00,VWS V14.01,2013-02-06 17:20:00,
2013-02-06 19:21:00,58.5,38.3,29.23,East,90,1.3,2.7,47,0.00,,---,0.00,VWS V14.01,2013-02-06 17:21:00,
2013-02-06 19:22:00,58.5,38.3,29.23,WNW,292,2.0,2.0,47,0.00,,---,0.00,VWS V14.01,2013-02-06 17:22:00,
2013-02-06 19:23:00,58.5,38.3,29.23,SE,135,2.7,2.7,47,0.00,,---,0.00,VWS V14.01,2013-02-06 17:23:00,
2013-02-06 19:24:00,58.5,38.3,29.23,SW,225,3.1,3.1,47,0.00,,---,0.00,VWS V14.01,2013-02-06 17:24:00,
2013-02-06 19:25:00,58.5,38.3,29.23,WNW,292,1.1,3.1,47,0.00,,---,0.00,VWS V14.01,2013-02-06 17:25:00,
2013-02-06 19:26:00,58.5,38.3,29.23,WSW,248,0.0,1.1,47,0.00,,---,0.00,VWS V14.01,2013-02-06 17:26:00,
2013-02-06 19:27:00,58.5,38.3,29.23,South,180,2.2,2.2,47,0.00,,---,0.00,VWS V14.01,2013-02-06 17:27:00,
2013-02-06 19:28:00,58.5,38.3,29.23,WSW,248,0.0,2.2,47,0.00,,---,0.00,VWS V14.01,2013-02-06 17:28:00,
2013-02-06 19:29:00,58.5,38.3,29.23,WSW,248,1.6,1.6,47,0.00,,---,0.00,VWS V14.01,2013-02-06 17:29:00,
2013-02-06 19:30:00,58.5,38.9,29.23,SW,225,0.0,1.6,48,0.00,,---,0.00,VWS V14.01,2013-02-06 17:30:00,
2013-02-06 19:31:00,58.5,38.9,29.23,SW,225,1.3,1.3,48,0.00,,---,0.00,VWS V14.01,2013-02-06 17:31:00,
2013-02-06 19:32:00,58.5,38.9,29.23,NNW,338,1.1,1.3,48,0.00,,---,0.00,VWS V14.01,2013-02-06 17:32:00,
2013-02-06 19:33:00,58.5,38.9,29.23,SSW,202,3.4,3.4,48,0.00,,---,0.00,VWS V14.01,2013-02-06 17:33:00,
2013-02-06 19:34:00,58.5,38.9,29.23,South,180,2.5,3.4,48,0.00,,---,0.00,VWS V14.01,2013-02-06 17:34:00,
2013-02-06 19:35:00,58.3,38.7,29.23,SSE,158,2.2,2.5,48,0.00,,---,0.00,VWS V14.01,2013-02-06 17:35:00,
2013-02-06 19:36:00,58.3,38.7,29.23,ESE,112,1.6,2.2,48,0.00,,---,0.00,VWS V14.01,2013-02-06 17:36:00,
2013-02-06 19:37:00,58.3,38.7,29.26,SSE,158,0.9,1.6,48,0.00,,---,0.00,VWS V14.01,2013-02-06 17:37:00,
2013-02-06 19:38:00,58.3,39.2,29.26,SE,135,1.3,1.3,49,0.00,,---,0.00,VWS V14.01,2013-02-06 17:38:00,
2013-02-06 19:39:00,58.3,39.2,29.26,SE,135,0.9,1.3,49,0.00,,---,0.00,VWS V14.01,2013-02-06 17:39:00,
2013-02-06 19:40:00,58.5,39.4,29.26,NE,45,3.4,3.4,49,0.00,,---,0.00,VWS V14.01,2013-02-06 17:40:00,
2013-02-06 19:41:00,58.5,39.9,29.26,NW,315,2.9,3.4,50,0.00,,---,0.00,VWS V14.01,2013-02-06 17:41:00,
2013-02-06 19:42:00,58.5,39.9,29.26,NNE,22,1.1,2.9,50,0.00,,---,0.00,VWS V14.01,2013-02-06 17:42:00,
2013-02-06 19:43:00,58.5,39.9,29.26,SSE,158,2.0,2.0,50,0.00,,---,0.00,VWS V14.01,2013-02-06 17:43:00,
2013-02-06 19:44:00,58.5,39.9,29.26,NNW,338,1.3,2.0,50,0.00,,---,0.00,VWS V14.01,2013-02-06 17:44:00,
2013-02-06 19:45:00,58.5,39.9,29.26,NNW,338,0.9,1.3,50,0.00,,---,0.00,VWS V14.01,2013-02-06 17:45:00,
2013-02-06 19:46:00,58.5,39.9,29.26,North,0,0.9,0.9,50,0.00,,---,0.00,VWS V14.01,2013-02-06 17:46:00,
2013-02-06 19:47:00,58.5,39.9,29.26,North,0,1.1,1.1,50,0.00,,---,0.00,VWS V14.01,2013-02-06 17:47:00,
2013-02-06 19:48:00,58.5,39.9,29.26,NNW,338,2.5,2.5,50,0.00,,---,0.00,VWS V14.01,2013-02-06 17:48:00,
2013-02-06 19:49:00,58.5,39.9,29.26,NW,315,2.0,2.5,50,0.00,,---,0.00,VWS V14.01,2013-02-06 17:49:00,
2013-02-06 19:50:00,58.5,39.9,29.26,WNW,292,2.7,2.7,50,0.00,,---,0.00,VWS V14.01,2013-02-06 17:50:00,
2013-02-06 19:51:00,58.5,39.9,29.26,North,0,1.6,2.7,50,0.00,,---,0.00,VWS V14.01,2013-02-06 17:51:00,
2013-02-06 19:52:00,58.5,39.9,29.26,North,0,0.0,1.6,50,0.00,,---,0.00,VWS V14.01,2013-02-06 17:52:00,
2013-02-06 19:53:00,58.5,40.4,29.26,North,0,1.6,1.6,51,0.00,,---,0.00,VWS V14.01,2013-02-06 17:53:00,
2013-02-06 19:54:00,58.5,40.4,29.26,NW,315,1.3,1.6,51,0.00,,---,0.00,VWS V14.01,2013-02-06 17:54:00,
2013-02-06 19:55:00,58.5,40.4,29.26,NW,315,2.0,2.0,51,0.00,,---,0.00,VWS V14.01,2013-02-06 17:55:00,
2013-02-06 19:56:00,58.5,40.4,29.26,NNW,338,2.0,2.0,51,0.00,,---,0.00,VWS V14.01,2013-02-06 17:56:00,
2013-02-06 19:57:00,58.5,40.4,29.26,NNE,22,2.2,2.2,51,0.00,,---,0.00,VWS V14.01,2013-02-06 17:57:00,
2013-02-06 19:58:00,58.5,40.4,29.26,North,0,1.6,2.2,51,0.00,,---,0.00,VWS V14.01,2013-02-06 17:58:00,
2013-02-06 19:59:00,58.5,40.9,29.26,NW,315,1.3,1.6,52,0.00,,---,0.00,VWS V14.01,2013-02-06 17:59:00,
2013-02-06 20:00:00,58.5,40.9,29.26,North,0,0.0,1.3,52,0.00,,---,0.00,VWS V14.01,2013-02-06 18:00:00,
2013-02-06 20:01:00,58.5,40.9,29.26,North,0,1.6,1.6,52,0.00,,---,0.00,VWS V14.01,2013-02-06 18:01:00,
2013-02-06 20:02:00,58.5,40.9,29.26,NE,45,1.3,1.6,52,0.00,,---,0.00,VWS V14.01,2013-02-06 18:02:00,
2013-02-06 20:03:00,58.5,40.9,29.26,NNW,338,1.6,1.6,52,0.00,,---,0.00,VWS V14.01,2013-02-06 18:03:00,
2013-02-06 20:04:00,58.5,40.9,29.26,NE,45,2.5,2.5,52,0.00,,---,0.00,VWS V14.01,2013-02-06 18:04:00,
2013-02-06 20:05:00,58.5,41.4,29.26,NNE,22,1.3,2.5,53,0.00,,---,0.00,VWS V14.01,2013-02-06 18:05:00,
2013-02-06 20:06:00,58.5,41.4,29.26,NNE,22,1.3,1.3,53,0.00,,---,0.00,VWS V14.01,2013-02-06 18:06:00,
2013-02-06 20:07:00,58.5,41.4,29.26,North,0,2.0,2.0,53,0.00,,---,0.00,VWS V14.01,2013-02-06 18:07:00,
2013-02-06 20:08:00,58.5,41.4,29.26,North,0,1.1,2.0,53,0.00,,---,0.00,VWS V14.01,2013-02-06 18:08:00,
2013-02-06 20:09:00,58.5,41.4,29.26,NNE,22,0.0,1.1,53,0.00,,---,0.00,VWS V14.01,2013-02-06 18:09:00,
2013-02-06 20:10:00,58.5,41.4,29.26,NNE,22,1.1,1.1,53,0.00,,---,0.00,VWS V14.01,2013-02-06 18:10:00,
2013-02-06 20:11:00,58.3,41.2,29.26,ENE,68,1.3,1.3,53,0.00,,---,0.00,VWS V14.01,2013-02-06 18:11:00,
2013-02-06 20:12:00,58.3,40.8,29.26,ENE,68,0.9,1.3,52,0.00,,---,0.00,VWS V14.01,2013-02-06 18:12:00,
2013-02-06 20:13:00,58.3,40.8,29.26,ENE,68,1.3,1.3,52,0.00,,---,0.00,VWS V14.01,2013-02-06 18:13:00,
2013-02-06 20:14:00,58.1,40.6,29.26,ENE,68,0.0,1.3,52,0.00,,---,0.00,VWS V14.01,2013-02-06 18:14:00,
2013-02-06 20:15:00,58.1,40.6,29.26,ENE,68,1.3,1.3,52,0.00,,---,0.00,VWS V14.01,2013-02-06 18:15:00,
2013-02-06 20:16:00,57.9,40.4,29.26,ENE,68,0.0,1.3,52,0.00,,---,0.00,VWS V14.01,2013-02-06 18:16:00,
2013-02-06 20:17:00,57.9,39.9,29.26,East,90,0.9,0.9,51,0.00,,---,0.00,VWS V14.01,2013-02-06 18:17:00,
2013-02-06 20:18:00,57.7,39.8,29.26,East,90,0.0,0.9,51,0.00,,---,0.00,VWS V14.01,2013-02-06 18:18:00,
2013-02-06 20:19:00,57.6,39.6,29.26,East,90,0.0,0.0,51,0.00,,---,0.00,VWS V14.01,2013-02-06 18:19:00,
2013-02-06 20:20:00,57.6,39.6,29.26,ESE,112,1.3,1.3,51,0.00,,---,0.00,VWS V14.01,2013-02-06 18:20:00,
2013-02-06 20:21:00,57.6,39.6,29.26,East,90,0.0,1.3,51,0.00,,---,0.00,VWS V14.01,2013-02-06 18:21:00,
2013-02-06 20:22:00,57.6,39.6,29.26,North,0,1.1,1.1,51,0.00,,---,0.00,VWS V14.01,2013-02-06 18:22:00,
2013-02-06 20:24:00,57.4,38.9,29.26,North,0,0.0,1.1,50,0.00,,---,0.00,VWS V14.01,2013-02-06 18:24:00,
2013-02-06 20:25:00,57.4,38.9,29.26,North,0,0.0,0.0,50,0.00,,---,0.00,VWS V14.01,2013-02-06 18:25:00,
2013-02-06 20:26:00,57.4,38.9,29.26,North,0,0.0,0.0,50,0.00,,---,0.00,VWS V14.01,2013-02-06 18:26:00,
2013-02-06 20:27:00,57.2,38.8,29.26,North,0,0.0,0.0,50,0.00,,---,0.00,VWS V14.01,2013-02-06 18:27:00,
2013-02-06 20:28:00,57.2,38.8,29.26,NNE,22,0.0,0.0,50,0.00,,---,0.00,VWS V14.01,2013-02-06 18:28:00,
2013-02-06 20:29:00,57.2,38.8,29.26,NNE,22,0.0,0.0,50,0.00,,---,0.00,VWS V14.01,2013-02-06 18:29:00,
2013-02-06 20:30:00,57.2,38.2,29.26,NNE,22,1.1,1.1,49,0.00,,---,0.00,VWS V14.01,2013-02-06 18:30:00,
2013-02-06 20:31:00,57.0,38.1,29.26,NNE,22,0.9,1.1,49,0.00,,---,0.00,VWS V14.01,2013-02-06 18:31:00,
2013-02-06 20:32:00,57.0,38.1,29.26,North,0,1.3,1.3,49,0.00,,---,0.00,VWS V14.01,2013-02-06 18:32:00,
2013-02-06 20:33:00,57.0,38.1,29.26,North,0,0.0,1.3,49,0.00,,---,0.00,VWS V14.01,2013-02-06 18:33:00,
2013-02-06 20:34:00,57.0,38.1,29.26,NNW,338,0.0,0.0,49,0.00,,---,0.00,VWS V14.01,2013-02-06 18:34:00,
2013-02-06 20:35:00,57.0,38.1,29.26,NNW,338,0.9,0.9,49,0.00,,---,0.00,VWS V14.01,2013-02-06 18:35:00,
2013-02-06 20:36:00,56.8,37.4,29.26,NNW,338,0.9,0.9,48,0.00,,---,0.00,VWS V14.01,2013-02-06 18:36:00,
2013-02-06 20:37:00,56.8,37.4,29.23,NNW,338,0.9,0.9,48,0.00,,---,0.00,VWS V14.01,2013-02-06 18:37:00,
2013-02-06 20:38:00,56.8,37.4,29.23,NNW,338,0.0,0.9,48,0.00,,---,0.00,VWS V14.01,2013-02-06 18:38:00,
2013-02-06 20:39:00,56.8,36.8,29.23,ESE,112,2.5,2.5,47,0.00,,---,0.00,VWS V14.01,2013-02-06 18:39:00,
2013-02-06 20:40:00,56.8,36.8,29.23,SE,135,0.0,2.5,47,0.00,,---,0.00,VWS V14.01,2013-02-06 18:40:00,
2013-02-06 20:41:00,56.7,36.1,29.23,SE,135,1.1,1.1,46,0.00,,---,0.00,VWS V14.01,2013-02-06 18:41:00,
2013-02-06 20:42:00,56.7,36.1,29.23,South,180,1.3,1.3,46,0.00,,---,0.00,VWS V14.01,2013-02-06 18:42:00,
2013-02-06 20:43:00,56.7,36.1,29.23,South,180,1.6,1.6,46,0.00,,---,0.00,VWS V14.01,2013-02-06 18:43:00,
2013-02-06 20:44:00,56.7,36.1,29.23,South,180,1.1,1.6,46,0.00,,---,0.00,VWS V14.01,2013-02-06 18:44:00,
2013-02-06 20:45:00,56.7,36.1,29.23,SSE,158,2.5,2.5,46,0.00,,---,0.00,VWS V14.01,2013-02-06 18:45:00,
2013-02-06 20:46:00,56.7,36.1,29.23,SSE,158,0.9,2.5,46,0.00,,---,0.00,VWS V14.01,2013-02-06 18:46:00,
2013-02-06 20:47:00,56.7,35.6,29.23,SE,135,0.0,0.9,45,0.00,,---,0.00,VWS V14.01,2013-02-06 18:47:00,
2013-02-06 20:48:00,56.7,35.6,29.23,ESE,112,1.1,1.1,45,0.00,,---,0.00,VWS V14.01,2013-02-06 18:48:00,
2013-02-06 20:49:00,56.5,35.4,29.23,East,90,1.1,1.1,45,0.00,,---,0.00,VWS V14.01,2013-02-06 18:49:00,
2013-02-06 20:50:00,56.5,35.4,29.23,East,90,1.3,1.3,45,0.00,,---,0.00,VWS V14.01,2013-02-06 18:50:00,
2013-02-06 20:51:00,56.5,35.4,29.23,East,90,0.0,1.3,45,0.00,,---,0.00,VWS V14.01,2013-02-06 18:51:00,
2013-02-06 20:52:00,56.5,35.4,29.26,East,90,0.0,0.0,45,0.00,,---,0.00,VWS V14.01,2013-02-06 18:52:00,
2013-02-06 20:53:00,56.5,35.4,29.26,East,90,0.0,0.0,45,0.00,,---,0.00,VWS V14.01,2013-02-06 18:53:00,
2013-02-06 20:54:00,56.3,35.2,29.26,SE,135,2.0,2.0,45,0.00,,---,0.00,VWS V14.01,2013-02-06 18:54:00,
2013-02-06 20:55:00,56.3,35.2,29.26,SE,135,1.3,2.0,45,0.00,,---,0.00,VWS V14.01,2013-02-06 18:55:00,
2013-02-06 20:56:00,56.3,34.7,29.26,SE,135,1.1,1.3,44,0.00,,---,0.00,VWS V14.01,2013-02-06 18:56:00,
2013-02-06 20:57:00,56.3,34.7,29.26,SE,135,2.0,2.0,44,0.00,,---,0.00,VWS V14.01,2013-02-06 18:57:00,
2013-02-06 20:58:00,56.3,34.7,29.26,SE,135,0.0,2.0,44,0.00,,---,0.00,VWS V14.01,2013-02-06 18:58:00,
2013-02-06 20:59:00,56.3,34.1,29.26,SE,135,2.5,2.5,43,0.00,,---,0.00,VWS V14.01,2013-02-06 18:59:00,
2013-02-06 21:00:00,56.3,34.1,29.26,SE,135,2.2,2.5,43,0.00,,---,0.00,VWS V14.01,2013-02-06 19:00:00,
2013-02-06 21:01:00,56.3,34.1,29.26,SE,135,0.9,2.2,43,0.00,,---,0.00,VWS V14.01,2013-02-06 19:01:00,
2013-02-06 21:02:00,56.3,33.5,29.26,SE,135,1.3,1.3,42,0.00,,---,0.00,VWS V14.01,2013-02-06 19:02:00,
2013-02-06 21:04:00,56.3,33.5,29.26,ESE,112,0.9,1.3,42,0.00,,---,0.00,VWS V14.01,2013-02-06 19:04:00,
2013-02-06 21:05:00,56.3,33.5,29.26,ESE,112,1.1,1.1,42,0.00,,---,0.00,VWS V14.01,2013-02-06 19:05:00,
2013-02-06 21:06:00,56.3,33.5,29.26,ESE,112,0.0,1.1,42,0.00,,---,0.00,VWS V14.01,2013-02-06 19:06:00,
2013-02-06 21:07:00,56.3,33.5,29.26,ESE,112,0.0,0.0,42,0.00,,---,0.00,VWS V14.01,2013-02-06 19:07:00,
2013-02-06 21:08:00,56.1,33.4,29.26,SE,135,1.3,1.3,42,0.00,,---,0.00,VWS V14.01,2013-02-06 19:08:00,
2013-02-06 21:09:00,56.1,32.8,29.26,SE,135,0.0,1.3,41,0.00,,---,0.00,VWS V14.01,2013-02-06 19:09:00,
2013-02-06 21:10:00,56.1,32.8,29.26,SSE,158,0.0,0.0,41,0.00,,---,0.00,VWS V14.01,2013-02-06 19:10:00,
2013-02-06 21:11:00,56.1,32.8,29.26,SSE,158,1.3,1.3,41,0.00,,---,0.00,VWS V14.01,2013-02-06 19:11:00,
2013-02-06 21:12:00,56.1,32.8,29.26,SSE,158,0.9,1.3,41,0.00,,---,0.00,VWS V14.01,2013-02-06 19:12:00,
2013-02-06 21:13:00,56.1,32.8,29.26,SSE,158,1.3,1.3,41,0.00,,---,0.00,VWS V14.01,2013-02-06 19:13:00,
2013-02-06 21:14:00,56.1,32.8,29.26,SSE,158,1.1,1.3,41,0.00,,---,0.00,VWS V14.01,2013-02-06 19:14:00,
2013-02-06 21:15:00,56.1,32.8,29.26,SSE,158,1.1,1.1,41,0.00,,---,0.00,VWS V14.01,2013-02-06 19:15:00,
2013-02-06 21:16:00,56.1,32.8,29.26,SSE,158,1.1,1.1,41,0.00,,---,0.00,VWS V14.01,2013-02-06 19:16:00,
2013-02-06 21:17:00,56.1,32.8,29.26,SSE,158,0.0,1.1,41,0.00,,---,0.00,VWS V14.01,2013-02-06 19:17:00,
2013-02-06 21:18:00,56.1,32.2,29.26,SSE,158,0.0,0.0,40,0.00,,---,0.00,VWS V14.01,2013-02-06 19:18:00,
2013-02-06 21:19:00,56.1,32.2,29.26,SSE,158,1.1,1.1,40,0.00,,---,0.00,VWS V14.01,2013-02-06 19:19:00,
2013-02-06 21:20:00,55.9,32.0,29.26,SSE,158,0.0,1.1,40,0.00,,---,0.00,VWS V14.01,2013-02-06 19:20:00,
2013-02-06 21:21:00,55.9,32.0,29.26,SSE,158,0.0,0.0,40,0.00,,---,0.00,VWS V14.01,2013-02-06 19:21:00,
2013-02-06 21:22:00,55.9,32.0,29.26,SSE,158,0.0,0.0,40,0.00,,---,0.00,VWS V14.01,2013-02-06 19:22:00,
2013-02-06 21:24:00,55.9,32.0,29.26,SE,135,0.9,0.9,40,0.00,,---,0.00,VWS V14.01,2013-02-06 19:24:00,
2013-02-06 21:25:00,55.9,32.0,29.26,SSE,158,1.1,1.1,40,0.00,,---,0.00,VWS V14.01,2013-02-06 19:25:00,
2013-02-06 21:26:00,55.9,32.0,29.26,SSE,158,0.9,1.1,40,0.00,,---,0.00,VWS V14.01,2013-02-06 19:26:00,
2013-02-06 21:27:00,55.9,32.0,29.26,SSE,158,1.3,1.3,40,0.00,,---,0.00,VWS V14.01,2013-02-06 19:27:00,
2013-02-06 21:28:00,55.8,31.8,29.26,SSE,158,0.0,1.3,40,0.00,,---,0.00,VWS V14.01,2013-02-06 19:28:00,
2013-02-06 21:29:00,55.8,31.8,29.26,SSE,158,0.9,0.9,40,0.00,,---,0.00,VWS V14.01,2013-02-06 19:29:00,
2013-02-06 21:30:00,55.8,31.8,29.26,SSE,158,0.0,0.9,40,0.00,,---,0.00,VWS V14.01,2013-02-06 19:30:00,
2013-02-06 21:31:00,55.8,31.8,29.26,SSE,158,0.0,0.0,40,0.00,,---,0.00,VWS V14.01,2013-02-06 19:31:00,
2013-02-06 21:32:00,55.8,31.8,29.26,SSE,158,0.0,0.0,40,0.00,,---,0.00,VWS V14.01,2013-02-06 19:32:00,
2013-02-06 21:33:00,55.8,31.8,29.26,ESE,112,1.1,1.1,40,0.00,,---,0.00,VWS V14.01,2013-02-06 19:33:00,
2013-02-06 21:34:00,55.8,31.8,29.26,ESE,112,0.0,1.1,40,0.00,,---,0.00,VWS V14.01,2013-02-06 19:34:00,
2013-02-06 21:35:00,55.8,31.8,29.26,SE,135,0.0,0.0,40,0.00,,---,0.00,VWS V14.01,2013-02-06 19:35:00,
2013-02-06 21:36:00,55.6,31.7,29.26,SE,135,0.0,0.0,40,0.00,,---,0.00,VWS V14.01,2013-02-06 19:36:00,
2013-02-06 21:37:00,55.6,31.7,29.26,SE,135,1.1,1.1,40,0.00,,---,0.00,VWS V14.01,2013-02-06 19:37:00,
2013-02-06 21:38:00,55.6,31.7,29.26,SE,135,1.1,1.1,40,0.00,,---,0.00,VWS V14.01,2013-02-06 19:38:00,
2013-02-06 21:39:00,55.6,31.7,29.26,SSE,158,0.0,1.1,40,0.00,,---,0.00,VWS V14.01,2013-02-06 19:39:00,
2013-02-06 21:40:00,55.6,31.7,29.26,SE,135,1.6,1.6,40,0.00,,---,0.00,VWS V14.01,2013-02-06 19:40:00,
2013-02-06 21:41:00,55.6,31.7,29.26,SE,135,0.0,1.6,40,0.00,,---,0.00,VWS V14.01,2013-02-06 19:41:00,
2013-02-06 21:42:00,55.6,31.7,29.26,SE,135,1.3,1.3,40,0.00,,---,0.00,VWS V14.01,2013-02-06 19:42:00,
2013-02-06 21:43:00,55.6,31.7,29.26,SSE,158,0.9,1.3,40,0.00,,---,0.00,VWS V14.01,2013-02-06 19:43:00,
2013-02-06 21:44:00,55.6,31.7,29.26,SSE,158,1.1,1.1,40,0.00,,---,0.00,VWS V14.01,2013-02-06 19:44:00,
2013-02-06 21:45:00,55.6,31.7,29.26,SSE,158,0.0,1.1,40,0.00,,---,0.00,VWS V14.01,2013-02-06 19:45:00,
2013-02-06 21:46:00,55.6,31.7,29.26,SSE,158,1.3,1.3,40,0.00,,---,0.00,VWS V14.01,2013-02-06 19:46:00,
2013-02-06 21:47:00,55.6,31.7,29.26,SSE,158,1.6,1.6,40,0.00,,---,0.00,VWS V14.01,2013-02-06 19:47:00,
2013-02-06 21:48:00,55.6,31.7,29.26,SSE,158,1.6,1.6,40,0.00,,---,0.00,VWS V14.01,2013-02-06 19:48:00,
2013-02-06 21:49:00,55.6,31.7,29.26,SSE,158,2.0,2.0,40,0.00,,---,0.00,VWS V14.01,2013-02-06 19:49:00,
2013-02-06 21:50:00,55.6,31.7,29.26,SSE,158,0.0,2.0,40,0.00,,---,0.00,VWS V14.01,2013-02-06 19:50:00,
2013-02-06 22:00:00,55.4,31.5,29.26,SSE,158,0.0,0.0,40,0.00,,---,0.00,VWS V14.01,2013-02-06 20:00:00,
2013-02-06 22:05:00,55.0,31.8,29.26,SSE,158,0.9,2.0,41,0.00,,---,0.00,VWS V14.01,2013-02-06 20:05:00,
2013-02-06 22:09:00,55.2,31.3,29.26,SSE,158,0.0,0.0,40,0.00,,---,0.00,VWS V14.01,2013-02-06 20:09:00,
2013-02-06 22:10:00,54.9,31.6,29.26,SSE,158,1.6,1.6,41,0.00,,---,0.00,VWS V14.01,2013-02-06 20:10:00,
2013-02-06 22:11:00,55.2,31.3,29.26,SSE,158,0.0,0.0,40,0.00,,---,0.00,VWS V14.01,2013-02-06 20:11:00,
2013-02-06 22:12:00,55.2,31.3,29.26,SSE,158,0.0,0.0,40,0.00,,---,0.00,VWS V14.01,2013-02-06 20:12:00,
2013-02-06 22:13:00,55.0,31.8,29.26,SSE,158,2.0,2.0,41,0.00,,---,0.00,VWS V14.01,2013-02-06 20:13:00,
2013-02-06 22:14:00,55.0,31.8,29.26,SSE,158,2.0,2.0,41,0.00,,---,0.00,VWS V14.01,2013-02-06 20:14:00,
2013-02-06 22:15:00,54.9,32.2,29.26,SSE,158,0.9,1.1,42,0.00,,---,0.00,VWS V14.01,2013-02-06 20:15:00,
2013-02-06 22:16:00,54.9,31.6,29.26,SSE,158,1.3,2.2,41,0.00,,---,0.00,VWS V14.01,2013-02-06 20:16:00,
2013-02-06 22:17:00,54.9,31.6,29.26,SSE,158,0.0,1.6,41,0.00,,---,0.00,VWS V14.01,2013-02-06 20:17:00,
2013-02-06 22:18:00,54.9,31.6,29.26,SSE,158,0.0,1.1,41,0.00,,---,0.00,VWS V14.01,2013-02-06 20:18:00,
2013-02-06 22:19:00,54.9,31.6,29.26,SSE,158,1.6,1.6,41,0.00,,---,0.00,VWS V14.01,2013-02-06 20:19:00,
2013-02-06 22:20:00,54.9,31.6,29.26,SSE,158,0.0,1.6,41,0.00,,---,0.00,VWS V14.01,2013-02-06 20:20:00,
2013-02-06 22:21:00,54.9,32.2,29.26,SE,135,1.3,1.3,42,0.00,,---,0.00,VWS V14.01,2013-02-06 20:21:00,
2013-02-06 22:22:00,54.9,31.6,29.26,SSE,158,0.0,1.6,41,0.00,,---,0.00,VWS V14.01,2013-02-06 20:22:00,
2013-02-06 22:23:00,54.9,31.6,29.26,SSE,158,1.1,1.6,41,0.00,,---,0.00,VWS V14.01,2013-02-06 20:23:00,
2013-02-06 22:24:00,54.9,32.2,29.26,SSE,158,0.9,1.1,42,0.00,,---,0.00,VWS V14.01,2013-02-06 20:24:00,
2013-02-06 22:25:00,54.9,32.2,29.26,ESE,112,1.1,2.2,42,0.00,,---,0.00,VWS V14.01,2013-02-06 20:25:00,
2013-02-06 22:26:00,55.0,33.0,29.26,SSE,158,3.1,3.1,43,0.00,,---,0.00,VWS V14.01,2013-02-06 20:26:00,
2013-02-06 22:27:00,54.9,32.2,29.26,SE,135,0.0,1.6,42,0.00,,---,0.00,VWS V14.01,2013-02-06 20:27:00,
2013-02-06 22:28:00,54.9,32.2,29.26,SE,135,0.0,0.0,42,0.00,,---,0.00,VWS V14.01,2013-02-06 20:28:00,
2013-02-06 22:31:00,55.4,33.3,29.23,South,180,1.1,3.8,43,0.00,,---,0.00,VWS V14.01,2013-02-06 20:31:00,
2013-02-06 22:36:00,55.8,33.6,29.23,South,180,2.0,2.0,43,0.00,,---,0.00,VWS V14.01,2013-02-06 20:36:00,
2013-02-06 22:41:00,55.9,33.8,29.23,SE,135,0.0,0.0,43,0.00,,---,0.00,VWS V14.01,2013-02-06 20:41:00,
2013-02-06 22:46:00,55.9,33.8,29.26,SE,135,1.6,1.6,43,0.00,,---,0.00,VWS V14.01,2013-02-06 20:46:00,
2013-02-06 22:56:00,55.9,33.8,29.26,SE,135,1.1,1.1,43,0.00,,---,0.00,VWS V14.01,2013-02-06 20:56:00,
2013-02-06 22:57:00,55.9,33.8,29.26,SE,135,1.6,1.6,43,0.00,,---,0.00,VWS V14.01,2013-02-06 20:57:00,
2013-02-06 22:58:00,55.9,33.8,29.26,SSE,158,0.0,1.6,43,0.00,,---,0.00,VWS V14.01,2013-02-06 20:58:00,
2013-02-06 22:59:00,55.9,33.8,29.26,SSE,158,1.6,1.6,43,0.00,,---,0.00,VWS V14.01,2013-02-06 20:59:00,
2013-02-06 23:00:00,55.9,33.8,29.26,SE,135,0.9,1.6,43,0.00,,---,0.00,VWS V14.01,2013-02-06 21:00:00,
2013-02-06 23:01:00,55.9,33.8,29.26,SE,135,1.3,1.3,43,0.00,,---,0.00,VWS V14.01,2013-02-06 21:01:00,
2013-02-06 23:02:00,55.9,33.8,29.26,SE,135,0.0,1.3,43,0.00,,---,0.00,VWS V14.01,2013-02-06 21:02:00,
2013-02-06 23:03:00,55.9,33.8,29.26,SE,135,1.1,1.1,43,0.00,,---,0.00,VWS V14.01,2013-02-06 21:03:00,
2013-02-06 23:05:00,55.9,33.8,29.26,SE,135,0.0,1.1,43,0.00,,---,0.00,VWS V14.01,2013-02-06 21:05:00,
2013-02-06 23:06:00,55.9,33.8,29.26,SE,135,1.3,1.3,43,0.00,,---,0.00,VWS V14.01,2013-02-06 21:06:00,
2013-02-06 23:07:00,55.9,33.8,29.26,WSW,248,2.2,2.2,43,0.00,,---,0.00,VWS V14.01,2013-02-06 21:07:00,
2013-02-06 23:08:00,55.9,33.8,29.26,NNW,338,2.0,2.2,43,0.00,,---,0.00,VWS V14.01,2013-02-06 21:08:00,
2013-02-06 23:09:00,55.9,33.8,29.26,NNE,22,2.0,2.0,43,0.00,,---,0.00,VWS V14.01,2013-02-06 21:09:00,
2013-02-06 23:10:00,55.9,33.8,29.26,North,0,1.3,2.0,43,0.00,,---,0.00,VWS V14.01,2013-02-06 21:10:00,
2013-02-06 23:11:00,55.9,33.8,29.26,North,0,0.9,1.3,43,0.00,,---,0.00,VWS V14.01,2013-02-06 21:11:00,
2013-02-06 23:12:00,55.9,34.4,29.26,NNE,22,0.9,0.9,44,0.00,,---,0.00,VWS V14.01,2013-02-06 21:12:00,
2013-02-06 23:13:00,55.9,34.4,29.26,NNE,22,3.4,3.4,44,0.00,,---,0.00,VWS V14.01,2013-02-06 21:13:00,
2013-02-06 23:14:00,55.9,34.4,29.26,WNW,292,0.0,3.4,44,0.00,,---,0.00,VWS V14.01,2013-02-06 21:14:00,
2013-02-06 23:15:00,55.9,34.4,29.26,WNW,292,1.6,1.6,44,0.00,,---,0.00,VWS V14.01,2013-02-06 21:15:00,
2013-02-06 23:16:00,55.9,34.4,29.26,WNW,292,0.9,1.6,44,0.00,,---,0.00,VWS V14.01,2013-02-06 21:16:00,
2013-02-06 23:17:00,55.9,34.4,29.26,NW,315,1.1,1.1,44,0.00,,---,0.00,VWS V14.01,2013-02-06 21:17:00,
2013-02-06 23:18:00,55.8,34.2,29.26,NW,315,0.9,1.1,44,0.00,,---,0.00,VWS V14.01,2013-02-06 21:18:00,
2013-02-06 23:19:00,55.8,34.2,29.26,NW,315,0.0,0.9,44,0.00,,---,0.00,VWS V14.01,2013-02-06 21:19:00,
2013-02-06 23:20:00,55.8,34.2,29.26,NW,315,0.0,0.0,44,0.00,,---,0.00,VWS V14.01,2013-02-06 21:20:00,
2013-02-06 23:21:00,55.8,34.2,29.26,NW,315,0.0,0.0,44,0.00,,---,0.00,VWS V14.01,2013-02-06 21:21:00,
2013-02-06 23:22:00,55.6,34.0,29.23,NW,315,1.1,1.1,44,0.00,,---,0.00,VWS V14.01,2013-02-06 21:22:00,
2013-02-06 23:23:00,55.6,34.0,29.23,NW,315,0.9,1.1,44,0.00,,---,0.00,VWS V14.01,2013-02-06 21:23:00,
2013-02-06 23:24:00,55.6,34.0,29.23,NW,315,0.0,0.9,44,0.00,,---,0.00,VWS V14.01,2013-02-06 21:24:00,
2013-02-06 23:25:00,55.6,34.0,29.23,NW,315,0.0,0.0,44,0.00,,---,0.00,VWS V14.01,2013-02-06 21:25:00,
2013-02-06 23:26:00,55.4,33.9,29.23,NW,315,0.0,0.0,44,0.00,,---,0.00,VWS V14.01,2013-02-06 21:26:00,
2013-02-06 23:27:00,55.4,33.9,29.23,NW,315,0.0,0.0,44,0.00,,---,0.00,VWS V14.01,2013-02-06 21:27:00,
2013-02-06 23:28:00,55.4,33.9,29.23,NW,315,0.0,0.0,44,0.00,,---,0.00,VWS V14.01,2013-02-06 21:28:00,
2013-02-06 23:29:00,55.4,33.9,29.23,NW,315,0.0,0.0,44,0.00,,---,0.00,VWS V14.01,2013-02-06 21:29:00,
2013-02-06 23:30:00,55.4,33.9,29.23,NW,315,0.9,0.9,44,0.00,,---,0.00,VWS V14.01,2013-02-06 21:30:00,
2013-02-06 23:31:00,55.4,33.9,29.23,WNW,292,1.3,1.3,44,0.00,,---,0.00,VWS V14.01,2013-02-06 21:31:00,
2013-02-06 23:32:00,55.2,34.3,29.23,West,270,0.0,1.3,45,0.00,,---,0.00,VWS V14.01,2013-02-06 21:32:00,
2013-02-06 23:33:00,55.2,34.3,29.23,West,270,0.0,0.0,45,0.00,,---,0.00,VWS V14.01,2013-02-06 21:33:00,
2013-02-06 23:34:00,55.2,34.3,29.23,West,270,0.0,0.0,45,0.00,,---,0.00,VWS V14.01,2013-02-06 21:34:00,
2013-02-06 23:35:00,55.0,34.1,29.23,West,270,0.0,0.0,45,0.00,,---,0.00,VWS V14.01,2013-02-06 21:35:00,
2013-02-06 23:36:00,55.0,34.1,29.23,WSW,248,2.0,2.0,45,0.00,,---,0.00,VWS V14.01,2013-02-06 21:36:00,
2013-02-06 23:37:00,55.0,34.1,29.26,SSW,202,2.2,2.2,45,0.00,,---,0.00,VWS V14.01,2013-02-06 21:37:00,
2013-02-06 23:38:00,55.0,34.1,29.26,South,180,0.0,2.2,45,0.00,,---,0.00,VWS V14.01,2013-02-06 21:38:00,
2013-02-06 23:39:00,55.0,34.1,29.26,SSE,158,2.0,2.0,45,0.00,,---,0.00,VWS V14.01,2013-02-06 21:39:00,
2013-02-06 23:40:00,55.0,34.1,29.26,SE,135,2.2,2.2,45,0.00,,---,0.00,VWS V14.01,2013-02-06 21:40:00,
2013-02-06 23:41:00,55.0,34.1,29.26,SE,135,1.1,2.2,45,0.00,,---,0.00,VWS V14.01,2013-02-06 21:41:00,
2013-02-06 23:42:00,55.0,34.7,29.26,SSE,158,1.6,1.6,46,0.00,,---,0.00,VWS V14.01,2013-02-06 21:42:00,
2013-02-06 23:43:00,55.0,34.7,29.26,SE,135,1.3,1.6,46,0.00,,---,0.00,VWS V14.01,2013-02-06 21:43:00,
2013-02-06 23:44:00,55.0,34.7,29.26,SSE,158,2.5,2.5,46,0.00,,---,0.00,VWS V14.01,2013-02-06 21:44:00,
2013-02-06 23:45:00,55.0,34.7,29.26,South,180,2.7,2.7,46,0.00,,---,0.00,VWS V14.01,2013-02-06 21:45:00,
2013-02-06 23:46:00,55.0,34.7,29.26,South,180,1.3,2.7,46,0.00,,---,0.00,VWS V14.01,2013-02-06 21:46:00,
2013-02-06 23:47:00,55.0,34.7,29.26,SSE,158,0.9,1.3,46,0.00,,---,0.00,VWS V14.01,2013-02-06 21:47:00,
2013-02-06 23:48:00,55.0,34.7,29.26,SSE,158,1.3,1.3,46,0.00,,---,0.00,VWS V14.01,2013-02-06 21:48:00,
2013-02-06 23:49:00,55.0,34.7,29.26,SE,135,0.9,1.3,46,0.00,,---,0.00,VWS V14.01,2013-02-06 21:49:00,
2013-02-06 23:50:00,55.0,34.7,29.26,SE,135,1.3,1.3,46,0.00,,---,0.00,VWS V14.01,2013-02-06 21:50:00,
2013-02-06 23:51:00,55.0,34.7,29.26,SSE,158,2.7,2.7,46,0.00,,---,0.00,VWS V14.01,2013-02-06 21:51:00,
2013-02-06 23:52:00,55.0,35.2,29.26,SSE,158,2.0,2.7,47,0.00,,---,0.00,VWS V14.01,2013-02-06 21:52:00,
2013-02-06 23:53:00,55.0,35.2,29.26,SSE,158,2.0,2.0,47,0.00,,---,0.00,VWS V14.01,2013-02-06 21:53:00,
2013-02-06 23:54:00,55.0,35.2,29.26,SSE,158,0.0,2.0,47,0.00,,---,0.00,VWS V14.01,2013-02-06 21:54:00,
2013-02-06 23:55:00,55.0,35.2,29.26,SE,135,1.1,1.1,47,0.00,,---,0.00,VWS V14.01,2013-02-06 21:55:00,
2013-02-06 23:56:00,55.0,35.2,29.26,SE,135,0.0,1.1,47,0.00,,---,0.00,VWS V14.01,2013-02-06 21:56:00,
2013-02-06 23:57:00,55.0,35.2,29.26,SE,135,0.9,0.9,47,0.00,,---,0.00,VWS V14.01,2013-02-06 21:57:00,
2013-02-06 23:58:00,55.2,35.4,29.26,South,180,4.3,4.3,47,0.00,,---,0.00,VWS V14.01,2013-02-06 21:58:00,
2013-02-06 23:59:00,55.2,35.4,29.26,SSW,202,3.4,4.3,47,0.00,,---,0.00,VWS V14.01,2013-02-06 21:59:00,